Date StartTime U_cm/s V_cm/s W_cm/s Ustd_cm/s Vstd_cm/s Wstd_cm/s Uvar_(cm/s)^2 Vvar_(cm/s)^2 Wvar_(cm/s)^2 KE_(m/s)^2 TurbulentKE_(m/s)^2 HorizWindSpeed_cm/s FrictionSpeec_cm/s DragCoef SpeedOfSound_m/s SonicTemperature_C Pressure_mb 
01/29/2014  00:00:00      -18.474       57.329      -11.082       59.150       32.461       30.504     3498.663     1053.690      930.502        0.462        0.274       60.232       25.924        0.185      339.475       12.834      865.180
01/29/2014  00:01:00       -3.288       30.870        4.368       29.441       37.423       21.994      866.798     1400.495      483.740        0.187        0.138       31.045        5.792        0.035      339.500       12.876      865.179
01/29/2014  00:02:00      -19.322       43.530       10.867       33.777       47.594       25.436     1140.888     2265.235      646.985        0.322        0.203       47.626       29.070        0.373      339.486       12.852      865.189
01/29/2014  00:03:00     -110.798       46.236       -6.612       81.192       76.063       39.717     6592.153     5785.569     1577.432        1.420        0.698      120.058       31.923        0.071      339.408       12.720      865.185
01/29/2014  00:04:00     -181.859       41.893      -14.097      109.206       61.220       43.129    11926.037     3747.908     1860.110        2.628        0.877      186.622       40.672        0.047      339.700       13.211      865.149
01/29/2014  00:05:00     -115.127      -25.768       -3.159       75.587       32.997       24.808     5713.396     1088.830      615.423        1.067        0.371      117.975       28.317        0.058      339.587       13.022      865.134
01/29/2014  00:06:00     -168.825       11.717      -16.702       41.545       33.692       19.389     1726.012     1135.160      375.946        1.608        0.162      169.231       13.805        0.007      339.586       13.019      865.117
01/29/2014  00:07:00      -98.727       18.462      -16.851       60.015       30.680       22.693     3601.806      941.251      514.968        0.771        0.253      100.438       20.575        0.042      339.503       12.880      865.108
01/29/2014  00:08:00       -2.138       58.840        3.817       30.101       59.692       25.634      906.049     3563.178      657.102        0.430        0.256       58.878       31.244        0.282      339.516       12.904      865.091
01/29/2014  00:09:00     -199.396       29.576      -18.449       51.442       38.297       25.298     2646.236     1466.681      639.980        2.286        0.238      201.578       23.574        0.014      339.659       13.142      865.080
01/29/2014  00:10:00     -109.820       22.744       -8.929       72.464       37.063       32.158     5250.965     1373.638     1034.156        1.016        0.383      112.150       38.231        0.116      339.607       13.055      865.059
01/29/2014  00:11:00      -40.068       14.957       11.618       29.510       25.780       16.949      870.824      664.631      287.283        0.189        0.091       42.769        9.752        0.052      339.555       12.967      865.045
01/29/2014  00:12:00      -40.874        5.306        0.802       26.561       20.907       17.562      705.507      437.104      308.435        0.158        0.073       41.217        9.068        0.048      339.612       13.065      865.029
01/29/2014  00:13:00     -113.076      -68.180       -2.891       62.568       39.657       23.802     3914.715     1572.683      566.518        1.175        0.303      132.040       25.893        0.038      339.726       13.257      865.010
01/29/2014  00:14:00     -103.074      -42.658       -2.383       73.169       41.191       25.569     5353.668     1696.719      653.785        1.008        0.385      111.552       26.694        0.057      339.697       13.206      865.011
01/29/2014  00:15:00     -115.335      -34.375       -0.495       70.885       47.992       34.746     5024.707     2303.236     1207.296        1.151        0.427      120.349       35.914        0.089      339.682       13.181      865.024
01/29/2014  00:16:00     -141.997      -90.334        1.845       71.863       54.415       35.070     5164.297     2961.036     1229.883        1.884        0.468      168.296       33.714        0.040      339.735       13.272      865.034
01/29/2014  00:17:00     -121.113      -47.703        2.304       72.757       54.442       35.051     5293.520     2963.945     1228.563        1.322        0.474      130.168       34.927        0.072      339.678       13.174      865.050
01/29/2014  00:18:00     -123.634     -107.958       -5.284       60.381       55.623       33.133     3645.871     3093.901     1097.766        1.740        0.392      164.135       32.338        0.039      339.645       13.118      865.066
01/29/2014  00:19:00      -64.095      -84.145       -4.221       54.535       47.069       24.074     2974.056     2215.492      579.538        0.849        0.288      105.776       13.572        0.016      339.605       13.053      865.071
01/29/2014  00:20:00      -56.348      -38.127        7.343       48.892       43.998       31.017     2390.441     1935.809      962.073        0.498        0.264       68.035       28.795        0.179      339.562       12.980      865.096
01/29/2014  00:21:00      -21.511      -45.404       -6.093       33.351       41.689       26.426     1112.313     1737.995      698.343        0.305        0.177       50.242       19.690        0.154      339.468       12.821      865.126
01/29/2014  00:22:00       20.502      -73.351        6.647       33.730       59.703       41.667     1137.714     3564.413     1736.127        0.614        0.322       76.162       36.696        0.232      339.242       12.441      865.170
01/29/2014  00:23:00       51.245      -79.956        6.158       48.028       56.996       37.602     2306.731     3248.588     1413.877        0.801        0.348       94.969       37.730        0.158      338.990       12.017      865.218
01/29/2014  00:24:00       48.571      -99.284      -20.597       55.178       48.148       28.580     3044.590     2318.216      816.788        0.941        0.309      110.528       27.586        0.062      338.991       12.018      865.265
01/29/2014  00:25:00       51.575      -89.261      -12.499       52.850       52.980       32.764     2793.114     2806.903     1073.477        0.873        0.334      103.089       27.982        0.074      339.009       12.048      865.297
01/29/2014  00:26:00       18.033      -55.689       -2.319       46.828       47.511       32.697     2192.854     2257.260     1069.085        0.447        0.276       58.536       22.989        0.154      338.938       11.931      865.314
01/29/2014  00:27:00       50.466      -39.691       24.429       79.320       78.740       70.399     6291.633     6199.965     4956.077        1.108        0.872       64.204       62.288        0.941      338.813       11.720      865.298
01/29/2014  00:28:00       53.225      -48.723       20.177       64.383       72.448       64.793     4145.139     5248.692     4198.178        0.960        0.680       72.158       56.721        0.618      338.760       11.631      865.290
01/29/2014  00:29:00       40.942     -101.795      -12.028       47.848       44.706       38.153     2289.417     1998.583     1455.641        0.896        0.287      109.719       31.629        0.083      338.809       11.713      865.292
01/29/2014  00:30:00      -17.736      -32.385       -4.881       53.059       41.981       20.094     2815.210     1762.393      403.787        0.318        0.249       36.924       16.446        0.198      338.834       11.754      865.310
01/29/2014  00:31:00      -17.201      -15.421       16.584       27.709       36.880       17.206      767.769     1360.169      296.040        0.162        0.121       23.102        9.826        0.181      338.897       11.861      865.305
01/29/2014  00:32:00      -18.237      -24.519        0.818       33.650       33.381       26.184     1132.332     1114.260      685.624        0.193        0.147       30.558       16.530        0.293      338.908       11.879      865.316
01/29/2014  00:33:00        0.211      -11.846        7.011       42.339       20.512       14.575     1792.610      420.728      212.444        0.131        0.121       11.848        9.556        0.651      338.887       11.844      865.296
01/29/2014  00:34:00       11.677       -5.526       23.111       31.498       26.831       23.003      992.130      719.920      529.117        0.147        0.112       12.918       15.857        1.507      338.849       11.779      865.277
01/29/2014  00:35:00        1.252        0.852       37.931       27.145       38.192       27.711      736.831     1458.662      767.882        0.220        0.148        1.515       27.239      323.371      338.850       11.783      865.264
01/29/2014  00:36:00       -7.417        3.074       13.326       37.522       23.823       15.784     1407.916      567.528      249.133        0.123        0.111        8.029       13.970        3.027      338.830       11.747      865.269
01/29/2014  00:37:00      -19.027        7.943       16.930       10.799       11.032       11.288      116.625      121.711      127.423        0.054        0.018       20.618        7.620        0.137      338.830       11.747      865.267
01/29/2014  00:38:00      -64.869       11.753       -1.419       15.752       24.240       10.589      248.116      587.568      112.124        0.265        0.047       65.925       11.685        0.031      338.854       11.789      865.259
01/29/2014  00:39:00      -72.667       -6.489       -2.701       33.992       35.439       16.159     1155.463     1255.952      261.115        0.400        0.134       72.956       13.914        0.036      338.869       11.815      865.244
01/29/2014  00:40:00      -90.868      -28.194        0.735       52.746       31.912       21.784     2782.091     1018.400      474.548        0.666        0.214       95.141       24.364        0.066      338.864       11.804      865.229
01/29/2014  00:41:00      -43.625      -63.190        2.551       24.493       30.653       20.937      599.887      939.620      438.358        0.394        0.099       76.787       16.244        0.045      338.818       11.729      865.206
01/29/2014  00:42:00      -78.485       17.914        4.220       32.382       29.778       17.222     1048.625      886.708      296.593        0.436        0.112       80.504       15.406        0.037      339.004       12.042      865.180
01/29/2014  00:43:00     -105.100      -21.032       -9.951       29.178       35.577       25.362      851.366     1265.724      643.232        0.717        0.138      107.183       21.146        0.039      339.027       12.078      865.184
01/29/2014  00:44:00      -81.726      -29.248       -8.359       24.854       11.644       15.066      617.738      135.572      226.973        0.429        0.049       86.802       15.440        0.032      338.896       11.860      865.182
01/29/2014  00:45:00      -85.394      -31.333       -9.813       32.788       20.298       10.112     1075.053      412.027      102.243        0.498        0.079       90.961       11.234        0.015      338.915       11.890      865.165
01/29/2014  00:46:00      -37.118      -42.569        9.862       34.102       27.889       17.022     1162.978      777.792      289.742        0.276        0.112       56.479       18.465        0.107      339.007       12.047      865.134
01/29/2014  00:47:00      -73.975      -21.816        0.256       43.197       24.172       16.310     1865.946      584.274      266.010        0.433        0.136       77.125       17.325        0.050      339.031       12.085      865.109
01/29/2014  00:48:00      -56.990      -62.579        8.559       49.198       31.617       25.845     2420.445      999.633      667.984        0.566        0.204       84.640       28.507        0.113      339.083       12.173      865.098
01/29/2014  00:49:00     -101.060      -69.689       -0.260       58.393       34.967       28.979     3409.775     1222.702      839.804        1.027        0.274      122.758       27.627        0.051      339.245       12.446      865.090
01/29/2014  00:50:00     -153.166      -92.713       -2.851       67.449       57.443       35.022     4549.422     3299.692     1226.506        2.057        0.454      179.041       29.323        0.027      339.327       12.583      865.095
01/29/2014  00:51:00     -188.809      -40.829       -3.269       51.123       62.430       32.797     2613.538     3897.555     1075.635        2.246        0.379      193.173       24.540        0.016      339.291       12.519      865.115
01/29/2014  00:52:00     -213.558      -29.133        2.802       69.254       50.164       35.698     4796.151     2516.437     1274.346        2.752        0.429      215.536       36.665        0.029      339.368       12.649      865.118
01/29/2014  00:53:00     -206.495      -16.059        2.812       74.468       57.926       43.889     5545.432     3355.464     1926.238        2.686        0.541      207.118       44.503        0.046      339.421       12.740      865.110
01/29/2014  00:54:00     -178.582      -25.505      -12.521       74.105       63.093       31.590     5491.548     3980.666      997.935        2.158        0.524      180.394       32.302        0.032      339.465       12.815      865.106
01/29/2014  00:55:00     -206.473     -103.487      -17.493       94.671       65.383       37.527     8962.519     4274.960     1408.306        3.414        0.732      230.956       45.793        0.039      339.450       12.789      865.104
01/29/2014  00:56:00     -304.941      -34.723      -20.991       57.873       87.301       38.116     3349.263     7621.386     1452.803        5.353        0.621      306.912       29.027        0.009      339.526       12.915      865.095
01/29/2014  00:57:00     -277.078      -97.201      -26.560       64.406       59.619       42.549     4148.147     3554.385     1810.452        4.822        0.476      293.633       28.958        0.010      339.537       12.932      865.096
01/29/2014  00:58:00     -244.683      -90.778      -31.983      101.213       65.231       47.373    10244.079     4255.043     2244.174        4.294        0.837      260.979       37.097        0.020      339.527       12.917      865.113
01/29/2014  00:59:00     -226.462      -76.157       -6.505      132.492       96.739       52.663    17554.198     9358.343     2773.358        4.340        1.484      238.924       58.380        0.060      339.721       13.247      865.101
01/29/2014  01:00:00     -199.378      -50.840      -24.091       52.228       69.767       35.443     2727.780     4867.379     1256.237        2.588        0.443      205.758       31.636        0.024      339.678       13.173      865.118
01/29/2014  01:01:00     -133.295      -30.626      -11.067       93.478       50.639       43.514     8738.163     2564.288     1893.468        1.601        0.660      136.768       55.669        0.166      339.647       13.123      865.124
01/29/2014  01:02:00      -93.264      -35.053       12.254       96.525       50.394       37.491     9317.075     2539.548     1405.609        1.167        0.663       99.633       50.813        0.260      339.760       13.314      865.101
01/29/2014  01:03:00     -120.069       28.011      -16.529       40.105       45.388       26.623     1608.437     2060.090      708.783        0.993        0.219      123.293       20.283        0.027      339.691       13.196      865.101
01/29/2014  01:04:00      -45.335       15.217       -7.910       24.639       19.944       18.592      607.082      397.757      345.651        0.185        0.068       47.821       14.524        0.092      339.692       13.200      865.078
01/29/2014  01:05:00      -60.529      -31.923      -12.638       45.190       46.572       26.815     2042.095     2168.921      719.032        0.489        0.247       68.431       17.018        0.062      339.717       13.241      865.044
01/29/2014  01:06:00      -30.879       36.831        6.235       44.950       58.892       29.057     2020.531     3468.314      844.289        0.434        0.317       48.063       24.100        0.251      339.704       13.220      865.002
01/29/2014  01:07:00     -100.657      -40.177        2.026       64.885       66.923       31.701     4210.072     4478.734     1004.968        1.072        0.485      108.379       36.444        0.113      339.697       13.209      864.989
01/29/2014  01:08:00     -257.037        7.504      -23.962      146.056       63.399       50.040    21332.492     4019.452     2504.008        4.727        1.393      257.147       62.144        0.058      339.764       13.318      864.991
01/29/2014  01:09:00     -230.015       19.883      -28.269       97.877       79.247       38.642     9579.970     6280.049     1493.168        3.572        0.868      230.873       33.982        0.022      339.769       13.326      864.983
01/29/2014  01:10:00      -91.505       -9.792      -13.990       91.351       84.245       49.443     8344.937     7097.296     2444.626        1.327        0.894       92.027       44.961        0.239      339.773       13.337      864.955
01/29/2014  01:11:00      -96.076       58.479       -1.344      106.426       89.471       60.117    11326.563     8005.117     3614.042        1.780        1.147      112.474       55.059        0.240      339.805       13.389      864.936
01/29/2014  01:12:00     -167.413       60.288      -35.025       74.300       63.098       51.431     5520.442     3981.340     2645.134        2.252        0.607      177.937       37.495        0.044      339.828       13.426      864.936
01/29/2014  01:13:00     -155.503       32.282      -22.425      147.389      132.822       76.614    21723.487    17641.781     5869.709        3.547        2.262      158.819       93.125        0.344      339.865       13.489      864.897
01/29/2014  01:14:00     -175.867        4.838       -8.879      138.771      108.392       68.202    19257.485    11748.829     4651.463        3.334        1.783      175.934       64.562        0.135      339.850       13.464      864.875
01/29/2014  01:15:00     -224.661      -37.244       -9.980      166.126      120.505       62.513    27597.934    14521.480     3907.898        4.899        2.301      227.727       77.361        0.115      339.845       13.455      864.816
01/29/2014  01:16:00     -216.870       -6.519      -32.523      139.232       98.513       62.237    19385.585     9704.826     3873.485        4.054        1.648      216.968       64.227        0.088      339.886       13.525      864.773
01/29/2014  01:17:00     -168.760       -4.726      -30.582       93.331      101.560       47.575     8710.735    10314.424     2263.365        2.536        1.064      168.826       37.129        0.048      339.846       13.457      864.754
01/29/2014  01:18:00     -137.789       89.048      -15.090       86.951      124.628       50.213     7560.555    15532.196     2521.385        2.637        1.281      164.059       48.229        0.086      339.876       13.508      864.736
01/29/2014  01:19:00     -144.644       78.262       -4.853      111.093      125.845       50.288    12341.591    15837.061     2528.879        2.888        1.535      164.459       35.673        0.047      339.891       13.532      864.716
01/29/2014  01:20:00     -341.310       34.868      -36.126      141.522      110.268       68.716    20028.527    12158.998     4721.880        7.796        1.845      343.087       70.500        0.042      339.930       13.595      864.735
01/29/2014  01:21:00     -164.542      -25.878      -12.184       90.401       88.608       49.256     8172.284     7851.466     2426.155        2.317        0.922      166.564       50.387        0.092      339.867       13.491      864.767
01/29/2014  01:22:00     -345.055      -95.127      -15.620      107.554       95.673       47.264    11567.817     9153.351     2233.897        7.565        1.148      357.928       47.807        0.018      339.821       13.413      864.780
01/29/2014  01:23:00     -348.628     -153.518       -8.528       98.805       93.512       59.754     9762.517     8744.465     3570.564        8.363        1.104      380.932       54.858        0.021      339.824       13.418      864.742
01/29/2014  01:24:00     -288.238        1.226      -22.562      102.415       80.914       45.164    10488.912     6547.096     2039.802        5.133        0.954      288.240       49.666        0.030      339.808       13.391      864.750
01/29/2014  01:25:00     -319.101      -54.954      -22.530       89.165       88.229       49.089     7950.361     7784.358     2409.768        6.175        0.907      323.798       39.477        0.015      339.801       13.380      864.754
01/29/2014  01:26:00     -456.887      -18.265      -40.509      146.314      135.533       63.827    21407.659    18369.224     4073.827       12.728        2.193      457.252       68.105        0.022      339.900       13.547      864.738
01/29/2014  01:27:00     -232.250      -63.320       -3.883      187.394       75.371       61.831    35116.464     5680.769     3823.063        5.128        2.231      240.727       78.230        0.106      339.867       13.493      864.731
01/29/2014  01:28:00     -228.560     -106.258      -26.090       58.932       56.834       40.731     3472.975     3230.107     1659.029        3.629        0.418      252.053       21.504        0.007      339.829       13.425      864.772
01/29/2014  01:29:00     -156.877      -47.702       -8.966       90.928       49.034       36.976     8267.988     2404.355     1367.257        1.950        0.602      163.969       44.312        0.073      339.798       13.377      864.799
01/29/2014  01:30:00     -109.545      -23.376        3.277      113.749       47.998       39.950    12938.765     2303.782     1595.986        1.470        0.842      112.011       55.906        0.249      339.808       13.395      864.813
01/29/2014  01:31:00     -116.436      -41.551        1.347       65.552       75.751       33.549     4297.097     5738.162     1125.516        1.322        0.558      123.628       22.193        0.032      339.796       13.373      864.800
01/29/2014  01:32:00      -76.775      -32.294       -1.838       73.140       38.177       33.046     5349.484     1457.502     1092.069        0.742        0.395       83.291       41.207        0.245      339.780       13.350      864.785
01/29/2014  01:33:00      -82.434      -62.524        2.302       85.813       62.147       36.919     7363.934     3862.302     1363.007        1.165        0.629      103.463       38.875        0.141      339.773       13.336      864.779
01/29/2014  01:34:00      -15.575      -53.402       -3.330       30.934       31.870       16.303      956.908     1015.666      265.796        0.267        0.112       55.627       15.992        0.083      339.793       13.371      864.778
01/29/2014  01:35:00       -6.509      -63.855       -7.905       21.268       31.870       15.581      452.348     1015.718      242.753        0.295        0.086       64.186        5.505        0.007      339.750       13.297      864.746
01/29/2014  01:36:00      -74.429      -78.933       -1.928       62.401       39.045       26.309     3893.894     1524.539      692.153        0.894        0.306      108.490       33.235        0.094      339.659       13.145      864.739
01/29/2014  01:37:00     -124.891      -88.466      -14.557       34.295       28.304       19.318     1176.125      801.096      373.174        1.299        0.118      153.049       14.434        0.009      339.574       13.002      864.746
01/29/2014  01:38:00     -126.037      -72.323       -2.590       37.324       26.908       18.780     1393.051      724.062      352.698        1.180        0.123      145.313       12.491        0.007      339.566       12.985      864.746
01/29/2014  01:39:00     -168.071      -76.705      -14.405       48.455       42.314       22.567     2347.911     1790.437      509.250        1.949        0.232      184.747       22.148        0.014      339.560       12.975      864.775
01/29/2014  01:40:00     -114.304      -19.146        9.909       69.765       47.876       29.192     4867.125     2292.132      852.148        1.077        0.401      115.897       36.887        0.101      339.483       12.846      864.774
01/29/2014  01:41:00     -118.334      -51.880       -6.528       75.170       85.727       33.369     5650.501     7349.186     1113.496        1.542        0.706      129.208       37.189        0.083      339.855       13.473      864.722
01/29/2014  01:42:00      -55.295      -19.848       11.092       51.920       37.998       26.213     2695.659     1443.866      687.143        0.420        0.241       58.749       25.575        0.190      339.800       13.384      864.682
01/29/2014  01:43:00       -2.399       -7.678       32.502       50.773       64.051       47.305     2577.881     4102.530     2237.722        0.502        0.446        8.044       30.335       14.222      339.857       13.478      864.636
01/29/2014  01:44:00     -111.976      -56.238       -4.834       91.474       52.254       29.198     8367.553     2730.496      852.516        1.384        0.598      125.305       16.881        0.018      339.919       13.582      864.626
01/29/2014  01:45:00      -74.194      -57.220       13.611       71.405       52.642       41.475     5098.638     2771.163     1720.183        0.928        0.479       93.695       31.849        0.116      339.861       13.484      864.613
01/29/2014  01:46:00     -235.003      -28.869      -23.001       48.417       53.240       26.401     2344.245     2834.528      697.036        3.123        0.294      236.770       13.020        0.003      339.825       13.418      864.593
01/29/2014  01:47:00     -166.339       41.422      -11.430       50.050       34.107       22.068     2505.037     1163.279      486.979        1.683        0.208      171.419       20.559        0.014      339.806       13.391      864.559
01/29/2014  01:48:00     -172.303       34.228      -12.457       35.712       33.954       19.126     1275.342     1152.901      365.807        1.690        0.140      175.669        8.068        0.002      339.789       13.362      864.534
01/29/2014  01:49:00      -90.628       -6.241        2.016       30.373       56.132       19.486      922.533     3150.803      379.716        0.635        0.223       90.843       17.674        0.038      339.753       13.302      864.500
01/29/2014  01:50:00      -55.628      -46.249       -7.543       60.815       25.375       22.416     3698.490      643.876      502.468        0.507        0.242       72.343       15.049        0.043      339.687       13.192      864.463
01/29/2014  01:51:00      -66.867      -27.507       -0.766       33.237       37.567       17.611     1104.697     1411.248      310.149        0.403        0.141       72.304       14.349        0.039      339.632       13.099      864.452
01/29/2014  01:52:00      -29.394      -85.455       -4.865       38.630       53.287       25.569     1492.270     2839.488      653.772        0.659        0.249       90.369       21.849        0.058      339.586       13.021      864.434
01/29/2014  01:53:00     -176.859     -170.910       -4.097      112.120       64.255       56.230    12570.870     4128.706     3161.865        4.018        0.993      245.945       35.649        0.021      339.408       12.716      864.418
01/29/2014  01:54:00      -61.284     -109.506       -0.232      106.029       67.297       40.135    11242.102     4528.880     1610.813        1.656        0.869      125.488       20.832        0.028      338.991       12.019      864.393
01/29/2014  01:55:00      -13.260      -64.248        0.743       34.774       46.059       37.322     1209.233     2121.439     1392.911        0.451        0.236       65.602       27.260        0.173      338.964       11.976      864.380
01/29/2014  01:56:00      -67.396     -109.583        0.930       45.193       43.975       25.263     2042.390     1933.810      638.201        1.058        0.231      128.649       15.343        0.014      338.891       11.851      864.356
01/29/2014  01:57:00      -63.375     -140.698      -11.943       27.040       37.281       22.852      731.158     1389.881      522.207        1.330        0.132      154.313       16.076        0.011      338.868       11.812      864.348
01/29/2014  01:58:00       -1.793     -109.417        5.759       81.994       54.576       45.197     6722.962     2978.533     2042.758        1.187        0.587      109.432       43.672        0.159      338.808       11.711      864.330
01/29/2014  01:59:00      -24.040      -46.187        0.408       46.327       46.270       29.602     2146.156     2140.869      876.290        0.394        0.258       52.069       18.195        0.122      338.769       11.646      864.351
01/29/2014  02:00:00      -13.949      -19.849        9.861       45.637       35.006       22.966     2082.745     1225.433      527.437        0.226        0.192       24.260       18.095        0.556      338.739       11.596      864.408
01/29/2014  02:01:00      -23.985        2.135        8.892       27.466       32.826       23.859      754.367     1077.547      569.265        0.153        0.120       24.080       21.427        0.792      338.567       11.306      864.431
01/29/2014  02:02:00      -15.327       -6.423        5.056       24.051       18.278       16.808      578.452      334.071      282.520        0.075        0.060       16.618       11.142        0.450      338.613       11.383      864.394
01/29/2014  02:03:00        3.316       14.622       14.150       14.941       19.851       10.243      223.236      394.080      104.909        0.057        0.036       14.993        5.777        0.148      338.628       11.408      864.335
01/29/2014  02:04:00       -2.561       18.066       23.149       18.185       21.109       21.388      330.691      445.606      457.450        0.105        0.062       18.247       20.038        1.206      338.607       11.374      864.317
01/29/2014  02:05:00       -3.798       13.292       50.814       20.763       20.985       16.283      431.087      440.390      265.138        0.195        0.057       13.824       14.023        1.029      338.641       11.430      864.308
01/29/2014  02:06:00       -2.501       -5.281       45.854       18.714       31.836       18.481      350.231     1013.538      341.544        0.192        0.085        5.843        8.107        1.925      338.604       11.369      864.264
01/29/2014  02:07:00      -20.895       78.840      111.761       14.917       44.636       36.168      222.517     1992.347     1308.131        1.133        0.176       81.562       34.776        0.182      338.501       11.196      864.200
01/29/2014  02:08:00       11.909       -9.127       49.881       37.332       56.057       36.909     1393.672     3142.429     1362.259        0.430        0.295       15.004       33.185        4.892      338.525       11.235      864.170
01/29/2014  02:09:00       19.874       27.744       82.491       40.917       90.731       45.742     1674.188     8232.060     2092.286        0.998        0.600       34.128       59.547        3.044      338.473       11.149      864.154
01/29/2014  02:10:00       32.907      -42.157       20.557       43.031       59.278       38.945     1851.665     3513.924     1516.705        0.508        0.344       53.479       35.926        0.451      338.538       11.256      864.179
01/29/2014  02:11:00       20.733      -77.348       -7.795       60.654       38.184       27.997     3678.957     1458.048      783.852        0.620        0.296       80.079       24.248        0.092      338.528       11.242      864.238
01/29/2014  02:12:00      -45.529      -44.757       -0.504       40.584       24.354       18.247     1647.057      593.130      332.960        0.332        0.129       63.844       13.149        0.042      338.551       11.280      864.280
01/29/2014  02:13:00      -74.597      -53.660       -3.476       42.706       26.242       18.071     1823.773      688.640      326.562        0.565        0.142       91.891       17.591        0.037      338.506       11.204      864.274
01/29/2014  02:14:00       -4.909      -61.825       -3.547       33.561       31.797       24.475     1126.338     1011.079      599.009        0.330        0.137       62.020       12.556        0.041      338.506       11.202      864.217
01/29/2014  02:15:00      -29.140      -20.331       -5.482       18.091       21.504        9.897      327.274      462.425       97.954        0.109        0.044       35.531       12.049        0.115      338.375       10.982      864.118
01/29/2014  02:16:00       -9.991      -73.873      -13.321       64.691       56.602       35.569     4184.891     3203.814     1265.149        0.719        0.433       74.545       36.621        0.241      338.462       11.129      864.085
01/29/2014  02:17:00      -55.293      -48.843        9.437       66.927       33.360       27.576     4479.226     1112.881      760.417        0.594        0.318       73.777       27.597        0.140      338.454       11.117      864.086
01/29/2014  02:18:00      -43.708      -40.072       13.717       51.733       35.345       26.675     2676.296     1249.255      711.559        0.417        0.232       59.297       19.888        0.112      338.411       11.044      864.057
01/29/2014  02:19:00      -85.774     -100.221       -0.765       55.820       48.879       30.396     3115.844     2389.119      923.910        1.191        0.321      131.915       30.544        0.054      338.312       10.877      864.000
01/29/2014  02:20:00      -92.463      -89.058       -3.025       52.027       34.530       23.018     2706.831     1192.307      529.850        1.046        0.221      128.377       28.084        0.048      338.263       10.795      863.955
01/29/2014  02:21:00      -54.851      -90.176       -0.115       30.709       47.119       19.302      943.015     2220.234      372.573        0.734        0.177      105.548       21.027        0.040      338.276       10.818      863.926
01/29/2014  02:22:00      -12.498      -71.723       -8.909       64.452       52.299       33.600     4154.073     2735.219     1128.928        0.670        0.401       72.803       30.272        0.173      338.373       10.980      863.876
01/29/2014  02:23:00      -17.903       -7.866        4.603       18.701       22.558       14.298      349.745      508.885      204.443        0.073        0.053       19.555       10.422        0.284      338.356       10.951      863.856
01/29/2014  02:24:00       -5.515      -52.226       -0.043       24.017       51.941       27.121      576.837     2697.832      735.545        0.338        0.201       52.517       25.004        0.227      338.370       10.974      863.832
01/29/2014  02:25:00       -2.006       -2.845       13.640       19.658       27.432       27.163      386.447      752.531      737.848        0.104        0.094        3.481       17.875       26.375      338.370       10.975      863.814
01/29/2014  02:26:00      -14.658      -31.534       11.882       34.833       42.564       28.784     1213.304     1811.721      828.493        0.260        0.193       34.775       27.534        0.627      338.382       10.996      863.817
01/29/2014  02:27:00      -11.486      -15.468        7.859       24.714       22.129       20.321      610.794      489.706      412.940        0.097        0.076       19.266       17.190        0.796      338.429       11.074      863.836
01/29/2014  02:28:00     -108.514      -24.195       -0.079       51.871       42.211       20.900     2690.652     1781.743      436.802        0.863        0.245      111.179       17.820        0.026      338.259       10.788      863.841
01/29/2014  02:29:00     -112.465      -36.781       -0.023       52.268       42.617       23.764     2731.935     1816.222      564.711        0.956        0.256      118.327       22.812        0.037      338.226       10.732      863.836
01/29/2014  02:30:00      -96.498      -30.781        6.559       38.505       37.586       21.671     1482.673     1412.693      469.620        0.683        0.168      101.288       17.093        0.028      338.245       10.764      863.818
01/29/2014  02:31:00      -53.433      -40.420       -5.012       41.287       26.948       12.874     1704.656      726.218      165.738        0.355        0.130       66.999       16.036        0.057      338.235       10.749      863.805
01/29/2014  02:32:00      -33.126        6.967        5.521       16.906       17.703        8.508      285.804      313.391       72.388        0.092        0.034       33.851        9.029        0.071      338.174       10.647      863.765
01/29/2014  02:33:00      -60.173       12.741       -4.064       26.804       20.573       12.779      718.471      423.234      163.315        0.255        0.065       61.507       11.478        0.035      338.152       10.609      863.771
01/29/2014  02:34:00     -119.347      -43.253       -0.424       34.893       33.242       20.242     1217.552     1105.031      409.724        0.942        0.137      126.943       21.459        0.029      338.094       10.513      863.793
01/29/2014  02:35:00      -84.273      -23.871        3.069       37.305       25.371       15.968     1391.655      643.673      254.977        0.499        0.115       87.588       13.559        0.024      338.122       10.560      863.795
01/29/2014  02:36:00      -56.601        7.182        2.080       20.948       19.667       12.472      438.829      386.789      155.544        0.212        0.049       57.054       14.457        0.064      338.227       10.735      863.802
01/29/2014  02:37:00       11.032       16.284       21.105       15.014        9.541       11.521      225.435       91.033      132.736        0.064        0.022       19.669        3.595        0.033      338.195       10.680      863.814
01/29/2014  02:38:00       -6.684        2.259       -5.052       11.340       13.254        7.398      128.596      175.676       54.727        0.022        0.018        7.055        5.239        0.551      338.257       10.787      863.834
01/29/2014  02:39:00       -7.205       -3.224        7.564        5.338        6.918        7.114       28.495       47.860       50.612        0.012        0.006        7.893        4.101        0.270      338.300       10.857      863.840
01/29/2014  02:40:00       -4.495       24.976       -1.124       10.291       19.579       10.662      105.905      383.356      113.679        0.062        0.030       25.377        6.390        0.063      338.139       10.587      863.830
01/29/2014  02:41:00       33.533       63.502       11.687       21.560       21.248       18.187      464.849      451.463      330.782        0.327        0.062       71.812       15.168        0.045      338.151       10.608      863.815
01/29/2014  02:42:00       32.784       30.734       -2.407       27.049       24.492       15.244      731.635      599.866      232.374        0.179        0.078       44.937       13.108        0.085      338.080       10.489      863.833
01/29/2014  02:43:00       15.177        5.837       10.287       11.129        8.006       10.247      123.848       64.098      104.999        0.033        0.015       16.261        7.478        0.211      338.105       10.529      863.865
01/29/2014  02:44:00       57.091       30.252        7.458       12.991       13.729       13.448      168.759      188.489      180.841        0.238        0.027       64.611        7.739        0.014      338.073       10.478      863.869
01/29/2014  02:45:00       24.822        2.020        9.991       26.936        9.368       12.020      725.571       87.768      144.483        0.084        0.048       24.904       11.285        0.205      338.160       10.622      863.879
01/29/2014  02:46:00        9.464       24.159       15.957       10.954        9.583        9.963      119.997       91.835       99.269        0.062        0.016       25.947        6.652        0.066      338.097       10.521      863.896
01/29/2014  02:47:00       -1.960       97.069       -9.931       14.873       48.771       15.998      221.213     2378.574      255.931        0.619        0.143       97.089       23.470        0.058      338.057       10.450      863.892
01/29/2014  02:48:00      -31.733      123.088      -14.520       19.936       31.635       15.245      397.426     1000.748      232.409        0.900        0.082      127.112        8.299        0.004      338.271       10.809      863.895
01/29/2014  02:49:00      -16.108      162.166      -22.132       15.611       26.801       10.704      243.707      718.296      114.570        1.406        0.054      162.965        9.482        0.003      338.136       10.582      863.891
01/29/2014  02:50:00        6.303      167.198      -23.535       13.440       18.405        8.470      180.633      338.756       71.735        1.457        0.030      167.316        6.223        0.001      338.116       10.549      863.870
01/29/2014  02:51:00       10.420      137.364      -19.696       21.205       25.558       14.647      449.658      653.217      214.528        1.034        0.066      137.759       11.461        0.007      338.100       10.522      863.883
01/29/2014  02:52:00      -49.831      101.568      -20.981       24.989       37.119       14.197      624.450     1377.805      201.546        0.772        0.110      113.134       14.459        0.016      338.234       10.746      863.935
01/29/2014  02:53:00     -138.027       60.908      -14.906       63.660       36.330       27.243     4052.633     1319.886      742.207        1.455        0.306      150.868       22.127        0.022      338.050       10.437      863.992
01/29/2014  02:54:00     -108.898       78.652      -14.913       34.235       52.853       28.651     1172.018     2793.458      820.890        1.153        0.239      134.331       18.620        0.019      338.029       10.404      864.028
01/29/2014  02:55:00      -42.106       82.469      -10.974       32.839       39.746       29.182     1078.371     1579.755      851.608        0.610        0.175       92.596       26.682        0.083      338.153       10.611      864.020
01/29/2014  02:56:00       75.477      113.728       -1.925       62.195       53.348       43.234     3868.173     2845.991     1869.161        1.361        0.429      136.495       38.595        0.080      338.293       10.845      864.018
01/29/2014  02:57:00      201.320      121.723       40.640       60.585       41.280       52.306     3670.515     1704.004     2735.893        3.255        0.406      235.258       29.802        0.016      338.331       10.906      863.949
01/29/2014  02:58:00       77.422      122.420       83.239       77.873       48.038       54.553     6064.257     2307.690     2976.057        1.963        0.567      144.847       55.292        0.146      338.297       10.852      863.907
01/29/2014  02:59:00      111.963       66.511       61.107       70.336       57.464       39.576     4947.109     3302.116     1566.274        1.525        0.491      130.228       31.673        0.059      338.426       11.068      863.924
01/29/2014  03:00:00       29.266       98.887      123.224       62.903       55.997       39.762     3956.742     3135.670     1581.056        1.724        0.434      103.127       36.033        0.122      338.584       11.335      863.878
01/29/2014  03:01:00      -24.871       41.941       63.851       77.501       46.706       59.291     6006.425     2181.429     3515.417        0.908        0.585       48.760       52.365        1.153      338.495       11.185      863.925
01/29/2014  03:02:00     -162.942       79.370      -20.652       62.549       59.121       34.611     3912.369     3495.266     1197.922        2.094        0.430      181.245       20.280        0.013      338.312       10.876      863.980
01/29/2014  03:03:00      -53.737      183.527      -19.139       67.804       74.816       31.939     4597.442     5597.498     1020.130        2.407        0.561      191.233       36.169        0.036      338.486       11.168      863.956
01/29/2014  03:04:00       18.570      146.356      -22.449       37.006       44.957       20.492     1369.421     2021.114      419.925        1.304        0.191      147.530       21.962        0.022      338.504       11.199      863.913
01/29/2014  03:05:00      -19.180       34.256       -9.369       41.470       44.063       11.598     1719.720     1941.554      134.523        0.271        0.190       39.260        5.505        0.020      338.509       11.210      863.927
01/29/2014  03:06:00      -39.210       17.289      -12.048       20.575       18.784       13.729      423.348      352.856      188.483        0.147        0.048       42.853        7.667        0.032      338.348       10.939      863.914
01/29/2014  03:07:00       -5.842       -5.109        2.550       33.240       19.114       15.515     1104.878      365.351      240.730        0.089        0.086        7.761       15.476        3.977      338.425       11.069      863.876
01/29/2014  03:08:00      -53.631       94.919      -17.609       41.540       59.730       21.986     1725.546     3567.731      483.394        0.899        0.289      109.023       23.093        0.045      338.593       11.350      863.885
01/29/2014  03:09:00      -54.666      104.041      -13.931       25.828       77.753       16.328      667.093     6045.557      266.596        1.049        0.349      117.529       18.931        0.026      338.721       11.565      863.899
01/29/2014  03:10:00      -90.488       35.086      -20.513       28.640       24.607       18.973      820.263      605.507      359.990        0.581        0.089       97.053       10.521        0.012      338.404       11.032      863.919
01/29/2014  03:11:00      -38.135       -5.916        2.366       24.846       23.901       16.632      617.336      571.278      276.612        0.148        0.073       38.591       12.928        0.112      338.401       11.026      863.921
01/29/2014  03:12:00       10.262      -11.197        2.494       33.116       18.295       11.380     1096.641      334.703      129.504        0.090        0.078       15.188       11.547        0.578      338.391       11.012      863.912
01/29/2014  03:13:00       40.223       -7.652       20.956       31.235       25.566       21.632      975.606      653.629      467.960        0.211        0.105       40.944       15.261        0.139      338.496       11.186      863.890
01/29/2014  03:14:00       -1.306      -48.991        2.627       39.509       45.419       31.986     1560.930     2062.866     1023.128        0.353        0.232       49.009       23.088        0.222      338.532       11.248      863.885
01/29/2014  03:15:00     -120.436     -106.170       -7.427       65.744       62.022       42.851     4322.265     3846.787     1836.186        1.792        0.500      160.552       35.229        0.048      338.442       11.095      863.905
01/29/2014  03:16:00     -139.378      -96.576       -6.269       55.933       39.722       28.666     3128.507     1577.876      821.765        1.716        0.276      169.567       16.086        0.009      338.588       11.339      863.922
01/29/2014  03:17:00     -138.670        9.926      -10.859       41.928       44.812       22.569     1757.992     2008.129      509.363        1.186        0.214      139.025       23.183        0.028      338.335       10.915      863.934
01/29/2014  03:18:00     -176.499       23.068      -22.916       60.480       46.359       32.244     3657.782     2149.143     1039.695        1.953        0.342      178.000       28.023        0.025      338.344       10.930      863.952
01/29/2014  03:19:00     -135.844       12.006      -16.284       49.370       35.680       28.188     2437.376     1273.060      794.537        1.168        0.225      136.373       22.854        0.028      338.645       11.438      863.956
01/29/2014  03:20:00      -52.382       30.527      -19.496       50.339       22.430       14.580     2533.969      503.109      212.590        0.365        0.162       60.628        9.825        0.026      339.910       13.566      863.922
01/29/2014  03:21:00       40.839       17.931        6.639       22.125       19.014       16.287      489.516      361.519      265.264        0.157        0.056       44.602       11.961        0.072      340.078       13.851      863.896
01/29/2014  03:22:00       -3.986        5.365        3.347       33.070       11.664        9.443     1093.656      136.040       89.165        0.069        0.066        6.684       11.178        2.797      339.892       13.537      863.904
01/29/2014  03:23:00      -71.870       31.316       -4.004       27.657       19.125       20.154      764.913      365.747      406.179        0.385        0.077       78.396       16.760        0.046      338.965       11.974      863.946
01/29/2014  03:24:00      -74.471       -4.881       -8.000       35.151       32.742       15.489     1235.591     1072.066      239.918        0.409        0.127       74.631       13.722        0.034      338.494       11.184      863.970
01/29/2014  03:25:00      -20.295       28.867       -7.922       23.231       24.703       16.242      539.684      610.238      263.798        0.136        0.071       35.287       14.618        0.172      338.823       11.736      863.968
01/29/2014  03:26:00       45.995       80.904        6.920       30.650       35.524       28.589      939.452     1261.947      817.307        0.586        0.151       93.064       13.467        0.021      339.266       12.482      863.957
01/29/2014  03:27:00      -82.992      -35.948        1.273       98.172       38.673       30.119     9637.721     1495.590      907.128        1.011        0.602       90.443       43.422        0.230      338.885       11.839      863.985
01/29/2014  03:28:00     -165.287     -108.309        2.366       75.068       59.660       37.855     5635.217     3559.304     1433.032        2.484        0.531      197.613       37.731        0.036      338.463       11.127      864.035
01/29/2014  03:29:00     -140.693      -98.937        1.084       78.973       47.749       35.756     6236.810     2280.005     1278.463        1.969        0.490      171.997       34.000        0.039      338.657       11.457      864.023
01/29/2014  03:30:00      -40.683      -13.090        7.566       57.855       38.443       17.159     3347.144     1477.877      294.440        0.350        0.256       42.737       20.027        0.220      338.798       11.693      863.970
01/29/2014  03:31:00        6.290       16.193       19.049       34.536       21.917       15.867     1192.739      480.363      251.764        0.129        0.096       17.372       14.367        0.684      338.667       11.475      863.936
01/29/2014  03:32:00      -87.553      -49.109       -8.411       55.008       35.185       24.844     3025.834     1237.980      617.248        0.751        0.244      100.385       13.323        0.018      338.863       11.804      863.993
01/29/2014  03:33:00      -81.077     -168.726        9.044       69.917       91.750       39.783     4888.395     8418.107     1582.710        2.500        0.744      187.195       44.663        0.057      339.187       12.346      864.056
01/29/2014  03:34:00      -37.333     -145.001        3.145       22.433       54.696       20.000      503.255     2991.648      400.019        1.316        0.195      149.730       20.260        0.018      339.814       13.405      864.020
01/29/2014  03:35:00     -113.050     -189.088       -1.316       68.020       89.516       39.696     4626.760     8013.035     1575.760        3.137        0.711      220.305       35.931        0.027      339.918       13.577      863.994
01/29/2014  03:36:00     -117.743        3.338       -6.641       48.671       49.683       23.779     2368.848     2468.377      565.464        0.966        0.270      117.790       25.670        0.047      339.890       13.532      863.974
01/29/2014  03:37:00      -57.727      -28.770       -3.456       45.975       55.190       21.394     2113.737     3045.944      457.689        0.489        0.281       64.499       25.057        0.151      339.913       13.571      863.953
01/29/2014  03:38:00     -181.759       15.523       -6.356      101.260       77.669       35.046    10253.637     6032.537     1228.213        2.541        0.876      182.420       38.545        0.045      339.171       12.321      863.963
01/29/2014  03:39:00     -134.160       48.625      -15.785       62.059       51.036       30.295     3851.374     2604.668      917.796        1.399        0.369      142.700       21.208        0.022      338.797       11.692      863.942
01/29/2014  03:40:00       17.396       26.705       -3.098       71.741       47.650       23.062     5146.730     2270.488      531.858        0.449        0.397       31.872       18.768        0.347      339.328       12.587      863.851
01/29/2014  03:41:00       34.179      -60.422      -12.026       65.583      108.739       42.257     4301.075    11824.239     1785.620        1.143        0.896       69.419       39.097        0.317      340.068       13.832      863.761
01/29/2014  03:42:00      -60.505      -21.413        9.237       70.346       57.010       26.733     4948.513     3250.094      714.662        0.656        0.446       64.182       17.719        0.076      339.697       13.208      863.727
01/29/2014  03:43:00      -38.883       -3.874        3.784       27.658       24.627       22.665      764.946      606.484      513.684        0.171        0.094       39.075       20.006        0.262      339.032       12.087      863.741
01/29/2014  03:44:00      -26.166       -7.297        2.503       29.584       15.976        9.154      875.226      255.243       83.796        0.098        0.061       27.164       10.136        0.139      338.901       11.867      863.771
01/29/2014  03:45:00       24.767       27.575       31.879       25.332       32.983       26.029      641.702     1087.902      677.503        0.240        0.120       37.064       12.630        0.116      339.293       12.526      863.787
01/29/2014  03:46:00      -20.399      -14.598        4.943       26.440       15.813       21.333      699.063      250.043      455.108        0.103        0.070       25.084       20.538        0.670      339.259       12.470      863.829
01/29/2014  03:47:00      -32.794       12.967       12.039       29.211       12.645       13.658      853.254      159.885      186.539        0.129        0.060       35.264       16.707        0.224      339.153       12.291      863.842
01/29/2014  03:48:00       14.992       10.837       14.115       11.664       17.121        7.413      136.037      293.141       54.947        0.051        0.024       18.499        3.066        0.027      339.261       12.473      863.821
01/29/2014  03:49:00       25.301       -1.601       10.818       23.577       18.245       12.926      555.893      332.871      167.071        0.091        0.053       25.351       12.054        0.226      339.208       12.385      863.769
01/29/2014  03:50:00       26.921       36.472       28.789       14.661       24.786       21.571      214.947      614.359      465.304        0.209        0.065       45.332       18.433        0.165      339.175       12.328      863.688
01/29/2014  03:51:00       41.702       24.135       15.539       24.856       13.628       11.555      617.829      185.709      133.521        0.175        0.047       48.183        8.280        0.030      339.136       12.262      863.627
01/29/2014  03:52:00       65.991       59.720        9.096       18.359       23.516       16.623      337.043      552.987      276.334        0.458        0.058       89.001       16.751        0.035      339.051       12.119      863.572
01/29/2014  03:53:00       43.788       42.024        3.357       22.421       22.934       22.999      502.723      525.946      528.967        0.263        0.078       60.691       19.305        0.101      338.991       12.020      863.536
01/29/2014  03:54:00       92.192       57.891        2.936       27.341       17.369       19.988      747.529      301.667      399.513        0.665        0.072      108.861       14.303        0.017      339.049       12.117      863.519
01/29/2014  03:55:00      142.157       55.704       17.819       32.466       27.252       28.773     1054.038      742.683      827.911        1.313        0.131      152.682       23.638        0.024      339.142       12.272      863.491
01/29/2014  03:56:00       69.405       37.298       26.199       49.758       28.868       30.728     2475.818      833.386      944.197        0.557        0.213       78.792       22.649        0.083      339.260       12.471      863.487
01/29/2014  03:57:00       60.619       41.503       17.603       21.539       17.269       22.268      463.917      298.213      495.846        0.348        0.063       73.465       14.409        0.038      339.178       12.335      863.502
01/29/2014  03:58:00       46.213       72.252       -2.759       39.693       35.889       24.677     1575.521     1287.997      608.958        0.542        0.174       85.767       20.930        0.060      339.249       12.454      863.477
01/29/2014  03:59:00       85.859       58.942        6.267       34.811       35.068       30.105     1211.812     1229.752      906.327        0.712        0.167      104.144       22.869        0.048      339.107       12.213      863.421
01/29/2014  04:00:00       67.217       22.428        7.772       36.159       32.118       23.948     1307.504     1031.595      573.502        0.400        0.146       70.860       21.884        0.095      339.098       12.199      863.419
01/29/2014  04:01:00       51.353       20.682       14.733       29.468       27.075       17.015      868.383      733.082      289.500        0.259        0.095       55.362       12.740        0.053      339.040       12.102      863.416
01/29/2014  04:02:00       62.575       44.753       40.031       31.393       23.502       22.207      985.501      552.339      493.159        0.478        0.102       76.932       16.278        0.045      339.333       12.594      863.398
01/29/2014  04:03:00        8.119       54.092       66.378       26.114       30.660       15.054      681.966      940.016      226.617        0.462        0.092       54.698       11.536        0.044      339.053       12.122      863.348
01/29/2014  04:04:00       12.252       49.898       59.831       17.141       24.492       12.820      293.823      599.838      164.363        0.364        0.053       51.380       15.437        0.090      338.936       11.926      863.325
01/29/2014  04:05:00       -4.039        6.028       14.896       16.654       17.791       18.018      277.349      316.509      324.643        0.060        0.046        7.256       16.596        5.231      339.020       12.066      863.326
01/29/2014  04:06:00      -46.979       19.110       -1.538       43.935       16.419       16.277     1930.257      269.587      264.951        0.252        0.123       50.717       19.898        0.154      338.999       12.032      863.340
01/29/2014  04:07:00      -49.207       21.927       -7.630       16.809       11.816        6.923      282.538      139.628       47.924        0.172        0.024       53.872        5.950        0.012      338.957       11.962      863.349
01/29/2014  04:08:00       10.599       25.152        4.402       17.963       17.702        8.022      322.681      313.348       64.357        0.073        0.035       27.294        6.386        0.055      339.134       12.258      863.354
01/29/2014  04:09:00      -18.588      -11.913       -4.923       28.261       24.016       10.187      798.675      576.755      103.776        0.100        0.074       22.078       14.169        0.412      339.132       12.255      863.385
01/29/2014  04:10:00      -43.582      -25.543       -5.380       16.103        9.480        6.427      259.320       89.862       41.300        0.149        0.020       50.515        6.140        0.015      338.988       12.014      863.394
01/29/2014  04:11:00       22.464        6.307        8.202       17.728        9.124        8.136      314.277       83.248       66.195        0.054        0.023       23.332        9.561        0.168      339.038       12.098      863.363
01/29/2014  04:12:00       46.899       16.474        5.323       19.009       16.105       11.936      361.325      259.386      142.459        0.163        0.038       49.708        7.561        0.023      339.045       12.110      863.353
01/29/2014  04:13:00        7.803       10.935       -6.048       11.707        6.647        4.555      137.057       44.180       20.744        0.021        0.010       13.433        5.653        0.177      339.133       12.256      863.395
01/29/2014  04:14:00       -3.603       18.256        1.678        7.479        9.714        5.986       55.942       94.365       35.838        0.027        0.009       18.609        6.979        0.141      339.222       12.408      863.426
01/29/2014  04:15:00       -5.704       19.453        7.115       13.640        9.668        6.321      186.040       93.472       39.960        0.039        0.016       20.272        4.233        0.044      339.140       12.269      863.426
01/29/2014  04:16:00       28.840        9.173        0.892       12.766        8.555        7.431      162.983       73.188       55.213        0.060        0.015       30.264        2.960        0.010      339.176       12.328      863.430
01/29/2014  04:17:00       22.902       54.415       65.212       26.618       39.038       33.180      708.531     1523.935     1100.922        0.554        0.167       59.038       30.325        0.264      338.803       11.703      863.424
01/29/2014  04:18:00       48.382       95.369      107.424       55.699       60.201       29.564     3102.413     3624.159      874.029        1.529        0.380      106.940       33.129        0.096      338.698       11.524      863.374
01/29/2014  04:19:00       31.914      -23.654       41.321       34.036       73.913       42.649     1158.460     5463.109     1818.935        0.586        0.422       39.725       46.378        1.363      338.635       11.420      863.364
01/29/2014  04:20:00       -7.752       39.302       44.333       17.139       26.494       23.726      293.731      701.948      562.902        0.256        0.078       40.059       17.762        0.197      338.595       11.351      863.392
01/29/2014  04:21:00        1.744       71.617      -11.377       14.488       28.096        9.205      209.895      789.387       84.739        0.317        0.054       71.639       11.082        0.024      338.516       11.222      863.392
01/29/2014  04:22:00      -21.153        8.230       -8.037       13.243       22.181        6.547      175.379      491.976       42.863        0.064        0.036       22.698        6.132        0.073      338.638       11.426      863.383
01/29/2014  04:23:00      -27.900      -32.814        1.431       20.187       16.944       12.681      407.505      287.100      160.809        0.136        0.043       43.071       11.681        0.074      338.780       11.664      863.391
01/29/2014  04:24:00       -8.027      -42.768       -2.333       19.958       17.834       14.168      398.312      318.044      200.730        0.141        0.046       43.514       12.268        0.079      338.694       11.520      863.399
01/29/2014  04:25:00       22.398       31.933       41.971       31.671       45.839       35.773     1003.050     2101.257     1279.706        0.383        0.219       39.005       34.118        0.765      338.708       11.544      863.342
01/29/2014  04:26:00       46.900      -85.806       -4.891       33.799       52.198       33.487     1142.345     2724.667     1121.391        0.729        0.249       97.787       33.765        0.119      338.790       11.682      863.321
01/29/2014  04:27:00       40.672     -122.233      -17.497       43.182       50.229       39.055     1864.691     2522.971     1525.289        1.141        0.296      128.822       33.696        0.068      338.893       11.854      863.293
01/29/2014  04:28:00       -8.696      -17.978      -15.535       61.832       89.586       29.304     3823.166     8025.714      858.706        0.667        0.635       19.971       35.936        3.238      338.710       11.546      863.298
01/29/2014  04:29:00      -11.135      -15.802       26.653       29.708       47.030       37.955      882.578     2211.833     1440.545        0.281        0.227       19.331       32.143        2.765      338.639       11.427      863.272
01/29/2014  04:30:00      -61.168       40.719       -0.061       36.845       48.191       22.047     1357.582     2322.377      486.090        0.478        0.208       73.482       19.353        0.069      338.605       11.371      863.276
01/29/2014  04:31:00      -14.067       93.344       -1.652       26.356       30.930       26.093      694.663      956.695      680.828        0.562        0.117       94.398       20.974        0.049      338.680       11.496      863.239
01/29/2014  04:32:00       55.879      124.073      -17.277       23.669       20.322       18.530      560.211      412.998      343.372        1.007        0.066      136.075       11.840        0.008      338.809       11.713      863.191
01/29/2014  04:33:00       13.861       75.446      -16.254       51.281       30.851       20.329     2629.770      951.779      413.275        0.507        0.200       76.709       16.839        0.048      339.462       12.813      863.169
01/29/2014  04:34:00      -44.584      -12.287       -5.417       23.028       30.133       15.487      530.301      907.995      239.835        0.192        0.084       46.246       10.361        0.050      339.035       12.093      863.161
01/29/2014  04:35:00     -119.391      -46.552       -6.802       54.620       18.282       15.956     2983.315      334.215      254.608        1.002        0.179      128.146        7.111        0.003      338.561       11.297      863.170
01/29/2014  04:36:00     -117.738        0.291       -7.554       46.733       29.108       20.168     2183.972      847.300      406.737        0.868        0.172      117.739       18.878        0.026      338.511       11.213      863.172
01/29/2014  04:37:00      -27.820       25.330        3.835       38.649       34.686       17.121     1493.753     1203.138      293.141        0.221        0.150       37.624       15.402        0.168      338.679       11.494      863.130
01/29/2014  04:38:00       62.968       64.507        9.226       35.730       20.987       19.299     1276.635      440.445      372.436        0.515        0.104       90.145       18.428        0.042      338.898       11.862      863.053
01/29/2014  04:39:00      -12.083       23.950       -4.878       33.904       13.968       19.057     1149.469      195.097      363.168        0.123        0.085       26.825       13.669        0.260      339.304       12.545      863.045
01/29/2014  04:40:00      -10.818        7.374        7.722       15.126       15.460       13.370      228.796      239.002      178.754        0.044        0.032       13.092       10.913        0.695      339.077       12.162      863.041
01/29/2014  04:41:00      -49.947       -5.026        1.754       24.209       15.844       14.001      586.080      251.022      196.037        0.178        0.052       50.200       14.191        0.080      338.944       11.939      862.989
01/29/2014  04:42:00      -28.253      -35.370        2.561       32.948       28.250       13.190     1085.564      798.073      173.970        0.206        0.103       45.269       11.779        0.068      339.254       12.462      862.942
01/29/2014  04:43:00      -80.788      -58.769       -4.251       48.964       57.594       25.247     2397.497     3317.062      637.401        0.817        0.318       99.902       27.653        0.077      339.146       12.279      862.973
01/29/2014  04:44:00     -129.484      -77.894        2.752       85.209       56.837       35.356     7260.612     3230.473     1250.076        1.729        0.587      151.108       34.358        0.052      338.738       11.590      863.022
01/29/2014  04:45:00      -60.911       11.612        7.376       72.885       47.026       29.769     5312.152     2211.414      886.203        0.615        0.420       62.008       26.962        0.189      338.800       11.696      862.997
01/29/2014  04:46:00     -121.166      -28.408       -6.613       41.048       48.885       22.209     1684.932     2389.782      493.230        1.005        0.228      124.452       17.190        0.019      338.858       11.795      862.974
01/29/2014  04:47:00      -81.767      -17.651       -0.877       37.682       30.848       17.890     1419.969      951.570      320.063        0.484        0.135       83.651       15.978        0.036      338.750       11.613      862.947
01/29/2014  04:48:00     -142.270      -48.957      -16.998       25.064       27.569       16.671      628.224      760.065      277.917        1.230        0.083      150.458       10.321        0.005      338.765       11.639      862.962
01/29/2014  04:49:00      -36.800      -39.745       -3.743       50.798       33.117       18.955     2580.466     1096.733      359.275        0.349        0.202       54.165       18.463        0.116      338.763       11.635      862.989
01/29/2014  04:50:00      -48.701      -98.551        4.893       41.112       51.210       26.168     1690.198     2622.462      684.751        0.855        0.250      109.927       25.889        0.055      338.767       11.642      862.989
01/29/2014  04:51:00       -9.770      -84.526       -3.487       47.981       39.498       35.680     2302.194     1560.117     1273.052        0.619        0.257       85.088       19.530        0.053      338.734       11.587      862.972
01/29/2014  04:52:00      -51.614      -18.542      -11.425       41.311       47.037       24.176     1706.563     2212.459      584.470        0.382        0.225       54.844       22.145        0.163      338.801       11.699      862.923
01/29/2014  04:53:00      -64.580      -48.076        2.695       73.704       60.346       34.263     5432.288     3641.598     1173.980        0.837        0.512       80.510       35.803        0.198      339.294       12.528      862.905
01/29/2014  04:54:00     -212.848      -74.162       -2.705       97.167       93.222       47.338     9441.438     8690.305     2240.905        3.559        1.019      225.398       45.208        0.040      339.476       12.834      862.941
01/29/2014  04:55:00     -179.384      -46.134       -1.522       97.457       57.993       41.713     9497.866     3363.221     1739.933        2.445        0.730      185.221       33.795        0.033      338.670       11.478      862.978
01/29/2014  04:56:00     -227.523      -16.794      -11.437       77.496       73.539       39.247     6005.695     5408.053     1540.354        3.256        0.648      228.142       25.593        0.013      339.377       12.667      862.916
01/29/2014  04:57:00     -213.379     -118.031        5.738      112.022       99.814       54.361    12548.946     9962.920     2955.079        4.248        1.273      243.848       38.756        0.025      339.688       13.190      862.893
01/29/2014  04:58:00     -168.598      -82.641       -1.811      100.587       49.168       46.414    10117.740     2417.460     2154.298        2.497        0.734      187.763       42.247        0.051      340.318       14.254      862.933
01/29/2014  04:59:00      -64.206     -125.580       -6.651      100.042       54.780       41.897    10008.379     3000.844     1755.336        1.735        0.738      141.042       30.691        0.047      339.220       12.403      862.936
01/29/2014  05:00:00      -18.239      -68.700      -18.519       49.717       47.814       30.831     2471.738     2286.208      950.547        0.555        0.285       71.080       20.787        0.086      339.257       12.466      862.906
01/29/2014  05:01:00     -264.832     -107.376      -14.257      140.185       87.218       51.921    19651.832     7607.050     2695.755        5.591        1.498      285.772       41.264        0.021      338.964       11.970      862.950
01/29/2014  05:02:00     -211.358      -58.473       -3.565      110.179       63.126       40.947    12139.315     3984.855     1676.693        3.295        0.890      219.297       46.492        0.045      339.118       12.230      862.983
01/29/2014  05:03:00     -139.025      -18.458       -9.177       66.470       33.335       26.600     4418.322     1111.214      707.534        1.299        0.312      140.245       30.614        0.048      338.759       11.627      862.994
01/29/2014  05:04:00      -91.719      -50.282       -2.166       30.183       29.525       13.621      911.012      871.730      185.525        0.646        0.098      104.598       13.070        0.016      338.926       11.909      862.983
01/29/2014  05:05:00      -69.872      -59.724        2.166       37.191       21.724       16.366     1383.172      471.945      267.838        0.529        0.106       91.919       18.623        0.041      339.135       12.261      862.987
01/29/2014  05:06:00     -134.994     -102.761       11.655       89.479       58.067       37.934     8006.503     3371.727     1438.968        2.087        0.641      169.656       31.425        0.034      338.766       11.639      863.060
01/29/2014  05:07:00     -168.498      -61.214       -2.269       79.226       59.788       43.386     6276.732     3574.575     1882.351        2.194        0.587      179.272       43.113        0.058      338.613       11.381      863.129
01/29/2014  05:08:00     -163.094      -27.349       -0.476       84.502       48.256       40.750     7140.655     2328.625     1660.523        1.924        0.556      165.371       42.291        0.065      338.586       11.338      863.155
01/29/2014  05:09:00      -84.217        4.596        4.295       47.148       39.339       20.760     2222.956     1547.523      430.993        0.567        0.210       84.343       25.080        0.088      338.602       11.365      863.117
01/29/2014  05:10:00       35.440       40.705        2.142       24.475       13.355       14.910      599.043      178.356      222.311        0.196        0.050       53.972       10.513        0.038      338.607       11.374      863.046
01/29/2014  05:11:00       80.960       50.890        1.811       16.902       19.424       13.893      285.679      377.300      193.011        0.500        0.043       95.626        6.901        0.005      338.642       11.432      862.972
01/29/2014  05:12:00      105.571       91.609        2.132       28.597       23.700       23.366      817.776      561.707      545.964        1.073        0.096      139.777       15.719        0.013      339.397       12.702      862.954
01/29/2014  05:13:00     -206.708       36.664      -19.571      114.202       42.405       37.337    13042.081     1798.183     1394.085        3.034        0.812      209.934       45.312        0.047      338.990       12.015      862.996
01/29/2014  05:14:00      -95.117       61.067      -18.894       30.734       28.302       21.263      944.592      801.023      452.133        0.767        0.110      113.033       18.100        0.026      339.206       12.381      863.005
01/29/2014  05:15:00      -69.013       52.111      -15.164       18.982       19.484       10.747      360.313      379.644      115.502        0.428        0.043       86.477        7.651        0.008      339.454       12.800      862.962
01/29/2014  05:16:00       -2.689       59.961       -6.309       27.467       20.423       19.314      754.410      417.094      373.022        0.259        0.077       60.021       11.437        0.036      339.705       13.222      862.928
01/29/2014  05:17:00       62.942       70.367       -2.064       25.272       34.020       19.997      638.698     1157.389      399.891        0.556        0.110       94.409       14.976        0.025      339.503       12.881      862.876
01/29/2014  05:18:00       42.635       90.602      -14.157       15.247       20.720       12.144      232.485      429.321      147.482        0.552        0.040      100.132        9.819        0.010      339.519       12.909      862.844
01/29/2014  05:19:00      -30.482       49.882       -4.572       43.411       51.468       18.456     1884.552     2648.965      340.618        0.416        0.244       58.458       23.554        0.162      339.346       12.616      862.869
01/29/2014  05:20:00      -81.629       -7.793       -8.237       24.615       34.108       17.430      605.881     1163.332      303.820        0.443        0.104       82.000       12.955        0.025      338.812       11.718      862.866
01/29/2014  05:21:00     -138.086       -1.204      -15.227       38.813       34.243       18.964     1506.481     1172.567      359.652        1.117        0.152      138.091       11.678        0.007      338.723       11.568      862.850
01/29/2014  05:22:00      -54.370       -9.174      -13.406       27.774       12.995        8.334      771.415      168.865       69.463        0.211        0.050       55.139        9.939        0.032      338.774       11.654      862.851
01/29/2014  05:23:00       31.912       32.192        1.631       21.981       24.891       16.175      483.144      619.586      261.643        0.171        0.068       45.329       12.439        0.075      339.296       12.533      862.826
01/29/2014  05:24:00       63.841       56.405       11.267       24.140       18.994       22.287      582.724      360.787      496.717        0.441        0.072       85.189       12.213        0.021      339.193       12.359      862.794
01/29/2014  05:25:00       77.301       34.056       14.332       22.647       16.882       18.879      512.885      284.989      356.399        0.425        0.058       84.471       10.370        0.015      339.246       12.448      862.790
01/29/2014  05:26:00       81.543       45.677        8.226       21.388       13.233       10.940      457.435      175.114      119.673        0.478        0.038       93.465        7.262        0.006      339.306       12.549      862.806
01/29/2014  05:27:00       46.703       33.590        8.520       17.036       14.977       11.203      290.226      224.308      125.504        0.201        0.032       57.528        8.186        0.020      339.186       12.346      862.811
01/29/2014  05:28:00      -13.306       81.019      -17.167       38.166       39.803       13.403     1456.652     1584.268      179.632        0.513        0.161       82.104       17.126        0.044      339.257       12.467      862.813
01/29/2014  05:29:00      -87.675      -16.773      -15.265       26.171       23.087       11.679      684.934      532.988      136.399        0.478        0.068       89.265        8.991        0.010      338.807       11.710      862.866
01/29/2014  05:30:00     -137.715       -1.395      -21.881       38.314       33.474       29.604     1467.946     1120.484      876.414        1.145        0.173      137.722       11.974        0.008      339.035       12.095      862.897
01/29/2014  05:31:00      -97.689       14.950      -18.286       26.779       32.135       19.870      717.125     1032.627      394.812        0.612        0.107       98.826        7.665        0.006      339.821       13.417      862.880
01/29/2014  05:32:00      -81.100       14.538      -15.711       40.589       23.827       16.499     1647.492      567.723      272.229        0.476        0.124       82.393       14.550        0.031      338.999       12.032      862.864
01/29/2014  05:33:00      -83.198       55.620      -14.148       37.050       35.069       15.251     1372.683     1229.850      232.601        0.652        0.142      100.077       15.919        0.025      339.292       12.525      862.836
01/29/2014  05:34:00      -34.347      142.832      -15.644       34.496       29.192       19.500     1189.966      852.191      380.256        1.212        0.121      146.904       12.542        0.007      339.922       13.587      862.830
01/29/2014  05:35:00      -42.929       53.929       -7.997       20.620       30.068       14.995      425.175      904.071      224.839        0.318        0.078       68.929        9.500        0.019      339.726       13.257      862.826
01/29/2014  05:36:00      -68.549      125.100      -22.613       28.988       25.420       16.010      840.326      646.186      256.312        1.130        0.087      142.650        6.810        0.002      340.120       13.921      862.814
01/29/2014  05:37:00      -64.935       83.722      -14.213       17.359       20.344       13.069      301.351      413.881      170.801        0.616        0.044      105.953        6.564        0.004      340.078       13.850      862.835
01/29/2014  05:38:00      -76.989       86.474      -23.702       39.098       47.374       18.952     1528.666     2244.255      359.183        0.905        0.207      115.781       18.490        0.026      340.006       13.730      862.849
01/29/2014  05:39:00      -84.820       27.848      -10.333       34.349       56.486       21.735     1179.854     3190.676      472.418        0.646        0.242       89.274       19.886        0.050      339.784       13.354      862.867
01/29/2014  05:40:00      -15.827       89.885      -10.434       33.525       23.302       18.168     1123.941      542.972      330.065        0.522        0.100       91.268       15.786        0.030      339.816       13.410      862.861
01/29/2014  05:41:00        2.513       74.433      -12.999       36.269       24.981       22.093     1315.423      624.043      488.105        0.407        0.121       74.475       17.508        0.055      339.759       13.313      862.810
01/29/2014  05:42:00       12.212      120.367      -17.897       24.280       27.187       15.619      589.527      739.121      243.955        0.826        0.079      120.985        8.858        0.005      339.742       13.285      862.768
01/29/2014  05:43:00      -17.538       79.271      -12.902       27.438       30.433       11.143      752.820      926.192      124.170        0.428        0.090       81.188        8.038        0.010      339.751       13.299      862.740
01/29/2014  05:44:00      -18.067       80.239      -10.952       17.682       28.017       20.281      312.641      784.963      411.302        0.420        0.075       82.247       20.886        0.064      339.658       13.143      862.733
01/29/2014  05:45:00       -7.567       44.178       -7.518       30.126       26.058       11.548      907.556      679.031      133.362        0.189        0.086       44.822       10.678        0.057      339.736       13.274      862.742
01/29/2014  05:46:00      -46.261       38.491       -9.802       34.768       28.968       12.243     1208.787      839.137      149.890        0.296        0.110       60.180       10.959        0.033      339.872       13.503      862.757
01/29/2014  05:47:00     -116.252       53.111       -9.763       55.858       29.922       30.236     3120.130      895.298      914.242        1.068        0.246      127.809       31.352        0.060      339.881       13.516      862.766
01/29/2014  05:48:00      -84.717       72.799      -11.192       43.324       45.876       23.136     1877.006     2104.589      535.264        0.856        0.226      111.699       17.501        0.025      339.828       13.428      862.771
01/29/2014  05:49:00      -50.911       99.772      -10.379       33.424       24.224       21.429     1117.191      586.819      459.201        0.741        0.108      112.011       16.628        0.022      339.928       13.598      862.775
01/29/2014  05:50:00      -26.052       71.842       -8.671       27.196       20.940       16.765      739.645      438.495      281.052        0.369        0.073       76.420       13.135        0.030      339.932       13.605      862.799
01/29/2014  05:51:00       20.117      107.208      -17.782       25.224       22.865        9.859      636.263      522.792       97.200        0.674        0.063      109.080        8.641        0.006      339.849       13.464      862.806
01/29/2014  05:52:00      -12.715      131.938      -18.354       36.736       41.961       18.195     1349.520     1760.698      331.052        1.067        0.172      132.549       19.746        0.022      339.820       13.415      862.829
01/29/2014  05:53:00     -110.755      102.646      -22.430       48.744       46.469       25.632     2375.990     2159.366      657.007        1.425        0.260      151.006       18.692        0.015      339.855       13.473      862.883
01/29/2014  05:54:00      -81.695      128.156      -22.916       22.836       26.868       23.078      521.465      721.906      532.583        1.270        0.089      151.981       14.737        0.009      339.929       13.600      862.888
01/29/2014  05:55:00      -45.931      109.226      -19.979       39.779       32.178       20.097     1582.334     1035.395      403.875        0.873        0.151      118.491       18.715        0.025      340.072       13.841      862.862
01/29/2014  05:56:00        7.085      102.097       -9.401       55.231       30.837       29.644     3050.486      950.902      878.748        0.772        0.244      102.342       28.045        0.075      339.844       13.457      862.808
01/29/2014  05:57:00       65.037      116.166      -24.851       31.126       55.611       24.374      968.839     3092.639      594.109        1.150        0.233      133.133       27.687        0.043      339.797       13.376      862.776
01/29/2014  05:58:00       20.236       46.890      -15.171       44.627       32.554       21.913     1991.535     1059.780      480.167        0.318        0.177       51.071       19.774        0.150      339.765       13.323      862.772
01/29/2014  05:59:00      -19.289       64.649      -12.169       26.131       33.529       14.465      682.829     1124.213      209.227        0.336        0.101       67.465       12.218        0.033      339.782       13.350      862.825
01/29/2014  06:00:00       -4.506       15.194       -0.907       20.375       18.785       17.453      415.146      352.876      304.615        0.066        0.054       15.848       12.444        0.617      339.839       13.448      862.832
01/29/2014  06:01:00      -48.340      -14.721       -1.432       16.222       13.186        7.846      263.169      173.860       61.560        0.153        0.025       50.532        2.068        0.002      339.971       13.669      862.811
01/29/2014  06:02:00      -42.758       -8.119       -3.712       12.133       16.959        9.066      147.208      287.595       82.184        0.121        0.026       43.522        4.762        0.012      339.643       13.118      862.776
01/29/2014  06:03:00      -15.161      -18.962       -4.077        8.279        9.173        5.072       68.543       84.147       25.730        0.039        0.009       24.278        4.260        0.031      339.699       13.210      862.740
01/29/2014  06:04:00      -25.109      -48.801       -3.000       24.723       22.033       12.501      611.241      485.450      156.280        0.214        0.063       54.882       15.050        0.075      339.651       13.133      862.756
01/29/2014  06:05:00      -96.560     -169.779        1.281       92.916      107.056       40.031     8633.317    11461.054     1602.469        2.992        1.085      195.317       47.638        0.059      339.049       12.113      862.778
01/29/2014  06:06:00      -33.999      -91.195        0.613       38.512       52.192       25.352     1483.198     2723.988      642.702        0.716        0.242       97.327       20.544        0.045      338.966       11.976      862.768
01/29/2014  06:07:00      -68.678      -62.203        7.904       31.405       44.917       25.960      986.243     2017.568      673.943        0.616        0.184       92.660       17.335        0.035      339.027       12.079      862.780
01/29/2014  06:08:00      -44.355      -37.286       -2.961       27.084       28.906       14.161      733.531      835.575      200.529        0.257        0.088       57.945       15.532        0.072      338.998       12.030      862.823
01/29/2014  06:09:00      -52.683      -70.630       -5.621       26.743       55.665       21.279      715.192     3098.596      452.805        0.603        0.213       88.114       24.446        0.077      339.076       12.161      862.871
01/29/2014  06:10:00     -103.353      -68.864        2.235       32.688       42.815       23.815     1068.511     1833.138      567.165        0.945        0.173      124.194       14.300        0.013      338.872       11.819      862.870
01/29/2014  06:11:00      -51.115      -48.135        8.112       57.288       38.162       25.866     3281.964     1456.319      669.076        0.520        0.270       70.212       29.310        0.174      338.762       11.635      862.831
01/29/2014  06:12:00       98.431       55.865       24.210       62.216       37.315       21.621     3870.845     1392.416      467.485        0.956        0.287      113.179       19.867        0.031      338.825       11.739      862.733
01/29/2014  06:13:00       64.213       99.832       65.324       65.330       53.502       55.378     4268.023     2862.452     3066.699        1.428        0.510      118.701       51.209        0.186      338.814       11.721      862.641
01/29/2014  06:14:00       51.898       50.357       58.045       74.490       40.179       34.502     5548.706     1614.373     1190.419        0.847        0.418       72.313       24.437        0.114      338.771       11.648      862.610
01/29/2014  06:15:00      -27.008        7.825        7.353       35.367       32.556       18.878     1250.828     1059.883      356.374        0.176        0.133       28.119       21.639        0.592      338.752       11.617      862.648
01/29/2014  06:16:00     -169.207       52.038      -20.350       80.842       34.015       28.061     6535.351     1156.994      787.393        2.011        0.424      177.028       31.184        0.031      338.647       11.438      862.677
01/29/2014  06:17:00      -77.730       17.733        1.166       40.117       37.019       24.127     1609.361     1370.410      582.099        0.496        0.178       79.728       20.800        0.068      338.677       11.491      862.676
01/29/2014  06:18:00       37.375       21.204       13.554       30.541       34.375       15.789      932.766     1181.670      249.291        0.220        0.118       42.971       11.821        0.076      338.787       11.676      862.633
01/29/2014  06:19:00       37.021       26.783       13.165       18.129       19.611       14.991      328.651      384.581      224.720        0.160        0.047       45.693        9.300        0.041      338.761       11.634      862.615
01/29/2014  06:20:00       76.111       57.562        8.168       18.033       18.747       14.234      325.175      351.465      202.614        0.503        0.044       95.426        6.084        0.004      338.753       11.619      862.637
01/29/2014  06:21:00       61.371       35.641       25.553       31.687       25.281       28.050     1004.078      639.139      786.791        0.406        0.122       70.970       21.850        0.095      338.718       11.561      862.631
01/29/2014  06:22:00       12.086       45.507       59.951       37.809       33.642       24.504     1429.555     1131.761      600.432        0.449        0.158       47.085       24.818        0.278      338.625       11.404      862.613
01/29/2014  06:23:00       -8.184       -5.587        1.060       21.813       16.655       14.475      475.790      277.395      209.515        0.053        0.048        9.909        8.874        0.802      338.541       11.263      862.609
01/29/2014  06:24:00      -43.606       -2.333       -2.987       20.047       27.752       12.077      401.871      770.165      145.845        0.162        0.066       43.668        8.633        0.039      338.588       11.340      862.638
01/29/2014  06:25:00       13.044       21.130       -0.843       43.464       12.921       15.126     1889.128      166.944      228.801        0.145        0.114       24.832       18.899        0.579      338.658       11.458      862.648
01/29/2014  06:26:00       64.570       -0.556       -2.529       23.609       29.599       21.803      557.365      876.127      475.391        0.304        0.095       64.573       19.231        0.089      338.747       11.609      862.589
01/29/2014  06:27:00       89.046       75.020       62.253       57.228       42.761       26.001     3275.090     1828.472      676.040        1.161        0.289      116.435       12.720        0.012      338.689       11.510      862.504
01/29/2014  06:28:00      140.188      100.051       58.972       61.241       47.713       53.197     3750.414     2276.517     2829.904        2.100        0.443      172.229       37.149        0.047      338.633       11.416      862.405
01/29/2014  06:29:00       30.645       31.546       47.512       42.071       71.184       35.230     1769.929     5067.124     1241.140        0.613        0.404       43.981       44.759        1.036      338.661       11.464      862.412
01/29/2014  06:30:00      -15.880      -84.299        4.251       66.458       45.384       38.833     4416.710     2059.668     1507.984        0.768        0.399       85.781       35.172        0.168      338.772       11.650      862.476
01/29/2014  06:31:00      -61.354      -14.417        1.504       47.004       40.293       19.097     2209.416     1623.531      364.684        0.409        0.210       63.025       21.499        0.116      338.730       11.579      862.456
01/29/2014  06:32:00       -6.296      -17.931       -2.847       22.179       16.120       15.765      491.928      259.854      248.530        0.068        0.050       19.005       13.661        0.517      338.910       11.880      862.410
01/29/2014  06:33:00      -44.044        1.168       -1.083       17.791       25.316       14.535      316.531      640.899      211.253        0.156        0.058       44.059        8.284        0.035      338.944       11.938      862.410
01/29/2014  06:34:00      -33.510       -9.908       11.981       47.378       25.445       21.713     2244.638      647.452      471.442        0.236        0.168       34.944       19.078        0.298      338.852       11.785      862.372
01/29/2014  06:35:00     -106.837      -45.030        4.379       60.949       40.594       21.822     3714.749     1647.891      476.207        0.965        0.292      115.939       16.316        0.020      338.728       11.576      862.328
01/29/2014  06:36:00     -123.269      -94.183        1.427       59.670       48.410       33.630     3560.556     2343.568     1130.949        1.555        0.352      155.131       28.557        0.034      338.572       11.315      862.318
01/29/2014  06:37:00     -114.990      -99.237        9.313       62.689       52.797       38.278     3929.878     2787.571     1465.183        1.567        0.409      151.890       39.428        0.067      338.575       11.319      862.363
01/29/2014  06:38:00      -98.448     -142.666      -11.971       49.304       59.426       28.494     2430.889     3531.433      811.936        1.848        0.339      173.337       25.525        0.022      338.752       11.616      862.394
01/29/2014  06:39:00      -65.354      -73.124       15.623       64.810       50.587       33.400     4200.274     2559.038     1115.588        0.887        0.394       98.073       29.755        0.092      338.838       11.762      862.421
01/29/2014  06:40:00     -122.628     -104.937      -11.356       36.031       45.465       24.116     1298.232     2067.049      581.588        1.506        0.197      161.398       22.562        0.020      338.856       11.792      862.406
01/29/2014  06:41:00        9.444        3.127       10.285       46.522       29.247       29.028     2164.341      855.405      842.616        0.203        0.193        9.948       20.736        4.345      338.847       11.775      862.348
01/29/2014  06:42:00       16.857      -37.595        8.134       27.522       47.316       34.473      757.462     2238.794     1188.399        0.297        0.209       41.201       33.700        0.669      338.964       11.975      862.343
01/29/2014  06:43:00        1.019      -15.738        8.674       28.021       27.514       16.603      785.168      757.032      275.663        0.107        0.091       15.771       10.074        0.408      338.987       12.011      862.401
01/29/2014  06:44:00      -62.614       35.059      -11.902       33.895       19.701       12.581     1148.866      388.142      158.278        0.349        0.085       71.761       10.727        0.022      338.918       11.894      862.446
01/29/2014  06:45:00     -142.739      -41.680       -8.146       41.175       47.351       21.783     1695.344     2242.133      474.514        1.329        0.221      148.700       14.082        0.009      338.441       11.094      862.505
01/29/2014  06:46:00      -78.455        5.957        0.043       46.223       36.948       21.071     2136.595     1365.160      443.976        0.507        0.197       78.681       22.631        0.083      338.345       10.935      862.552
01/29/2014  06:47:00     -102.325       60.454      -13.658       32.536       41.166       26.881     1058.578     1694.644      722.593        0.889        0.174      118.849       23.308        0.038      338.558       11.291      862.561
01/29/2014  06:48:00     -176.647      -75.392      -12.644       57.210       52.482       29.160     3273.002     2754.373      850.315        2.196        0.344      192.063       17.553        0.008      338.484       11.164      862.583
01/29/2014  06:49:00     -159.546      -66.801       -4.942       35.985       23.377       15.785     1294.935      546.488      249.164        1.602        0.105      172.966        9.358        0.003      338.562       11.298      862.597
01/29/2014  06:50:00      -52.351      -31.244        2.648       42.426       26.009       19.710     1799.946      676.457      388.473        0.329        0.143       60.965       18.174        0.089      338.655       11.455      862.574
01/29/2014  06:51:00      -68.964      -21.048      -11.563       28.103       12.991        8.405      789.792      168.768       70.642        0.318        0.051       72.104        4.742        0.004      338.791       11.682      862.530
01/29/2014  06:52:00     -119.401       21.385       -5.561       26.866       27.812       13.121      721.808      773.524      172.153        0.821        0.083      121.301        8.986        0.005      338.568       11.309      862.544
01/29/2014  06:53:00     -204.865      -68.531       -8.610       45.985       42.697       23.534     2114.585     1823.018      553.845        2.562        0.225      216.023       19.513        0.008      338.430       11.074      862.620
01/29/2014  06:54:00      -88.950      -37.543      -11.164       64.160       31.390       26.812     4116.498      985.330      718.861        0.763        0.291       96.549       25.515        0.070      338.447       11.105      862.662
01/29/2014  06:55:00      -78.993        2.103       -6.062       38.728       18.474       17.317     1499.886      341.285      299.880        0.421        0.107       79.021       17.671        0.050      338.444       11.099      862.654
01/29/2014  06:56:00      -39.516       73.385       -9.240       25.652       25.763       14.351      658.049      663.740      205.964        0.428        0.076       83.348       12.948        0.024      338.876       11.825      862.612
01/29/2014  06:57:00        3.583      105.384      -14.049       15.646       32.720       14.537      244.812     1070.584      211.314        0.642        0.076      105.445       17.248        0.027      339.317       12.567      862.611
01/29/2014  06:58:00       28.982      129.693      -27.103       18.032       23.387       14.240      325.161      546.968      202.773        0.973        0.054      132.892       11.838        0.008      339.329       12.588      862.595
01/29/2014  06:59:00      -12.088       89.922      -20.182       23.170       22.126       11.451      536.848      489.552      131.125        0.490        0.058       90.731       12.082        0.018      339.720       13.249      862.575
01/29/2014  07:00:00     -125.556      -17.742      -18.007       61.970       39.855       20.871     3840.337     1588.428      435.578        1.113        0.293      126.803       19.021        0.023      338.852       11.784      862.573
01/29/2014  07:01:00     -131.067      -67.287       -1.070       76.801       40.188       36.725     5898.416     1615.064     1348.694        1.528        0.443      147.330       40.759        0.077      338.464       11.134      862.560
01/29/2014  07:02:00     -107.648      -71.819        3.887       44.856       58.536       30.939     2012.049     3426.459      957.221        1.158        0.320      129.407       24.259        0.035      338.674       11.486      862.581
01/29/2014  07:03:00      -87.906      -11.132       -7.052       21.811       26.794       14.523      475.726      717.910      210.931        0.465        0.070       88.608       11.936        0.018      338.766       11.640      862.593
01/29/2014  07:04:00      -78.927      -26.504        1.166       38.319       24.873       14.723     1468.329      618.668      216.762        0.462        0.115       83.258       15.587        0.035      338.649       11.444      862.586
01/29/2014  07:05:00     -110.103      -30.613        6.593       52.681       32.332       18.221     2775.278     1045.334      332.016        0.863        0.208      114.280       17.147        0.023      338.790       11.681      862.612
01/29/2014  07:06:00        8.741        5.662        6.645       30.461       17.828       19.740      927.874      317.827      389.666        0.089        0.082       10.415       16.154        2.406      338.937       11.929      862.598
01/29/2014  07:07:00       79.393       76.468       39.241       30.300       28.872       38.663      918.088      833.599     1494.859        0.847        0.162      110.230       31.176        0.080      338.684       11.502      862.532
01/29/2014  07:08:00       30.258       52.161       41.325       43.897       41.174       34.050     1926.907     1695.278     1159.404        0.506        0.239       60.302       25.760        0.182      338.808       11.709      862.505
01/29/2014  07:09:00      -41.073        0.600       -2.365       22.188       15.587       18.352      492.292      242.951      336.805        0.138        0.054       41.077       17.514        0.182      338.819       11.729      862.492
01/29/2014  07:10:00      -88.011       -2.441        1.514       46.316       32.619       27.502     2145.150     1064.030      756.353        0.586        0.198       88.045       28.147        0.102      338.570       11.312      862.513
01/29/2014  07:11:00      -73.431      -67.612       -1.007       55.032       24.467       15.502     3028.495      598.636      240.319        0.692        0.193       99.817       18.859        0.036      338.789       11.680      862.525
01/29/2014  07:12:00       -2.986      -27.533        6.070        9.417       13.700        8.548       88.683      187.690       73.071        0.058        0.017       27.695        4.307        0.024      339.028       12.080      862.501
01/29/2014  07:13:00       10.832       14.696       33.581       15.598       26.628       19.783      243.283      709.073      391.362        0.140        0.067       18.257       21.375        1.371      338.842       11.769      862.472
01/29/2014  07:14:00        7.804       60.204       65.199       23.621       27.735       17.320      557.929      769.225      299.965        0.478        0.081       60.708       16.576        0.075      338.756       11.625      862.389
01/29/2014  07:15:00       30.975       -3.664        6.848       14.579       22.200       17.640      212.558      492.837      311.169        0.102        0.051       31.191       17.349        0.309      339.189       12.353      862.341
01/29/2014  07:16:00       23.604       26.399        2.141       27.107       11.443       13.890      734.784      130.933      192.932        0.116        0.053       35.412        8.078        0.052      339.462       12.810      862.269
01/29/2014  07:17:00      100.034       56.848       11.096       24.907       39.419       28.308      620.362     1553.825      801.367        0.817        0.149      115.059       24.148        0.044      339.394       12.697      862.201
01/29/2014  07:18:00      110.020       68.507       40.959       39.943       39.950       31.009     1595.432     1596.023      961.573        1.131        0.208      129.605       27.184        0.044      339.395       12.698      862.163
01/29/2014  07:19:00       90.492       48.815       33.919       51.269       44.561       41.740     2628.479     1985.672     1742.228        0.904        0.318      102.819       32.135        0.098      339.239       12.437      862.163
01/29/2014  07:20:00       32.825       26.539       46.834       37.650       29.058       22.674     1417.556      844.356      514.115        0.338        0.139       42.212       17.505        0.172      339.016       12.061      862.136
01/29/2014  07:21:00        9.971      -23.679        2.634       15.036       13.733       11.078      226.070      188.604      122.725        0.060        0.027       25.693        9.624        0.140      338.946       11.943      862.140
01/29/2014  07:22:00       34.998        2.992       11.855       21.374       19.418       13.361      456.835      377.071      178.514        0.119        0.051       35.126       11.986        0.116      338.898       11.862      862.125
01/29/2014  07:23:00       60.489       17.741       15.813       22.728       20.641       20.324      516.579      426.032      413.066        0.279        0.068       63.037       15.125        0.058      338.818       11.726      862.082
01/29/2014  07:24:00       32.499      -31.320        6.602       26.153       21.556       18.614      683.985      464.664      346.493        0.179        0.075       45.135       16.987        0.142      339.024       12.074      862.017
01/29/2014  07:25:00       75.905       46.663       33.310       44.351       19.920       16.654     1967.001      396.811      277.358        0.584        0.132       89.101       19.278        0.047      338.950       11.951      862.000
01/29/2014  07:26:00      119.652       53.503       31.714       55.123       44.185       33.128     3038.576     1952.273     1097.472        1.214        0.304      131.069       24.461        0.035      339.027       12.080      862.008
01/29/2014  07:27:00      137.758       68.677       21.844       24.570       27.061       23.270      603.692      732.320      541.510        1.302        0.094      153.928       17.206        0.012      339.108       12.215      862.035
01/29/2014  07:28:00       90.283       40.227        9.693       40.008       26.977       27.748     1600.616      727.732      769.936        0.648        0.155       98.839       24.454        0.061      339.012       12.054      862.088
01/29/2014  07:29:00       45.904       -5.220        4.323       26.305       29.818       17.402      691.946      889.089      302.829        0.202        0.094       46.200       13.825        0.090      338.970       11.982      862.164
01/29/2014  07:30:00      -15.285      -23.455        1.732       31.551       25.281       15.025      995.493      639.117      225.736        0.132        0.093       27.995       14.719        0.276      338.863       11.803      862.220
01/29/2014  07:31:00      -96.585        2.781      -20.823       26.561       14.811       12.896      705.473      219.354      166.317        0.543        0.055       96.625        5.516        0.003      338.618       11.392      862.264
01/29/2014  07:32:00      -93.495       -8.008      -21.110       23.253       19.074       12.528      540.683      363.803      156.952        0.516        0.053       93.838        8.493        0.008      338.913       11.887      862.291
01/29/2014  07:33:00      -52.266      -42.596       -6.014       16.087       17.319       10.105      258.803      299.952      102.114        0.262        0.033       67.425        6.810        0.010      339.014       12.058      862.297
01/29/2014  07:34:00       -5.700      -35.068       -1.032       16.212       10.163       12.754      262.834      103.286      162.654        0.090        0.026       35.528       11.832        0.111      339.269       12.487      862.280
01/29/2014  07:35:00        8.411      -38.080        5.646       20.116        9.239       11.380      404.639       85.364      129.514        0.109        0.031       38.998       10.343        0.070      339.450       12.794      862.260
01/29/2014  07:36:00       37.884      -52.354      -11.332       28.684       42.854       23.856      822.774     1836.438      569.121        0.377        0.161       64.623       23.693        0.134      339.259       12.470      862.238
01/29/2014  07:37:00        7.185        3.726       24.222       25.414       35.517       31.434      645.874     1261.446      988.108        0.177        0.145        8.094       16.697        4.256      339.130       12.253      862.195
01/29/2014  07:38:00       30.225      -26.774        1.768       41.567       46.685       29.182     1727.844     2179.489      851.561        0.320        0.238       40.378       28.413        0.495      339.064       12.140      862.170
01/29/2014  07:39:00        6.832      -62.754      -14.685       52.440       18.687       13.617     2749.933      349.207      185.426        0.374        0.164       63.125        9.099        0.021      339.272       12.491      862.249
01/29/2014  07:40:00      -36.358      -71.158       -8.483       32.788       36.657       17.890     1075.055     1343.728      320.041        0.460        0.137       79.908       17.280        0.047      339.332       12.594      862.432
01/29/2014  07:41:00        2.787      -21.379       14.031       27.407       46.732       14.587      751.169     2183.861      212.778        0.190        0.157       21.559       24.356        1.276      339.299       12.538      862.560
01/29/2014  07:42:00      -23.256       -6.163        2.584       31.399       27.922       14.585      985.889      779.665      212.722        0.128        0.099       24.059       15.116        0.395      339.196       12.367      862.575
01/29/2014  07:43:00     -121.930     -118.304       -3.925       82.839       67.307       41.566     6862.342     4530.265     1727.708        2.100        0.656      169.891       34.138        0.040      339.034       12.090      862.587
01/29/2014  07:44:00      -24.457     -150.435      -10.169      102.147       56.253       39.854    10433.951     3164.371     1588.321        1.926        0.759      152.410       26.764        0.031      339.012       12.053      862.538
01/29/2014  07:45:00       35.316      -20.689       -1.654       44.868       82.284       41.061     2013.101     6770.656     1685.984        0.607        0.523       40.930       45.820        1.253      339.017       12.061      862.484
01/29/2014  07:46:00      -45.506       -8.600        0.557       12.903       17.400       11.698      166.486      302.768      136.846        0.138        0.030       46.312        6.400        0.019      339.086       12.178      862.529
01/29/2014  07:47:00        2.153      -53.817      -11.579       23.948       29.610       14.370      573.528      876.749      206.497        0.235        0.083       53.860       13.116        0.059      339.219       12.402      862.518
01/29/2014  07:48:00       13.301      -41.005        1.640       27.288       36.241       28.941      744.610     1313.426      837.563        0.238        0.145       43.109       27.739        0.414      339.274       12.494      862.490
01/29/2014  07:49:00      -17.090      -40.666       -5.897       36.787       58.109       29.314     1353.262     3376.601      859.307        0.378        0.279       44.111       32.795        0.553      339.127       12.247      862.474
01/29/2014  07:50:00       38.898       67.087       84.714       51.756       45.088       33.724     2678.667     2032.962     1137.324        0.952        0.292       77.548       37.387        0.232      339.097       12.198      862.443
01/29/2014  07:51:00       12.305       57.677       82.039       43.868       42.643       30.678     1924.385     1818.452      941.129        0.745        0.234       58.975       33.976        0.332      339.094       12.192      862.434
01/29/2014  07:52:00      -24.583      -34.727       19.027       31.058       31.836       28.707      964.590     1013.518      824.093        0.249        0.140       42.548       25.874        0.370      339.131       12.255      862.421
01/29/2014  07:53:00       -7.521       27.853       28.747       28.677       34.850       30.530      822.348     1214.520      932.053        0.231        0.148       28.851       25.954        0.809      339.156       12.296      862.418
01/29/2014  07:54:00        6.045       57.649       82.730       22.397       63.018       32.967      501.639     3971.291     1086.804        0.788        0.278       57.965       41.057        0.502      339.162       12.305      862.363
01/29/2014  07:55:00      -94.833      -27.556       -8.537       86.618       39.933       30.942     7502.747     1594.626      957.416        0.994        0.503       98.756       39.767        0.162      339.189       12.352      862.444
01/29/2014  07:56:00        0.478      -59.838       -2.423       75.148       84.093       44.437     5647.284     7071.650     1974.646        0.914        0.735       59.840       46.569        0.606      339.268       12.485      862.428
01/29/2014  07:57:00      -72.030     -116.384        2.321       72.627       52.411       38.447     5274.659     2746.934     1478.176        1.412        0.475      136.871       41.876        0.094      339.643       13.115      862.407
01/29/2014  07:58:00       19.696      -28.102       17.272       43.671       37.092       32.701     1907.147     1375.789     1069.344        0.291        0.218       34.317       24.464        0.508      339.513       12.896      862.383
01/29/2014  07:59:00      -37.473      -31.162        8.230       31.012       26.665       22.144      961.723      711.045      490.339        0.230        0.108       48.737       15.597        0.102      339.592       13.031      862.382
01/29/2014  08:00:00      -19.237      -49.012       -7.672       40.962       21.566       19.940     1677.883      465.091      397.592        0.269        0.127       52.652       13.814        0.069      339.595       13.036      862.386
01/29/2014  08:01:00      -45.937      -78.255       -0.355       69.815       41.139       26.138     4874.194     1692.439      683.169        0.774        0.362       90.742       28.488        0.099      339.399       12.705      862.430
01/29/2014  08:02:00       21.843       -3.223       25.447       54.165      100.571       47.392     2933.894    10114.435     2245.987        0.821        0.765       22.079       58.742        7.078      339.291       12.524      862.407
01/29/2014  08:03:00      -27.796      -35.442       12.723       43.577       36.713       32.408     1898.954     1347.809     1050.256        0.324        0.215       45.042       19.941        0.196      339.304       12.546      862.410
01/29/2014  08:04:00      -12.752       -6.056        0.958       32.072       28.530       26.693     1028.632      813.953      712.500        0.138        0.128       14.117       14.342        1.032      339.292       12.525      862.415
01/29/2014  08:05:00       17.441       33.803       35.840       50.110       31.858       35.181     2510.980     1014.959     1237.685        0.375        0.238       38.037       27.735        0.532      339.225       12.413      862.350
01/29/2014  08:06:00       -4.716       36.886       55.175       30.899       65.746       59.789      954.730     4322.479     3574.684        0.664        0.443       37.186       57.186        2.365      339.312       12.560      862.375
01/29/2014  08:07:00      -44.542      -94.525        5.334       64.670       63.905       25.184     4182.205     4083.878      634.228        0.992        0.445      104.494       15.750        0.023      339.577       13.004      862.413
01/29/2014  08:08:00     -123.400      -42.761      -11.007       90.986       77.514       32.522     8278.425     6008.402     1057.700        1.626        0.767      130.599       41.705        0.102      339.514       12.900      862.405
01/29/2014  08:09:00     -218.505     -146.701      -10.823      150.046      116.561       66.926    22513.726    13586.554     4479.137        5.497        2.029      263.184       81.444        0.096      340.160       13.986      862.310
01/29/2014  08:10:00     -135.358       -1.099        2.298      100.221       65.076       64.024    10044.203     4234.928     4099.115        1.835        0.919      135.362       55.101        0.166      340.230       14.106      862.203
01/29/2014  08:11:00     -128.899      -35.816       16.219      161.483       79.453       55.688    26076.835     6312.804     3101.150        2.682        1.775      133.782       75.461        0.318      340.219       14.087      862.166
01/29/2014  08:12:00     -274.110     -131.625       -3.957       89.088       75.675       53.933     7936.616     5726.741     2908.715        5.452        0.829      304.075       41.150        0.018      340.406       14.399      862.181
01/29/2014  08:13:00     -282.308      -53.519      -12.594       72.996      115.983       44.423     5328.358    13452.055     1973.372        5.173        1.038      287.336       38.524        0.018      340.425       14.433      862.168
01/29/2014  08:14:00     -227.939      -82.397      -19.178      119.523      102.082       59.733    14285.844    10420.729     3568.019        4.369        1.414      242.375       46.442        0.037      340.445       14.467      862.140
01/29/2014  08:15:00     -246.071     -129.950       -0.762      198.058      135.055       78.323    39226.856    18239.793     6134.456        7.051        3.180      278.277      103.988        0.140      340.490       14.544      862.143
01/29/2014  08:16:00     -141.011     -115.698       13.301      148.058      111.329       84.436    21921.153    12394.153     7129.368        3.744        2.072      182.401       90.370        0.245      340.450       14.475      862.104
01/29/2014  08:17:00     -191.125     -165.636        2.790      127.206       86.463       61.398    16181.252     7475.791     3769.755        4.569        1.371      252.911       72.848        0.083      340.430       14.442      862.081
01/29/2014  08:18:00     -195.759     -108.293        0.855      164.625      112.571       66.363    27101.512    12672.228     4404.038        4.711        2.209      223.716       83.589        0.140      340.431       14.444      862.047
01/29/2014  08:19:00     -276.691     -195.732       -9.967      153.529      119.691       82.317    23571.098    14325.993     6776.129        7.981        2.234      338.923       84.472        0.062      340.444       14.465      862.006
01/29/2014  08:20:00     -298.372     -215.539      -19.372      146.431      120.392       71.341    21441.972    14494.248     5089.572        8.843        2.051      368.079       53.530        0.021      340.464       14.499      861.999
01/29/2014  08:21:00     -369.563     -248.720      -14.083      184.512      147.486       76.800    34044.720    21752.165     5898.165       13.016        3.085      445.465       91.322        0.042      340.489       14.543      861.995
01/29/2014  08:22:00     -266.763      -91.303      -12.586      179.511      134.554       57.866    32224.281    18104.789     3348.450        6.666        2.684      281.955       56.997        0.041      340.495       14.552      861.999
01/29/2014  08:23:00     -267.645     -242.402        6.989      198.394      137.715       83.730    39360.256    18965.334     7010.697        9.788        3.267      361.099       94.558        0.069      340.491       14.547      861.979
01/29/2014  08:24:00     -270.864     -136.807      -16.893      150.370      153.717       75.150    22611.260    23628.800     5647.589        7.212        2.594      303.452       80.947        0.071      340.480       14.527      861.939
01/29/2014  08:25:00     -284.720     -149.423        0.250      186.599      157.733       75.126    34819.236    24879.607     5643.872        8.436        3.267      321.547       85.698        0.071      340.503       14.566      861.936
01/29/2014  08:26:00     -429.195     -232.061       -1.746      305.864      202.563      101.159    93553.015    41031.956    10233.188       19.142        7.241      487.915      121.741        0.062      340.627       14.775      861.897
01/29/2014  08:27:00     -381.441     -256.508      -17.786      150.979      147.761       89.382    22794.639    21833.354     7989.073       13.210        2.631      459.667       83.464        0.033      340.589       14.711      861.904
01/29/2014  08:28:00     -388.950     -164.118       -9.594      268.383      252.154      113.988    72029.315    63581.401    12993.220       16.343        7.430      422.158      149.578        0.126      340.591       14.714      861.899
01/29/2014  08:29:00     -256.245     -142.981        3.156      201.942      126.615       83.523    40780.649    16031.278     6976.019        7.494        3.189      293.436       88.892        0.092      340.579       14.695      861.917
01/29/2014  08:30:00     -335.852     -214.274       -5.867      191.774      155.942       92.191    36777.200    24318.035     8499.125       11.416        3.480      398.385       79.387        0.040      340.598       14.724      861.898
01/29/2014  08:31:00     -205.372     -132.616       16.661      184.525      125.014       90.971    34049.456    15628.606     8275.759        5.899        2.898      244.468      103.752        0.180      340.591       14.714      861.868
01/29/2014  08:32:00     -395.988      -98.247       -8.778      238.228      187.248       79.665    56752.569    35061.671     6346.574       13.233        4.908      407.994      106.952        0.069      340.561       14.663      861.806
01/29/2014  08:33:00     -369.182     -211.542      -22.374      191.843      128.067       86.346    36803.794    16401.136     7455.627       12.109        3.033      425.494       93.322        0.048      340.575       14.687      861.733
01/29/2014  08:34:00     -331.186     -187.742       -4.760      194.843      143.503       89.734    37963.702    20593.002     8052.170       10.577        3.330      380.698       87.530        0.053      340.591       14.713      861.672
01/29/2014  08:35:00     -320.164     -154.984        1.068      208.217      127.896       91.385    43354.438    16357.313     8351.193        9.728        3.403      355.703       98.618        0.077      340.583       14.700      861.667
01/29/2014  08:36:00     -264.221     -147.626       -9.336      184.202      168.136       91.637    33930.244    28269.605     8397.344        8.113        3.530      302.666       92.103        0.093      340.573       14.682      861.663
01/29/2014  08:37:00     -311.340      -87.308       10.707      235.699      202.523      102.303    55554.057    41015.485    10465.866       10.583        5.352      323.350      103.999        0.103      340.594       14.720      861.688
01/29/2014  08:38:00     -455.297     -240.791        8.993      227.424      172.171       88.520    51721.637    29642.723     7835.818       17.726        4.460      515.049      102.165        0.039      340.606       14.738      861.764
01/29/2014  08:39:00     -277.588     -232.583       14.229      198.673      156.513       86.692    39470.873    24496.169     7515.489       10.141        3.574      362.146      103.071        0.081      340.642       14.800      861.849
01/29/2014  08:40:00     -291.648     -189.290      -12.061      189.198      151.491       71.589    35795.879    22949.618     5125.036        9.244        3.194      347.691       89.097        0.066      340.701       14.900      861.869
01/29/2014  08:41:00     -356.177     -193.684       -6.668      146.335      150.193       69.949    21413.941    22558.045     4892.892       10.663        2.443      405.433       68.713        0.029      340.733       14.954      861.883
01/29/2014  08:42:00     -228.263     -107.195       -0.023      148.019      123.829       63.591    21909.728    15333.642     4043.850        5.243        2.064      252.180       60.193        0.057      340.687       14.878      861.955
01/29/2014  08:43:00     -284.751     -214.009        1.367      183.655      153.795       93.772    33729.181    23652.933     8793.254        9.652        3.309      356.206       92.233        0.067      340.712       14.920      861.973
01/29/2014  08:44:00     -407.445     -241.921      -13.783      185.860      142.741       81.491    34543.889    20375.085     6640.864       14.313        3.078      473.853       81.625        0.030      340.755       14.992      861.963
01/29/2014  08:45:00     -328.549     -140.588      -18.824      276.660      171.352       93.137    76540.696    29361.556     8674.539       12.130        5.729      357.364      133.293        0.139      340.786       15.046      861.966
01/29/2014  08:46:00     -248.668     -144.180        0.596      225.973      174.502       90.821    51063.679    30450.779     8248.509        8.618        4.488      287.443      102.910        0.128      340.795       15.061      861.926
01/29/2014  08:47:00     -307.016     -123.912       -2.033      202.914      110.571       75.999    41174.223    12225.917     5775.830        8.439        2.959      331.079       87.541        0.070      340.818       15.100      861.949
01/29/2014  08:48:00     -354.226     -191.307      -19.519      152.820      146.788       80.509    23354.062    21546.635     6481.629       10.691        2.569      402.585       90.459        0.050      340.791       15.053      862.016
01/29/2014  08:49:00     -298.733     -224.269       -0.659      194.982      158.823       86.980    38017.874    25224.785     7565.526       10.516        3.540      373.548       92.867        0.062      340.753       14.989      862.056
01/29/2014  08:50:00     -208.625     -133.498       -1.031      171.796      144.425       70.840    29513.795    20858.453     5018.276        5.836        2.770      247.682       91.024        0.135      340.732       14.953      862.031
01/29/2014  08:51:00     -274.049      -88.951       -3.719      198.104      117.065       62.635    39245.094    13704.177     3923.165        6.994        2.844      288.124       60.581        0.044      340.727       14.946      861.984
01/29/2014  08:52:00     -249.793     -122.953        0.375      152.882      135.159       68.340    23372.857    18267.838     4670.360        6.190        2.316      278.413       67.643        0.059      340.742       14.970      861.962
01/29/2014  08:53:00     -164.766     -118.953       23.436      178.469      101.164       76.822    31851.198    10234.093     5901.650        4.491        2.399      203.218       94.081        0.214      340.734       14.955      861.984
01/29/2014  08:54:00      -74.576      -62.327       45.970      139.441      163.169       93.843    19443.832    26624.171     8806.490        3.321        2.744       97.192       86.409        0.790      340.735       14.958      861.974
01/29/2014  08:55:00     -273.088      -58.578      -13.479      145.335      151.710       68.907    21122.334    23015.986     4748.123        6.353        2.444      279.300       63.697        0.052      340.724       14.938      861.957
01/29/2014  08:56:00     -402.112     -180.348       -0.606      219.807      179.225       86.521    48315.166    32121.729     7485.832       14.106        4.396      440.703       92.184        0.044      340.749       14.982      861.912
01/29/2014  08:57:00     -412.591     -108.061      -16.087      147.919      129.854       78.244    21880.006    16861.948     6122.164       11.351        2.243      426.507       69.750        0.027      340.764       15.007      861.870
01/29/2014  08:58:00     -191.006     -145.866        5.464      185.825      122.113       87.058    34530.759    14911.507     7579.038        5.740        2.851      240.333       91.033        0.143      340.765       15.009      861.894
01/29/2014  08:59:00     -421.023     -241.781      -19.684      143.296      129.125       70.969    20533.604    16673.310     5036.533       13.917        2.112      485.509       62.324        0.016      340.789       15.049      861.845
01/29/2014  09:00:00     -418.845     -312.277      -24.464      177.925      158.047      103.754    31657.444    24978.858    10764.942       17.046        3.370      522.444       96.263        0.034      340.763       15.005      861.846
01/29/2014  09:01:00     -384.210     -157.723       -4.178      237.708      158.684       87.921    56505.277    25180.530     7730.054       13.095        4.471      415.324       97.660        0.055      340.786       15.045      861.867
01/29/2014  09:02:00     -373.258      -73.720       -8.791      190.117      156.883       80.391    36144.296    24612.371     6462.681       10.602        3.361      380.469       65.508        0.030      340.813       15.089      861.923
01/29/2014  09:03:00     -292.720      -24.363       -2.028      162.367      143.511       87.871    26363.158    20595.492     7721.373        7.047        2.734      293.733       88.124        0.090      340.832       15.123      861.977
01/29/2014  09:04:00     -416.237     -210.131        2.917      253.305      203.272      113.744    64163.428    41319.495    12937.768       16.790        5.921      466.270      139.475        0.089      340.797       15.062      861.951
01/29/2014  09:05:00     -298.051     -264.320       -3.637      194.661      194.689      113.305    37892.915    37903.811    12838.021       12.366        4.432      398.370      122.401        0.094      340.791       15.053      861.911
01/29/2014  09:06:00     -269.245     -179.310        0.717      207.904      153.591       94.244    43223.961    23590.225     8881.889        9.016        3.785      323.488      104.585        0.105      340.793       15.057      861.850
01/29/2014  09:07:00     -249.830      -77.933        4.221      136.377      146.906       71.390    18598.767    21581.313     5096.524        5.688        2.264      261.703       64.563        0.061      340.797       15.063      861.801
01/29/2014  09:08:00     -333.235     -133.832        2.710      288.582      245.317      110.115    83279.345    60180.210    12125.333       14.225        7.779      359.105      127.361        0.126      340.791       15.053      861.805
01/29/2014  09:09:00     -303.452     -178.053       14.472      273.652      235.306      113.764    74885.151    55369.036    12942.273       13.357        7.160      351.832      136.320        0.150      340.798       15.066      861.789
01/29/2014  09:10:00     -330.993     -112.913      -22.800      227.913      156.798       86.339    51944.448    24585.664     7454.431       10.339        4.199      349.723      108.197        0.096      340.774       15.024      861.794
01/29/2014  09:11:00     -495.982      -67.277      -13.983      265.164      160.609       88.985    70311.999    25795.297     7918.302       17.736        5.201      500.524      119.328        0.057      340.721       14.933      861.769
01/29/2014  09:12:00     -360.110      -85.962      -17.334      208.876      174.799       79.378    43629.036    30554.609     6300.872       10.891        4.024      370.228       87.369        0.056      340.737       14.962      861.778
01/29/2014  09:13:00     -384.154     -148.187       -5.887      224.042      210.366      110.779    50194.897    44253.720    12272.014       13.813        5.336      411.744      129.649        0.099      340.737       14.962      861.738
01/29/2014  09:14:00     -467.327     -223.971      -17.594      197.384      157.001       91.899    38960.456    24649.285     8445.396       17.045        3.603      518.225       90.737        0.031      340.764       15.005      861.730
01/29/2014  09:15:00     -453.781      -46.464      -22.649      190.564      136.963       81.626    36314.595    18758.866     6662.867       13.515        3.087      456.154       78.372        0.030      340.750       14.983      861.739
01/29/2014  09:16:00     -183.039     -114.585       18.102      236.461      168.056      108.762    55913.758    28242.948    11829.228        7.146        4.799      215.947      132.360        0.376      340.762       15.004      861.685
01/29/2014  09:17:00     -373.463      -65.568      -13.961      201.582      157.444       89.544    40635.371    24788.744     8018.115       10.869        3.672      379.175       97.030        0.065      340.822       15.105      861.619
01/29/2014  09:18:00     -555.610     -261.078      -35.100      245.426      168.231       77.707    60233.759    28301.714     6038.353       23.632        4.729      613.893       76.510        0.016      340.743       14.970      861.616
01/29/2014  09:19:00     -290.301      -64.075      -11.155      220.106      129.783       79.079    48446.845    16843.716     6253.429        8.001        3.577      297.288       85.900        0.083      340.771       15.018      861.617
01/29/2014  09:20:00     -527.620     -146.909      -17.044      189.496      165.908      102.095    35908.888    27525.547    10423.407       18.704        3.693      547.690      112.203        0.042      340.762       15.004      861.596
01/29/2014  09:21:00     -386.142      -46.393       -3.955      210.767      131.012       79.305    44422.834    17164.100     6289.331       10.956        3.394      388.919       88.498        0.052      340.767       15.012      861.602
01/29/2014  09:22:00     -336.003       -9.100       -1.722      188.990      128.909       80.931    35717.336    16617.408     6549.817        8.592        2.944      336.127       85.976        0.065      340.787       15.045      861.601
01/29/2014  09:23:00     -350.089      -33.684      -28.440      214.695      147.130       83.035    46093.925    21647.235     6894.840        9.956        3.732      351.705       87.052        0.061      340.837       15.129      861.615
01/29/2014  09:24:00     -283.445     -264.206       -0.879      182.339      148.454       93.389    33247.471    22038.490     8721.483       10.707        3.200      387.486       96.004        0.061      340.894       15.226      861.653
01/29/2014  09:25:00     -314.662     -185.074        6.829      189.893      167.619       93.249    36059.353    28096.137     8695.381       10.307        3.643      365.054       96.173        0.069      340.929       15.287      861.666
01/29/2014  09:26:00     -280.535     -140.945        3.369      162.694      182.894       77.386    26469.213    33450.208     5988.653        8.223        3.295      313.951       83.479        0.071      340.910       15.254      861.663
01/29/2014  09:27:00     -350.046     -100.266       -7.884      216.826      171.191       84.273    47013.546    29306.344     7101.971       10.802        4.171      364.123       90.383        0.062      340.893       15.225      861.591
01/29/2014  09:28:00     -359.025      -63.228      -10.338      233.976      150.927      100.972    54744.943    22778.820    10195.345       11.035        4.386      364.551      114.797        0.099      340.937       15.298      861.607
01/29/2014  09:29:00     -302.941     -182.419        7.725      236.527      156.370      111.824    55945.248    24451.443    12504.694       10.899        4.645      353.624      138.863        0.154      340.924       15.276      861.620
01/29/2014  09:30:00     -361.176     -183.340        9.905      209.308      184.262       91.526    43809.930    33952.311     8376.953       12.513        4.307      405.045       97.865        0.058      340.909       15.250      861.638
01/29/2014  09:31:00     -412.687     -207.374      -11.664      243.002      199.714       95.440    59050.120    39885.810     9108.797       16.073        5.402      461.860      107.065        0.054      340.885       15.211      861.691
01/29/2014  09:32:00     -320.014     -189.612       -9.100      152.482      117.399       75.422    23250.710    13782.445     5688.490        9.058        2.136      371.970       74.219        0.040      340.918       15.266      861.666
01/29/2014  09:33:00     -394.574      -85.976       -7.149      239.724      174.476       84.317    57467.570    30441.959     7109.409       12.906        4.751      403.832      108.345        0.072      340.959       15.336      861.636
01/29/2014  09:34:00     -283.063     -120.450        4.627      245.508      153.207       90.396    60274.216    23472.250     8171.376        9.327        4.596      307.624       99.956        0.106      340.998       15.403      861.620
01/29/2014  09:35:00     -352.056     -180.997       -4.376      218.139      178.547      102.705    47584.549    31879.171    10548.377       12.335        4.501      395.857      124.645        0.099      341.000       15.405      861.616
01/29/2014  09:36:00     -398.753     -237.956      -11.372      248.456      171.843       90.548    61730.498    29530.166     8198.934       15.759        4.973      464.357      105.953        0.052      341.010       15.423      861.632
01/29/2014  09:37:00     -286.094     -168.543        1.226      198.538      150.777       82.456    39417.525    22733.728     6799.016        8.959        3.448      332.049      102.638        0.096      341.018       15.434      861.613
01/29/2014  09:38:00     -422.947     -119.510      -31.055      233.990      141.909      101.884    54751.482    20138.102    10380.371       13.969        4.263      439.508      122.113        0.077      341.002       15.408      861.635
01/29/2014  09:39:00     -369.145     -163.724      -19.587      221.971      191.689      109.638    49271.041    36744.758    12020.566       13.073        4.902      403.824      118.592        0.086      341.039       15.472      861.629
01/29/2014  09:40:00     -237.832     -163.168        4.248      167.749      183.387      108.896    28139.889    33630.732    11858.425        7.841        3.681      288.423      118.866        0.170      341.082       15.546      861.639
01/29/2014  09:41:00     -428.753     -225.341      -24.273      244.110      231.686       90.811    59589.532    53678.495     8246.698       17.834        6.076      484.363      101.133        0.044      341.016       15.435      861.598
01/29/2014  09:42:00     -392.808     -116.025      -17.008      212.214      166.283       90.356    45034.663    27650.130     8164.128       12.444        4.042      409.585       86.652        0.045      341.033       15.462      861.565
01/29/2014  09:43:00     -322.100     -196.349       -1.400      222.597      196.388      100.825    49549.202    38568.268    10165.754       12.028        4.914      377.228      110.606        0.086      341.044       15.481      861.586
01/29/2014  09:44:00     -387.436     -273.292       -6.425      207.374      195.059      102.105    43003.855    38047.953    10425.390       15.814        4.574      474.126      102.843        0.047      341.054       15.499      861.597
01/29/2014  09:45:00     -298.692     -217.979       -0.753      224.312      205.450      110.049    50315.984    42209.641    12110.845       12.067        5.232      369.773      118.127        0.102      341.111       15.593      861.608
01/29/2014  09:46:00     -495.510     -263.667      -18.104      200.898      174.134       98.701    40359.806    30322.816     9741.952       19.789        4.021      561.294       94.871        0.029      341.044       15.482      861.615
01/29/2014  09:47:00     -210.678     -132.182       15.032      219.904      205.520      107.375    48357.573    42238.530    11529.469        8.209        5.106      248.712      116.125        0.218      341.129       15.625      861.578
01/29/2014  09:48:00     -477.316     -262.694      -21.700      171.534      228.133      100.803    29423.816    52044.442    10161.160       19.445        4.581      544.830      106.253        0.038      341.052       15.494      861.576
01/29/2014  09:49:00     -512.609     -239.978      -32.407      220.581      189.873       99.655    48656.035    36051.752     9931.069       20.801        4.732      566.001       79.143        0.020      341.079       15.539      861.518
01/29/2014  09:50:00     -280.890     -187.022        0.305      168.602      126.950       85.235    28426.673    16116.318     7265.041        8.283        2.590      337.456       92.660        0.075      341.139       15.641      861.548
01/29/2014  09:51:00     -201.178     -139.199        7.334      192.157      156.669      105.629    36924.330    24545.141    11157.502        6.625        3.631      244.640      114.170        0.218      341.157       15.672      861.512
01/29/2014  09:52:00     -316.370      -78.672      -10.209      255.650      155.378       91.835    65357.177    24142.227     8433.692       10.214        4.897      326.005      105.944        0.106      341.148       15.656      861.490
01/29/2014  09:53:00     -331.096     -158.695      -13.035      190.937      150.200       89.492    36456.909    22560.020     8008.779       10.099        3.351      367.163       80.376        0.048      341.159       15.674      861.516
01/29/2014  09:54:00     -475.976     -221.394      -26.741      183.801      184.515       83.149    33782.832    34045.679     6913.792       17.550        3.737      524.946       81.425        0.024      341.117       15.603      861.507
01/29/2014  09:55:00     -405.086     -208.189      -10.052      238.871      177.740       91.567    57059.376    31591.371     8384.526       15.227        4.852      455.453      109.115        0.057      341.140       15.643      861.535
01/29/2014  09:56:00     -319.487     -174.131        4.060      213.133      171.107       97.507    45425.545    29277.670     9507.532       10.830        4.211      363.860      118.743        0.107      341.186       15.720      861.572
01/29/2014  09:57:00     -509.766     -186.717      -19.066      274.105      196.147      102.942    75133.786    38473.748    10597.105       20.963        6.210      542.885      108.177        0.040      341.136       15.636      861.546
01/29/2014  09:58:00     -414.689     -225.949       -4.634      313.505      240.807      114.121    98285.282    57988.106    13023.668       19.614        8.465      472.250      130.710        0.077      341.157       15.671      861.515
01/29/2014  09:59:00     -432.762     -229.379      -14.542      306.542      254.180      122.376    93967.756    64607.395    14975.764       20.680        8.678      489.793      161.162        0.108      341.180       15.709      861.488
01/29/2014  10:00:00     -337.452     -206.278      -11.039      215.054      127.230       94.505    46248.054    16187.379     8931.189       11.394        3.568      395.506      101.995        0.067      341.152       15.663      861.454
01/29/2014  10:01:00     -222.438     -149.140        1.126      160.656      146.141       86.642    25810.469    21357.067     7506.765        6.319        2.734      267.808       82.858        0.096      341.180       15.709      861.429
01/29/2014  10:02:00     -368.388     -296.358      -28.023      188.206      138.768       92.127    35421.487    19256.438     8487.449       14.373        3.158      472.798       89.831        0.036      341.158       15.673      861.404
01/29/2014  10:03:00     -484.485     -219.709      -13.544      215.345      164.296       90.727    46373.553    26993.211     8231.398       18.238        4.080      531.975      104.136        0.038      341.169       15.692      861.381
01/29/2014  10:04:00     -255.650     -104.366      -17.094      139.591      135.945       78.626    19485.612    18480.975     6182.011        6.034        2.207      276.132       71.939        0.068      341.261       15.849      861.404
01/29/2014  10:05:00     -430.965     -195.172       -8.144      203.323      160.829       87.635    41340.087    25865.995     7679.883       14.938        3.744      473.100       96.815        0.042      341.262       15.850      861.383
01/29/2014  10:06:00     -280.162      -79.152       -1.464      155.006      113.924       63.187    24026.930    12978.576     3992.576        6.287        2.050      291.128       63.601        0.048      341.284       15.887      861.374
01/29/2014  10:07:00     -214.928     -134.314        4.779      125.165      127.366       75.623    15666.260    16222.152     5718.767        5.093        1.880      253.444       65.692        0.067      341.317       15.943      861.331
01/29/2014  10:08:00     -301.754     -215.459      -22.699      219.486      170.096      101.878    48174.298    28932.720    10379.153       11.273        4.374      370.781      109.240        0.087      341.221       15.779      861.260
01/29/2014  10:09:00     -237.338     -141.977       15.309      186.013      165.542       87.632    34600.694    27404.134     7679.339        7.319        3.484      276.563      108.353        0.153      341.258       15.844      861.245
01/29/2014  10:10:00     -328.732     -242.598      -15.134      164.400      111.032       57.277    27027.247    12328.196     3280.624       10.488        2.132      408.557       56.794        0.019      341.204       15.751      861.222
01/29/2014  10:11:00     -223.771     -135.856       18.391      130.886      105.442       61.650    17131.241    11117.974     3800.707        5.045        1.602      261.783       62.107        0.056      341.257       15.841      861.240
01/29/2014  10:12:00     -322.958     -236.056      -19.816      144.036      107.312       63.694    20746.247    11515.789     4056.949        9.836        1.816      400.030       74.489        0.035      341.261       15.847      861.272
01/29/2014  10:13:00     -264.154     -135.926       -5.763      117.950       98.405       54.777    13912.234     9683.602     3000.557        5.744        1.330      297.074       49.421        0.028      341.308       15.928      861.298
01/29/2014  10:14:00     -292.759     -168.376      -10.731      181.723      149.396       84.761    33023.097    22319.190     7184.403        8.834        3.126      337.725       86.828        0.066      341.293       15.902      861.315
01/29/2014  10:15:00     -272.655     -120.220       15.619      169.082      139.773       77.630    28588.733    19536.390     6026.382        7.159        2.708      297.983       78.199        0.069      341.291       15.897      861.350
01/29/2014  10:16:00     -197.083     -122.487        9.916      134.243       93.782       61.116    18021.193     8795.157     3735.115        4.224        1.528      232.045       60.048        0.067      341.306       15.925      861.367
01/29/2014  10:17:00     -323.639     -182.226      -13.002      165.958      134.567       80.043    27541.993    18108.189     6406.811        9.508        2.603      371.414       89.173        0.058      341.220       15.779      861.328
01/29/2014  10:18:00     -393.559     -247.856      -20.828      227.834      138.848       94.761    51908.172    19278.870     8979.693       14.845        4.008      465.104      100.410        0.047      341.211       15.762      861.269
01/29/2014  10:19:00     -423.374     -254.766      -21.413      235.258      180.863       87.345    55346.333    32711.259     7629.220       17.013        4.784      494.117       80.869        0.027      341.183       15.716      861.217
01/29/2014  10:20:00     -379.025     -249.679       -4.927      220.074      129.527       77.619    48432.732    16777.133     6024.723       13.862        3.562      453.872       90.993        0.040      341.188       15.725      861.190
01/29/2014  10:21:00     -307.793     -114.630       -4.048      136.585      123.875       61.381    18655.587    15345.049     3767.661        7.282        1.888      328.445       67.205        0.042      341.236       15.806      861.181
01/29/2014  10:22:00     -350.939     -118.028      -11.035      155.958      133.851       77.049    24322.796    17916.172     5936.477        9.268        2.409      370.255       78.517        0.045      341.227       15.789      861.192
01/29/2014  10:23:00     -159.723     -112.350       10.510      137.704      125.894       71.519    18962.448    15849.249     5115.037        3.908        1.996      195.279       72.883        0.139      341.299       15.913      861.181
01/29/2014  10:24:00     -293.127     -130.096        9.389      172.020      134.756       91.786    29590.730    18159.265     8424.665        7.955        2.809      320.700       93.726        0.085      341.307       15.926      861.151
01/29/2014  10:25:00     -609.723     -319.555      -34.344      225.277      183.788       98.127    50749.900    33778.081     9628.934       28.459        4.708      688.387      103.622        0.023      341.341       15.983      861.089
01/29/2014  10:26:00     -522.824     -313.774      -16.603      209.769      157.092      105.468    44002.904    24677.913    11123.560       22.593        3.990      609.754       98.762        0.026      341.287       15.893      861.129
01/29/2014  10:27:00     -328.580     -162.468        2.922      195.037      152.526       80.052    38039.563    23264.096     6408.304       10.103        3.386      366.553       73.912        0.041      341.298       15.911      861.019
01/29/2014  10:28:00     -312.223     -191.474        1.833      145.132      133.500       78.247    21063.168    17822.262     6122.611        8.957        2.250      366.259       74.425        0.041      341.377       16.045      860.981
01/29/2014  10:29:00     -402.058     -204.030       -5.916      175.982      145.660       83.948    30969.592    21216.967     7047.340       13.126        2.962      450.864       82.890        0.034      341.323       15.953      860.973
01/29/2014  10:30:00     -277.824     -129.568       -0.694      167.238      137.849       81.043    27968.549    19002.469     6567.957        7.375        2.677      306.552       77.177        0.063      341.380       16.050      860.982
01/29/2014  10:31:00     -333.849     -198.088       -5.450      186.230      138.966       92.206    34681.542    19311.417     8501.914       10.660        3.125      388.194      100.733        0.067      341.394       16.072      860.986
01/29/2014  10:32:00     -344.293     -196.043      -13.530      206.269      151.810       91.032    42547.065    23046.335     8286.889       11.550        3.694      396.195      101.432        0.066      341.413       16.104      860.982
01/29/2014  10:33:00     -351.848     -175.078      -20.466      153.466      134.553       78.284    23551.776    18104.616     6128.338       10.132        2.389      393.001       76.296        0.038      341.420       16.117      860.997
01/29/2014  10:34:00     -375.381     -105.746       -1.502      168.808      139.731       79.759    28496.088    19524.729     6361.523       10.323        2.719      389.991       77.744        0.040      341.426       16.127      860.981
01/29/2014  10:35:00     -326.224        8.349      -16.871      224.382      149.941       95.449    50347.149    22482.247     9110.504        9.434        4.097      326.331      115.176        0.125      341.475       16.209      860.915
01/29/2014  10:36:00     -290.324      -93.213       -8.048      185.416      129.196       77.051    34379.042    16691.708     5936.854        7.501        2.850      304.920       80.856        0.070      341.524       16.292      860.893
01/29/2014  10:37:00     -466.784     -235.866      -19.502      274.656      158.311      107.040    75436.049    25062.415    11457.637       19.291        5.598      522.991      116.543        0.050      341.395       16.074      860.824
01/29/2014  10:38:00     -416.424     -201.531      -26.487      229.108      233.376      103.785    52490.393    54464.574    10771.377       16.621        5.886      462.627      114.368        0.061      341.375       16.040      860.789
01/29/2014  10:39:00     -382.186      -81.732        4.869      273.537      184.398      109.145    74822.542    34002.475    11912.549       13.673        6.037      390.828      128.530        0.108      341.419       16.115      860.771
01/29/2014  10:40:00     -451.625     -215.497        7.377      321.691      230.031      121.231   103485.168    52914.365    14697.021       21.075        8.555      500.404      153.427        0.094      341.434       16.140      860.784
01/29/2014  10:41:00     -481.687     -381.629      -25.636      263.829      215.571      122.667    69605.930    46470.872    15047.240       25.470        6.556      614.543      145.023        0.056      341.354       16.006      860.844
01/29/2014  10:42:00     -324.883     -118.910       -7.961      198.394      141.220       74.337    39360.260    19943.141     5526.053        9.228        3.241      345.961       80.615        0.054      341.371       16.034      860.835
01/29/2014  10:43:00     -422.717     -110.835       -1.864      245.663      179.529       96.342    60350.360    32230.715     9281.860       14.640        5.093      437.006      109.169        0.062      341.444       16.156      860.850
01/29/2014  10:44:00     -473.590     -210.647       -9.578      269.291      194.498      114.668    72517.592    37829.617    13148.772       19.610        6.175      518.324      132.531        0.065      341.348       15.994      860.837
01/29/2014  10:45:00     -354.640     -229.985       -9.623      219.124      192.189      101.199    48015.367    36936.557    10241.314       13.696        4.760      422.685      108.254        0.066      341.382       16.054      860.864
01/29/2014  10:46:00     -420.868     -115.668      -35.431      156.570      138.638       73.368    24514.242    19220.425     5382.830       12.043        2.456      436.474       68.107        0.024      341.368       16.028      860.936
01/29/2014  10:47:00     -435.023     -143.158       16.366      273.257      246.189      123.916    74669.649    60609.263    15355.120       18.030        7.532      457.973      126.352        0.076      341.387       16.060      860.909
01/29/2014  10:48:00     -481.946     -252.352      -13.825      299.648      233.581      122.735    89789.060    54560.292    15063.927       22.775        7.971      544.016      149.856        0.076      341.376       16.042      860.956
01/29/2014  10:49:00     -422.842     -258.538        4.458      257.616      210.624      134.681    66366.102    44362.576    18138.895       18.724        6.443      495.618      150.450        0.092      341.312       15.934      860.951
01/29/2014  10:50:00     -581.868     -269.033      -13.946      230.343      156.108       98.265    53057.927    24369.729     9655.968       24.910        4.354      641.053      103.241        0.026      341.296       15.907      860.952
01/29/2014  10:51:00     -561.830     -329.597      -35.374      284.115      228.164      124.914    80721.410    52058.996    15603.458       28.694        7.419      651.373      126.840        0.038      341.325       15.956      860.942
01/29/2014  10:52:00     -545.828     -354.038      -31.067      260.304      221.697      112.514    67758.151    49149.542    12659.424       27.688        6.478      650.594      123.092        0.036      341.292       15.901      860.946
01/29/2014  10:53:00     -445.904     -336.686       -4.628      270.056      208.938      108.986    72930.150    43654.909    11877.907       22.031        6.423      558.737      142.411        0.065      341.309       15.929      860.893
01/29/2014  10:54:00     -379.698     -257.211       -7.608      235.322      166.103      107.948    55376.421    27590.127    11652.745       15.249        4.731      458.615      121.162        0.070      341.399       16.081      860.850
01/29/2014  10:55:00     -379.168     -188.557       11.228      229.020      176.925      101.754    52450.019    31302.498    10353.959       13.676        4.705      423.464      104.613        0.061      341.435       16.141      860.894
01/29/2014  10:56:00     -570.700     -235.023      -24.261      249.774      232.676      113.591    62386.968    54138.068    12902.850       25.545        6.471      617.198      134.711        0.048      341.337       15.977      860.858
01/29/2014  10:57:00     -343.719     -300.135       -1.068      237.812      187.235      106.985    56554.738    35056.981    11445.875       15.562        5.153      456.315      119.407        0.068      341.348       15.995      860.755
01/29/2014  10:58:00     -378.142     -160.645      -12.850      169.349      189.546       80.535    28679.181    35927.525     6485.852       12.002        3.555      410.851       85.501        0.043      341.395       16.075      860.791
01/29/2014  10:59:00     -458.217     -206.268        5.731      248.816      220.946      104.893    61909.482    48817.207    11002.527       18.711        6.086      502.502      108.844        0.047      341.402       16.085      860.784
01/29/2014  11:00:00     -523.228     -247.677      -26.982      260.181      193.609      104.306    67694.273    37484.417    10879.673       22.593        5.803      578.888      117.696        0.041      341.346       15.991      860.806
01/29/2014  11:01:00     -746.411     -412.336      -17.203      300.216      205.939      124.840    90129.937    42411.046    15584.925       43.776        7.406      852.731      135.889        0.025      341.329       15.964      860.770
01/29/2014  11:02:00     -391.170     -154.912        3.004      248.841      201.487       90.363    61921.774    40596.861     8165.492       14.383        5.534      420.728       90.298        0.046      341.471       16.204      860.803
01/29/2014  11:03:00     -417.441     -265.498      -12.644      281.479      234.992      122.836    79230.235    55221.159    15088.663       19.720        7.477      494.718      137.779        0.078      341.473       16.207      860.744
01/29/2014  11:04:00     -169.678      -87.426       26.428      251.948      142.925      101.201    63477.837    20427.505    10241.658        6.562        4.707      190.876      106.520        0.311      341.621       16.457      860.698
01/29/2014  11:05:00     -483.075     -264.002      -33.573      311.511      236.965      122.988    97038.963    56152.486    15125.976       23.622        8.416      550.507      148.104        0.072      341.464       16.191      860.695
01/29/2014  11:06:00     -398.029     -158.369       16.687      294.870      175.526      112.023    86948.306    30809.481    12549.242       15.702        6.515      428.378      134.966        0.099      341.495       16.243      860.691
01/29/2014  11:07:00     -404.916     -256.661        2.576      226.051      206.212      114.720    51099.130    42523.386    13160.626       16.829        5.339      479.408      120.697        0.063      341.464       16.191      860.695
01/29/2014  11:08:00     -380.731     -176.416       -6.986      175.400      135.195       76.857    30765.173    18277.585     5906.991       11.553        2.747      419.617       77.500        0.034      341.435       16.142      860.660
01/29/2014  11:09:00     -273.730     -178.917       22.027      257.055      187.223      101.348    66077.067    35052.491    10271.419       10.939        5.570      327.016      134.242        0.169      341.593       16.410      860.667
01/29/2014  11:10:00     -407.013     -174.664       -6.820      261.688      162.656      104.163    68480.683    26456.845    10849.936       15.098        5.289      442.907      130.157        0.086      341.607       16.433      860.690
01/29/2014  11:11:00     -457.762     -117.327      -11.091      232.657      196.373       99.623    54129.049    38562.392     9924.830       16.301        5.131      472.558      106.372        0.051      341.568       16.367      860.688
01/29/2014  11:12:00     -291.887     -149.776        5.283      163.538      124.289       80.088    26744.568    15447.840     6414.015        7.812        2.430      328.071       75.365        0.053      341.720       16.625      860.748
01/29/2014  11:13:00     -427.625     -278.774       -3.904      210.905      167.888       97.484    44481.029    28186.243     9503.119       17.137        4.109      510.469      107.970        0.045      341.674       16.547      860.776
01/29/2014  11:14:00     -563.782     -293.356      -20.535      262.462      194.949      108.299    68886.431    38005.172    11728.599       26.146        5.931      635.538      121.870        0.037      341.498       16.249      860.791
01/29/2014  11:15:00     -480.595     -156.409      -14.734      266.484      220.534      117.418    71013.755    48635.241    13787.006       19.452        6.672      505.407      126.564        0.063      341.547       16.332      860.729
01/29/2014  11:16:00     -299.884     -138.375       -0.870      251.207      181.425      102.321    63104.776    32914.960    10469.497       10.777        5.324      330.270      126.188        0.146      341.639       16.490      860.687
01/29/2014  11:17:00     -456.674     -300.989       -0.608      239.736      217.595      120.760    57473.249    47347.480    14583.064       20.925        5.970      546.942      140.016        0.066      341.520       16.285      860.706
01/29/2014  11:18:00     -369.359     -168.560       15.374      250.391      183.768      108.197    62695.602    33770.520    11706.566       13.661        5.409      406.003      121.415        0.089      341.535       16.311      860.679
01/29/2014  11:19:00     -504.683     -284.654      -13.070      269.265      221.282      106.147    72503.904    48965.902    11267.110       23.430        6.637      579.424      130.750        0.051      341.552       16.341      860.673
01/29/2014  11:20:00     -532.452     -231.576      -24.267      226.947      233.565      100.648    51505.130    54552.382    10130.027       22.694        5.809      580.631      105.184        0.033      341.534       16.309      860.689
01/29/2014  11:21:00     -703.954     -427.092      -35.847      287.211      260.120      125.998    82489.999    67662.610    15875.399       42.261        8.301      823.383      148.308        0.032      341.459       16.184      860.649
01/29/2014  11:22:00     -543.950     -303.645      -30.523      288.515      228.476      114.860    83241.057    52201.446    13192.789       26.880        7.432      622.963      118.709        0.036      341.463       16.189      860.602
01/29/2014  11:23:00     -825.737     -326.832      -40.429      266.445      349.511      121.236    70992.857   122158.079    14698.249       49.904       10.392      888.066      100.042        0.013      341.424       16.125      860.564
01/29/2014  11:24:00     -544.194     -204.945       -5.962      351.416      224.888      131.730   123493.075    50574.504    17352.908       26.477        9.571      581.507      151.725        0.068      341.473       16.206      860.566
01/29/2014  11:25:00     -507.767     -283.083      -41.932      287.158      247.549      117.027    82459.726    61280.478    13695.253       24.855        7.872      581.346      116.618        0.040      341.546       16.328      860.527
01/29/2014  11:26:00     -333.064     -132.761       26.362      223.021      233.266      106.273    49738.393    54413.015    11293.960       12.233        5.772      358.549      118.081        0.108      341.641       16.492      860.592
01/29/2014  11:27:00     -704.244     -224.245      -25.805      368.806      266.376      130.255   136017.728    70956.172    16966.249       38.539       11.197      739.085      164.991        0.050      341.538       16.314      860.573
01/29/2014  11:28:00     -632.127     -252.374      -14.124      358.489      277.474      136.640   128514.332    76991.850    18670.550       34.379       11.209      680.645      159.190        0.055      341.521       16.288      860.500
01/29/2014  11:29:00     -674.506     -436.272      -20.262      365.300      296.956      153.791   133443.732    88183.006    23651.554       44.545       12.264      803.300      175.099        0.048      341.533       16.306      860.493
01/29/2014  11:30:00     -550.167     -267.308      -15.544      354.852      265.379      139.552   125919.755    70425.988    19474.689       29.506       10.791      611.668      179.817        0.086      341.663       16.529      860.488
01/29/2014  11:31:00     -589.248     -366.565      -16.706      359.153      247.973      134.963   128990.661    61490.476    18214.969       34.524       10.435      693.962      166.119        0.057      341.547       16.332      860.497
01/29/2014  11:32:00     -565.711     -283.461       -4.294      417.635      327.659      129.073   174418.890   107360.288    16659.838       34.937       14.922      632.756      183.771        0.084      341.590       16.405      860.446
01/29/2014  11:33:00     -653.157     -175.501      -27.876      477.710      232.296      135.822   228206.608    53961.364    18447.610       37.935       15.031      676.324      193.233        0.082      341.603       16.426      860.477
01/29/2014  11:34:00     -752.555     -393.657      -28.505      345.662      293.584      146.649   119481.964    86191.774    21505.904       47.461       11.359      849.297      149.901        0.031      341.497       16.249      860.438
01/29/2014  11:35:00     -581.668     -437.851      -30.048      301.982      274.305      147.128    91193.253    75243.249    21646.777       35.949        9.404      728.046      163.525        0.050      341.488       16.232      860.437
01/29/2014  11:36:00     -753.112     -517.181      -48.435      379.915      265.383      154.032   144335.132    70427.939    23725.849       53.770       11.924      913.594      167.503        0.034      341.351       16.001      860.321
01/29/2014  11:37:00     -767.234     -390.820       -7.480      343.930      294.837      136.410   118287.560    86928.932    18607.631       48.260       11.191      861.039      161.002        0.035      341.397       16.077      860.332
01/29/2014  11:38:00     -733.549     -422.289      -33.650      368.574      309.603      135.608   135846.534    95853.998    18389.488       48.378       12.505      846.417      154.338        0.033      341.323       15.952      860.220
01/29/2014  11:39:00     -439.740     -207.759       12.238      302.012      229.816      128.811    91211.107    52815.307    16592.243       19.862        8.031      486.348      152.840        0.099      341.459       16.183      860.196
01/29/2014  11:40:00     -544.776     -283.387      -17.832      287.150      230.651      118.084    82454.982    53199.725    13943.838       26.348        7.480      614.075      124.883        0.041      341.511       16.271      860.186
01/29/2014  11:41:00     -329.098     -228.710        1.071      215.258      207.389      107.660    46336.033    43010.315    11590.739       13.076        5.047      400.767      117.834        0.086      341.619       16.455      860.140
01/29/2014  11:42:00     -770.465     -498.968      -15.772      428.789      290.730      161.160   183859.734    84523.934    25972.564       56.855       14.718      917.925      192.422        0.044      341.288       15.893      860.004
01/29/2014  11:43:00     -540.729     -341.291      -11.418      395.401      207.748      113.258   156341.902    43159.213    12827.469       31.063       10.616      639.427      152.930        0.057      341.329       15.962      860.026
01/29/2014  11:44:00     -605.681     -434.993       -2.426      347.428      372.900      147.142   120705.984   139054.470    21650.909       41.870       14.071      745.700      163.585        0.048      341.209       15.759      859.899
01/29/2014  11:45:00     -631.932     -348.245       -1.990      377.340      340.996      157.086   142385.730   116278.194    24676.082       40.193       14.167      721.535      179.924        0.062      341.157       15.670      859.844
01/29/2014  11:46:00     -590.383     -253.048      -13.958      336.820      291.063      144.387   113447.945    84717.859    20847.726       31.586       10.951      642.328      168.099        0.068      341.174       15.701      859.880
01/29/2014  11:47:00     -699.988     -286.397      -24.371      386.699      339.861      168.896   149536.281   115505.403    28525.983       43.304       14.678      756.311      191.528        0.064      341.075       15.533      859.829
01/29/2014  11:48:00     -443.069     -292.591       13.730      297.758      278.667      153.228    88659.606    77655.131    23478.789       23.592        9.490      530.961      163.921        0.095      341.139       15.640      859.811
01/29/2014  11:49:00     -467.423     -254.900      -18.054      263.228      216.179      108.590    69289.035    46733.503    11791.686       20.578        6.391      532.408      113.195        0.045      341.113       15.596      859.819
01/29/2014  11:50:00     -448.642     -284.045       11.692      335.110      312.374      144.601   112298.638    97577.827    20909.372       25.640       11.539      531.000      163.602        0.095      341.198       15.741      859.823
01/29/2014  11:51:00     -506.248     -240.200       -3.716      292.687      255.292      120.413    85665.665    65173.865    14499.299       23.964        8.267      560.342      143.518        0.066      341.146       15.653      859.818
01/29/2014  11:52:00     -321.195     -193.436       15.438      229.048      192.388      107.969    52462.829    37013.201    11657.355       12.096        5.057      374.945      128.205        0.117      341.267       15.859      859.848
01/29/2014  11:53:00     -315.204     -174.212       11.843      265.089      173.251       95.253    70271.951    30016.073     9073.220       11.958        5.468      360.143      113.474        0.099      341.247       15.823      859.840
01/29/2014  11:54:00     -651.514     -416.298       -9.858      379.657      266.075      137.135   144139.542    70796.165    18806.033       41.577       11.687      773.159      161.585        0.044      341.120       15.608      859.826
01/29/2014  11:55:00     -643.912     -412.677      -31.936      299.111      237.634      125.319    89467.460    56469.808    15704.852       37.377        8.082      764.804      138.675        0.033      341.102       15.579      859.809
01/29/2014  11:56:00     -533.335     -327.078       -4.243      354.138      242.246      144.510   125414.010    58683.127    20883.228       29.818       10.249      625.641      187.268        0.090      341.105       15.583      859.823
01/29/2014  11:57:00     -648.523     -276.939      -28.361      276.790      257.568      131.525    76612.836    66341.179    17298.694       32.914        8.013      705.179      129.257        0.034      341.173       15.698      859.833
01/29/2014  11:58:00     -546.404     -352.968      -27.539      326.991      252.583      147.931   106923.326    63798.166    21883.528       30.822        9.630      650.495      169.358        0.068      341.195       15.735      859.841
01/29/2014  11:59:00     -577.890     -346.079      -32.991      346.659      302.411      142.723   120172.245    91452.525    20369.926       34.337       11.600      673.593      167.966        0.062      341.213       15.766      859.788
01/29/2014  12:00:00     -754.981     -370.763      -46.560      339.292      262.883      133.910   115119.085    69107.326    17931.887       45.586       10.108      841.108      158.124        0.035      341.164       15.682      859.836
01/29/2014  12:01:00     -563.853     -375.804       -1.294      312.373      226.828      134.024    97577.139    51451.051    17962.518       31.305        8.350      677.612      157.169        0.054      341.147       15.656      859.834
01/29/2014  12:02:00     -457.491     -284.316      -11.461      319.603      247.353      127.229   102146.144    61183.506    16187.341       23.486        8.976      538.640      164.573        0.093      341.220       15.777      859.804
01/29/2014  12:03:00     -438.848     -246.691       -2.484      333.905      266.088      135.153   111492.274    70803.034    18266.442       22.697       10.028      503.432      156.808        0.097      341.220       15.778      859.785
01/29/2014  12:04:00     -597.545     -362.185       -2.367      310.753      232.100      130.217    96567.388    53870.341    16956.432       32.779        8.370      698.741      137.767        0.039      341.180       15.710      859.767
01/29/2014  12:05:00     -439.580     -398.196       -9.562      238.738      165.599      117.412    56995.977    27423.090    13785.655       22.503        4.910      593.119      119.964        0.041      341.255       15.837      859.806
01/29/2014  12:06:00     -607.096     -364.727      -16.539      309.055      175.203      114.955    95514.824    30695.973    13214.592       32.062        6.971      708.231      138.363        0.038      341.231       15.797      859.804
01/29/2014  12:07:00     -433.898     -190.841       -8.138      266.966      239.436      124.602    71271.070    57329.438    15525.609       18.442        7.206      474.012      149.353        0.099      341.224       15.785      859.808
01/29/2014  12:08:00     -534.102     -372.679      -29.988      267.117      241.047      122.849    71351.731    58103.614    15091.801       28.478        7.227      651.271      131.327        0.041      341.184       15.716      859.815
01/29/2014  12:09:00     -339.708     -218.137        7.777      234.413      192.909      111.977    54949.674    37213.796    12538.824       13.386        5.235      403.715      110.620        0.075      341.199       15.743      859.809
01/29/2014  12:10:00     -499.636     -320.138      -10.346      254.292      189.783      115.560    64664.390    36017.484    13354.141       23.311        5.702      593.401      123.522        0.043      341.162       15.679      859.792
01/29/2014  12:11:00     -393.828     -254.016      -15.922      184.892      181.082       93.990    34185.180    32790.831     8834.111       14.783        3.791      468.641       96.235        0.042      341.162       15.680      859.775
01/29/2014  12:12:00     -329.108     -126.163        2.874      227.992      142.930       81.561    51980.580    20429.093     6652.259       10.164        3.953      352.462       84.963        0.058      341.275       15.871      859.751
01/29/2014  12:13:00     -368.918     -162.073       -8.208      214.106      193.368       96.412    45841.441    37391.240     9295.361       12.747        4.626      402.949      105.020        0.068      341.238       15.809      859.739
01/29/2014  12:14:00     -512.452     -420.885      -22.181      242.343      200.123      114.509    58730.329    40049.298    13112.273       27.605        5.595      663.138      110.931        0.028      341.137       15.637      859.706
01/29/2014  12:15:00     -565.446     -334.034       -6.281      242.109      196.134      110.824    58616.530    38468.728    12281.873       27.034        5.468      656.741      115.625        0.031      341.105       15.584      859.726
01/29/2014  12:16:00     -485.101     -263.668      -28.605      300.764      230.372      105.200    90459.087    53071.251    11067.088       23.010        7.730      552.126       88.254        0.026      341.130       15.625      859.733
01/29/2014  12:17:00     -554.995     -345.445       -1.232      370.053      319.176      123.825   136939.536   101873.622    15332.654       34.071       12.707      653.722      160.876        0.061      341.119       15.606      859.599
01/29/2014  12:18:00     -484.021     -244.064        1.623      264.329      222.697      116.122    69870.013    49593.989    13484.295       21.338        6.647      542.073      128.329        0.056      341.122       15.611      859.564
01/29/2014  12:19:00     -473.274     -184.591      -13.911      311.873      232.410       99.061    97265.045    54014.444     9813.073       20.965        8.055      507.998       88.960        0.031      341.114       15.599      859.559
01/29/2014  12:20:00     -633.825     -397.162      -26.714      397.170      266.755      146.153   157743.896    71158.355    21360.786       40.518       12.513      747.978      147.005        0.039      341.004       15.413      859.448
01/29/2014  12:21:00     -560.788     -334.508       -5.808      281.593      247.505      118.491    79294.727    61258.512    14040.197       29.048        7.730      652.977      144.160        0.049      341.001       15.408      859.542
01/29/2014  12:22:00     -459.189     -231.846       -9.784      301.606      272.751      107.007    90966.197    74393.141    11450.585       22.073        8.840      514.400      114.156        0.049      341.013       15.428      859.550
01/29/2014  12:23:00     -566.770     -287.027      -21.175      327.304      274.494      113.195   107128.194    75347.060    12813.202       29.964        9.764      635.305      128.191        0.041      340.940       15.303      859.524
01/29/2014  12:24:00     -566.129     -143.658      -19.335      299.248      208.483      129.754    89549.330    43465.001    16836.052       24.566        7.493      584.072      142.675        0.060      340.888       15.216      859.483
01/29/2014  12:25:00     -630.074     -399.723      -23.719      305.109      292.763      125.805    93091.688    85709.981    15826.914       37.595        9.731      746.171      127.452        0.029      340.769       15.016      859.448
01/29/2014  12:26:00     -407.178     -290.818        3.808      274.020      202.644      128.901    75086.742    41064.490    16615.447       19.155        6.638      500.368      140.270        0.079      340.708       14.912      859.375
01/29/2014  12:27:00     -539.741     -344.103        7.005      372.222      245.314      154.250   138548.978    60179.060    23793.200       31.611       11.126      640.099      194.903        0.093      340.625       14.771      859.335
01/29/2014  12:28:00     -396.683     -173.780       14.462      306.973      231.506      113.223    94232.414    53595.224    12819.449       17.418        8.032      433.079      136.201        0.099      340.694       14.889      859.312
01/29/2014  12:29:00     -573.735     -375.968       -8.626      304.247      245.735      134.421    92566.174    60385.879    18069.093       32.078        8.551      685.947      148.346        0.047      340.606       14.739      859.269
01/29/2014  12:30:00     -614.486     -368.435      -45.482      271.395      266.621      125.062    73655.326    71086.854    15640.554       33.787        8.019      716.476      128.115        0.032      340.579       14.694      859.241
01/29/2014  12:31:00     -759.353     -384.393      -40.466      354.986      257.281      119.186   126015.359    66193.746    14205.384       46.618       10.321      851.102      127.890        0.023      340.562       14.666      859.222
01/29/2014  12:32:00     -691.951     -344.018      -18.118      289.377      270.733      136.153    83739.286    73296.257    18537.742       38.649        8.779      772.751      152.807        0.039      340.602       14.731      859.240
01/29/2014  12:33:00     -482.667     -298.940      -16.826      330.960      230.629      128.858   109534.463    53189.517    16604.338       25.094        8.966      567.744      151.554        0.071      340.591       14.714      859.240
01/29/2014  12:34:00     -555.304     -242.983       24.440      386.633      281.839      138.350   149484.868    79433.153    19140.742       30.799       12.403      606.137      171.380        0.080      340.557       14.656      859.244
01/29/2014  12:35:00     -632.106     -336.872      -15.578      366.538      300.798      146.231   134349.895    90479.490    21383.392       37.971       12.311      716.269      177.561        0.061      340.535       14.618      859.238
01/29/2014  12:36:00     -755.558     -458.069      -38.051      480.173      338.860      173.913   230565.638   114826.244    30245.864       57.883       18.782      883.569      228.732        0.067      340.508       14.574      859.234
01/29/2014  12:37:00     -704.431     -537.645      -32.476      345.554      316.038      164.949   119407.457    99879.957    27208.025       51.638       12.325      886.163      177.093        0.040      340.474       14.517      859.231
01/29/2014  12:38:00     -491.357     -251.364      -10.703      366.812      293.808      150.280   134550.984    86322.870    22583.976       27.405       12.173      551.920      192.122        0.121      340.542       14.631      859.252
01/29/2014  12:39:00     -518.082     -300.745       -4.821      348.973      292.997      154.812   121782.337    85847.032    23966.691       29.520       11.580      599.047      190.533        0.101      340.495       14.552      859.275
01/29/2014  12:40:00     -436.234     -166.759        4.437      317.811      284.286      130.151   101003.532    80818.256    16939.264       20.841        9.938      467.021      145.624        0.097      340.541       14.629      859.282
01/29/2014  12:41:00     -657.796     -280.174      -24.278      290.886      309.813      139.462    84614.814    95984.063    19449.721       35.588       10.002      714.977      143.275        0.040      340.382       14.361      859.237
01/29/2014  12:42:00     -635.408     -165.095      -24.339      252.183      227.985      125.179    63596.353    51976.961    15669.881       28.140        6.562      656.506      122.829        0.035      340.385       14.366      859.176
01/29/2014  12:43:00     -367.307     -267.044        7.227      348.473      268.822      149.002   121433.318    72265.492    22201.551       21.105       10.795      454.122      185.107        0.166      340.430       14.441      859.130
01/29/2014  12:44:00     -560.377     -390.555      -21.732      302.672      214.977      135.436    91610.456    46215.243    18342.824       31.157        7.808      683.049      142.496        0.044      340.387       14.370      859.048
01/29/2014  12:45:00     -557.550     -402.351       -7.911      276.141      227.537      139.799    76254.029    51773.108    19543.876       31.017        7.379      687.567      146.209        0.045      340.360       14.324      859.074
01/29/2014  12:46:00     -520.657     -436.889      -20.531      343.784      269.266      148.560   118187.410    72503.950    22070.000       33.753       10.638      679.673      188.409        0.077      340.338       14.287      859.058
01/29/2014  12:47:00     -539.789     -315.518      -16.219      292.419      227.200      118.135    85508.951    51620.022    13955.932       27.111        7.554      625.239      139.450        0.050      340.347       14.301      859.039
01/29/2014  12:48:00     -438.567     -149.708       -3.379      287.425      259.211      128.776    82613.123    67190.168    16583.259       19.055        8.319      463.415      144.832        0.098      340.406       14.402      859.008
01/29/2014  12:49:00     -519.176     -402.319       14.003      309.154      254.695      139.816    95576.455    64869.471    19548.584       30.577        9.000      656.814      157.206        0.057      340.304       14.229      858.970
01/29/2014  12:50:00     -590.008     -308.019       -0.174      327.190      243.950      124.796   107053.401    59511.385    15574.002       31.253        9.107      665.571      128.307        0.037      340.330       14.272      858.973
01/29/2014  12:51:00     -582.420     -337.520       -7.236      299.204      270.322      133.054    89523.007    73073.952    17703.408       31.671        9.015      673.151      135.503        0.041      340.320       14.257      858.944
01/29/2014  12:52:00     -491.449     -253.173       -0.483      378.515      290.469      163.648   143273.521    84372.304    26780.617       27.998       12.721      552.828      192.583        0.121      340.351       14.310      858.896
01/29/2014  12:53:00     -671.609     -426.398      -37.058      321.424      274.043      136.768   103313.173    75099.707    18705.578       41.565        9.856      795.534      156.550        0.039      340.332       14.276      858.884
01/29/2014  12:54:00     -640.052     -227.782      -34.239      272.792      303.336      125.661    74415.355    92012.643    15790.777       32.244        9.111      679.376      137.218        0.041      340.358       14.319      858.903
01/29/2014  12:55:00     -645.516     -398.751      -28.135      347.481      269.834      159.320   120743.279    72810.586    25382.838       39.767       10.947      758.745      155.267        0.042      340.328       14.267      858.841
01/29/2014  12:56:00     -482.019     -254.226       -4.794      323.638      235.994      126.473   104741.320    55693.264    15995.446       23.668        8.822      544.952      128.239        0.055      340.366       14.335      858.825
01/29/2014  12:57:00     -555.678     -273.329      -23.608      329.794      206.936      119.942   108763.885    42822.403    14386.055       27.498        8.299      619.263      152.284        0.060      340.338       14.285      858.805
01/29/2014  12:58:00     -440.200     -239.251      -13.699      267.275      190.658      126.082    71435.805    36350.317    15896.747       18.742        6.184      501.016      126.198        0.063      340.379       14.355      858.807
01/29/2014  12:59:00     -407.666     -152.108       28.401      289.746      267.642      135.269    83952.602    71632.050    18297.615       18.198        8.694      435.119      142.769        0.108      340.365       14.331      858.773
01/29/2014  13:00:00     -595.446     -362.096       -5.763      391.889      336.129      142.969   153577.049   112982.704    20440.233       38.630       14.350      696.900      197.831        0.081      340.364       14.331      858.710
01/29/2014  13:01:00     -807.912     -339.305      -36.519      303.499      290.479      121.392    92111.422    84378.327    14735.994       48.017        9.561      876.270      153.106        0.031      340.276       14.182      858.661
01/29/2014  13:02:00     -597.072     -301.068      -14.695      344.573      260.715      148.087   118730.458    67972.394    21929.899       32.796       10.432      668.683      172.042        0.066      340.266       14.164      858.652
01/29/2014  13:03:00     -350.618     -200.474       11.971      301.668      174.132       96.213    91003.807    30321.983     9256.979       14.690        6.529      403.885      120.978        0.090      340.424       14.431      858.703
01/29/2014  13:04:00     -838.999     -191.620      -32.575      408.472      321.158      154.886   166849.003   103142.720    23989.522       51.779       14.699      860.603      205.706        0.057      340.318       14.253      858.643
01/29/2014  13:05:00     -730.345     -256.895      -21.833      386.745      296.024      119.841   149571.657    87629.966    14361.926       42.568       12.578      774.209      162.836        0.044      340.294       14.212      858.611
01/29/2014  13:06:00     -427.166     -243.164       -4.663      268.391      254.790      117.932    72033.916    64918.184    13907.957       19.622        7.543      491.528      132.352        0.073      340.384       14.365      858.649
01/29/2014  13:07:00     -471.247     -233.758      -18.296      266.687      261.244      134.114    71122.114    68248.449    17986.517       21.718        7.868      526.038      131.995        0.063      340.364       14.331      858.631
01/29/2014  13:08:00     -502.410     -289.811        9.065      351.790      295.968      153.737   123756.235    87597.329    23634.913       28.570       11.749      580.005      178.313        0.095      340.317       14.251      858.630
01/29/2014  13:09:00     -461.105     -345.755      -11.220      259.700      226.472      116.561    67444.318    51289.496    13586.431       23.228        6.616      576.337      138.493        0.058      340.371       14.341      858.690
01/29/2014  13:10:00     -377.354     -285.311        4.257      301.375      195.106      109.759    90826.692    38066.291    12047.143       18.235        7.047      473.073      131.679        0.077      340.428       14.438      858.687
01/29/2014  13:11:00     -597.195     -278.199        8.724      341.744      285.010      153.623   116788.942    81230.841    23599.936       32.783       11.081      658.815      175.014        0.071      340.336       14.283      858.693
01/29/2014  13:12:00     -486.950     -386.939       -3.028      306.353      218.177      136.158    93851.911    47601.014    18539.025       27.339        8.000      621.966      164.570        0.070      340.379       14.356      858.696
01/29/2014  13:13:00     -773.597     -499.871      -41.792      305.646      233.101      146.699    93419.760    54335.951    21520.729       50.964        8.464      921.045      130.787        0.020      340.336       14.283      858.672
01/29/2014  13:14:00     -669.265     -350.382       -3.284      365.333      280.673      148.108   133468.130    78777.336    21935.860       40.240       11.709      755.436      173.577        0.053      340.309       14.238      858.633
01/29/2014  13:15:00     -618.006     -450.463      -34.198      301.548      271.685      150.577    90931.289    73812.690    22673.359       38.669        9.371      764.754      154.415        0.041      340.333       14.279      858.623
01/29/2014  13:16:00     -588.696     -415.818       -9.801      305.147      277.555      151.856    93114.797    77036.996    23060.281       35.636        9.661      720.741      159.321        0.049      340.336       14.283      858.558
01/29/2014  13:17:00     -442.872     -276.798       -8.718      232.596      190.580      115.502    54101.028    36320.728    13340.652       18.828        5.188      522.257      125.848        0.058      340.366       14.334      858.569
01/29/2014  13:18:00     -658.009     -355.603        2.620      315.507      265.579      154.901    99544.588    70532.429    23994.366       37.672        9.704      747.951      183.001        0.060      340.305       14.231      858.543
01/29/2014  13:19:00     -566.734     -319.882        1.100      292.622      284.654      142.582    85627.726    81027.908    20329.611       30.522        9.349      650.778      147.138        0.051      340.238       14.117      858.504
01/29/2014  13:20:00     -573.261     -415.425       -6.907      408.616      315.475      171.304   166966.922    99524.718    29344.987       39.850       14.792      707.959      212.708        0.090      340.224       14.094      858.414
01/29/2014  13:21:00     -513.909     -254.456      -26.839      249.784      222.770      110.111    62392.247    49626.340    12124.352       22.684        6.207      573.455       87.579        0.023      340.230       14.103      858.448
01/29/2014  13:22:00     -528.378     -271.469      -26.556      262.988      197.028      111.471    69162.456    38820.022    12425.851       23.698        6.020      594.036      115.560        0.038      340.236       14.114      858.492
01/29/2014  13:23:00     -428.225     -165.371      -14.333      268.866      244.586      139.832    72288.828    59822.461    19553.054       18.127        7.583      459.047      154.766        0.114      340.319       14.253      858.451
01/29/2014  13:24:00     -484.284     -281.855      -16.182      251.462      208.370      104.589    63233.050    43418.020    10938.813       21.589        5.879      560.333      120.612        0.046      340.239       14.119      858.489
01/29/2014  13:25:00     -338.671     -201.688       16.699      298.796      156.047      114.110    89278.785    24350.544    13021.104       14.113        6.333      394.178      130.466        0.110      340.328       14.268      858.526
01/29/2014  13:26:00     -612.108     -348.880      -30.119      313.599      262.838      122.817    98344.135    69083.870    15083.913       33.988        9.126      704.552      162.514        0.053      340.256       14.147      858.531
01/29/2014  13:27:00     -309.009     -229.906       -2.766      208.936      181.319      101.590    43654.123    32876.426    10320.569       11.759        4.343      385.154      105.572        0.075      340.363       14.330      858.544
01/29/2014  13:28:00     -558.885     -254.848      -13.383      246.225      188.939      112.836    60626.829    35698.004    12731.881       24.325        5.453      614.247      111.675        0.033      340.362       14.328      858.540
01/29/2014  13:29:00     -500.932     -297.223        2.327      297.022      238.933      126.252    88221.950    57088.775    15939.597       25.024        8.063      582.473      152.038        0.068      340.406       14.401      858.539
01/29/2014  13:30:00     -496.296     -312.820       -4.332      249.523      245.112      114.137    62261.891    60080.059    13027.244       23.975        6.768      586.656       98.666        0.028      340.393       14.380      858.541
01/29/2014  13:31:00     -452.762     -185.942      -10.414      268.226      216.428      106.169    71945.321    46840.936    11271.868       18.485        6.503      489.456      108.126        0.049      340.427       14.437      858.561
01/29/2014  13:32:00     -602.113     -333.175      -18.563      310.528      239.117      127.615    96427.367    57176.998    16285.620       32.186        8.494      688.147      128.212        0.035      340.354       14.313      858.483
01/29/2014  13:33:00     -554.921     -180.239       -5.554      333.707      298.512      139.083   111360.542    89109.712    19344.056       28.010       10.991      583.458      146.878        0.063      340.371       14.342      858.477
01/29/2014  13:34:00     -457.026     -324.458       10.365      308.560      276.922      136.732    95209.331    76685.895    18695.546       25.239        9.530      560.488      156.653        0.078      340.326       14.265      858.427
01/29/2014  13:35:00     -617.197     -352.587        1.226      287.505      249.808      122.129    82658.841    62404.104    14915.605       33.259        7.999      710.809      133.792        0.035      340.333       14.278      858.399
01/29/2014  13:36:00     -652.265     -301.946      -12.889      311.987      282.710      120.031    97335.809    79924.805    14407.358       35.420        9.583      718.763      150.253        0.044      340.333       14.277      858.381
01/29/2014  13:37:00     -668.822     -460.197      -12.371      318.053      225.145      145.373   101157.549    50690.305    21133.222       41.609        8.649      811.852      165.983        0.042      340.269       14.168      858.331
01/29/2014  13:38:00     -521.965     -354.433      -12.574      302.937      220.701      115.525    91770.663    48708.917    13346.121       27.600        7.691      630.928      141.650        0.050      340.343       14.295      858.360
01/29/2014  13:39:00     -464.410     -258.829      -11.615      214.964      231.267      114.950    46209.567    53484.559    13213.522       19.784        5.645      531.666      122.357        0.053      340.424       14.432      858.387
01/29/2014  13:40:00     -536.132     -297.386      -10.152      322.158      243.333      124.051   103786.004    59211.013    15388.632       27.715        8.919      613.087      131.213        0.046      340.382       14.360      858.407
01/29/2014  13:41:00     -403.905     -220.107       -0.964      265.374      205.039      110.464    70423.185    42040.988    12202.390       16.811        6.233      459.985      122.047        0.070      340.487       14.537      858.458
01/29/2014  13:42:00     -493.641     -285.814      -41.115      227.513      196.685      107.647    51762.329    38684.964    11587.867       21.453        5.102      570.413      100.403        0.031      340.363       14.327      858.496
01/29/2014  13:43:00     -485.543     -262.744        7.788      268.397      266.075      141.594    72037.010    70795.975    20048.808       23.384        8.144      552.074      135.608        0.060      340.406       14.402      858.555
01/29/2014  13:44:00     -753.591     -449.768       -6.367      437.369      352.356      163.871   191291.642   124154.793    26853.779       55.621       17.115      877.605      221.125        0.063      340.311       14.240      858.610
01/29/2014  13:45:00     -515.158     -321.336       14.037      329.119      299.798      132.937   108319.003    89878.895    17672.175       29.232       10.794      607.161      168.423        0.077      340.354       14.314      858.622
01/29/2014  13:46:00     -425.122     -311.703        7.440      342.084      292.174      139.144   117021.249    85365.898    19360.925       24.981       11.087      527.150      181.237        0.118      340.327       14.268      858.674
01/29/2014  13:47:00     -289.129     -204.212       -5.864      214.902      155.240       96.966    46183.001    24099.465     9402.410       10.250        3.984      353.974       99.601        0.079      340.454       14.482      858.721
01/29/2014  13:48:00     -520.112     -247.137        1.584      420.811      337.052      130.961   177081.690   113604.050    17150.723       31.966       15.392      575.842      159.501        0.077      340.377       14.352      858.740
01/29/2014  13:49:00     -603.787     -343.998      -19.026      329.859      245.319      139.041   108807.085    60181.338    19332.380       33.576        9.416      694.905      155.209        0.050      340.246       14.130      858.699
01/29/2014  13:50:00     -447.807     -223.031        5.658      260.517      183.054       98.056    67868.997    33508.654     9614.961       18.063        5.550      500.274      105.542        0.045      340.345       14.298      858.714
01/29/2014  13:51:00     -523.146     -345.800      -14.574      268.725      227.365      115.634    72212.966    51695.019    13371.163       26.535        6.864      627.104      111.583        0.032      340.286       14.198      858.776
01/29/2014  13:52:00     -629.047     -342.158      -16.643      305.047      284.273      139.385    93053.743    80811.116    19428.084       35.314        9.665      716.081      132.798        0.034      340.128       13.932      858.684
01/29/2014  13:53:00     -618.476     -356.131        1.406      338.556      287.130      139.348   114619.928    82443.732    19417.965       36.288       10.824      713.682      164.290        0.053      340.071       13.835      858.738
01/29/2014  13:54:00     -589.142     -315.072      -19.588      313.732      239.710      122.203    98427.860    57461.073    14933.559       30.875        8.541      668.101      150.513        0.051      340.094       13.873      858.789
01/29/2014  13:55:00     -446.093     -270.867       -2.781      338.513      249.809      133.381   114590.813    62404.466    17790.624       23.355        9.739      521.888      164.859        0.100      340.174       14.009      858.803
01/29/2014  13:56:00     -638.075     -249.622      -35.156      320.718      235.826      129.964   102860.313    55614.114    16890.653       32.300        8.768      685.165      129.415        0.036      340.125       13.925      858.856
01/29/2014  13:57:00     -542.648     -365.992      -14.140      312.321      240.996      117.212    97544.588    58079.262    13738.761       29.896        8.468      654.536      131.182        0.040      340.124       13.923      858.883
01/29/2014  13:58:00     -446.595     -236.997       -3.940      317.795      259.323      121.349   100993.599    67248.591    14725.591       21.927        9.148      505.583      135.973        0.072      340.088       13.863      858.854
01/29/2014  13:59:00     -442.071     -294.814      -17.497      265.527      254.814      117.508    70504.413    64930.147    13808.021       21.592        7.462      531.358      128.242        0.058      340.091       13.871      858.899
01/29/2014  14:00:00     -448.693     -261.060      -16.564      246.875      165.543       98.966    60947.222    27404.545     9794.342       18.393        4.907      519.113      109.329        0.044      340.084       13.858      858.923
01/29/2014  14:01:00     -568.326     -370.850      -25.987      217.725      222.886      113.680    47404.379    49678.027    12923.235       28.558        5.500      678.619      100.772        0.022      339.950       13.630      858.860
01/29/2014  14:02:00     -438.593     -177.055      -29.304      237.765      144.481       88.598    56532.100    20874.901     7849.554       15.490        4.263      472.982       99.777        0.045      340.073       13.837      858.848
01/29/2014  14:03:00     -349.460     -252.829       15.142      243.913      224.015      122.234    59493.447    50182.574    14941.249       15.542        6.231      431.329      131.699        0.093      340.045       13.791      858.801
01/29/2014  14:04:00     -342.374     -298.542        4.623      242.393      188.830      114.971    58754.371    35656.728    13218.248       15.698        5.381      454.255      111.781        0.061      340.043       13.789      858.773
01/29/2014  14:05:00     -362.832     -261.551       -3.146      218.350      252.621       98.989    47676.659    63817.289     9798.826       16.066        6.065      447.276      111.750        0.062      340.081       13.853      858.815
01/29/2014  14:06:00     -449.396     -236.147        9.003      278.032      224.754      106.794    77301.911    50514.294    11404.983       19.849        6.961      507.663      116.248        0.052      340.053       13.804      858.759
01/29/2014  14:07:00     -464.300     -297.204       -4.296      211.323      192.899      101.711    44657.222    37210.062    10345.140       19.805        4.611      551.275       94.589        0.029      340.098       13.880      858.781
01/29/2014  14:08:00     -373.574     -258.581       -6.229      232.416      217.582      123.719    54017.168    47341.857    15306.344       16.154        5.833      454.337      135.412        0.089      340.126       13.928      858.812
01/29/2014  14:09:00     -422.147     -169.517       -9.205      280.442      264.810      125.940    78647.547    70124.513    15860.768       18.580        8.232      454.911      143.770        0.100      340.138       13.948      858.765
01/29/2014  14:10:00     -575.920     -170.864      -19.214      193.948      218.777      105.718    37615.938    47863.211    11176.302       22.894        4.833      600.732       91.563        0.023      340.021       13.750      858.815
01/29/2014  14:11:00     -395.093     -287.544        0.637      265.316      197.055      110.271    70392.487    38830.674    12159.613       18.006        6.069      488.651      138.494        0.080      340.083       13.854      858.816
01/29/2014  14:12:00     -423.911     -251.900       -6.528      237.429      194.912      116.001    56372.392    37990.716    13456.131       17.549        5.391      493.106      129.060        0.069      340.134       13.940      858.794
01/29/2014  14:13:00     -415.103     -256.568      -23.030      145.765      141.127       78.028    21247.472    19916.770     6088.328       14.295        2.363      487.993       77.011        0.025      340.229       14.100      858.872
01/29/2014  14:14:00     -328.633     -295.597       -1.374      243.394      195.965      108.791    59240.488    38402.095    11835.456       15.241        5.474      442.015      123.773        0.078      340.285       14.196      858.906
01/29/2014  14:15:00     -497.928     -255.635       -1.463      239.530      191.461      107.878    57374.707    36657.227    11637.754       20.946        5.283      559.716      122.430        0.048      340.284       14.194      858.897
01/29/2014  14:16:00     -283.760     -138.196       11.202      191.585      163.421       96.926    36704.682    26706.574     9394.560        8.626        3.640      315.624      105.592        0.112      340.383       14.362      858.982
01/29/2014  14:17:00     -398.832     -322.580      -39.960      240.665      185.866      110.104    57919.674    34546.347    12122.791       18.464        5.229      512.957      121.512        0.056      340.320       14.254      858.989
01/29/2014  14:18:00     -446.590     -210.999       -8.725      277.240      206.460      113.511    76862.137    42625.592    12884.637       18.818        6.619      493.926      140.291        0.081      340.289       14.204      858.943
01/29/2014  14:19:00     -450.017     -211.770      -18.396      215.014      216.886      100.957    46231.059    47039.696    10192.231       17.556        5.173      497.355       99.620        0.040      340.293       14.209      858.971
01/29/2014  14:20:00     -490.766     -240.213       19.605      392.493      232.482      124.191   154050.856    54047.787    15423.511       26.119       11.176      546.401      141.513        0.067      340.189       14.033      858.948
01/29/2014  14:21:00     -392.210     -368.284      -16.325      263.520      244.270      107.430    69442.569    59667.870    11541.260       21.517        7.033      538.017      128.824        0.057      340.201       14.054      858.966
01/29/2014  14:22:00     -507.896     -341.162        7.020      276.455      211.754      126.120    76427.566    44839.554    15906.271       25.576        6.859      611.841      148.620        0.059      340.195       14.044      858.901
01/29/2014  14:23:00     -432.927     -314.455       -0.325      244.320      181.705      114.337    59692.462    33016.781    13073.049       19.603        5.289      535.078      127.337        0.057      340.189       14.033      858.926
01/29/2014  14:24:00     -555.344     -235.441      -14.738      306.604      209.147      126.224    94005.925    43742.559    15932.427       25.884        7.684      603.191      156.739        0.068      340.137       13.946      858.871
01/29/2014  14:25:00     -356.504     -266.924      -12.300      245.507      243.873      107.936    60273.834    59474.004    11650.109       16.492        6.570      445.358      104.863        0.055      340.157       13.979      858.851
01/29/2014  14:26:00     -470.443     -175.250       -9.253      285.225      225.428      106.862    81353.298    50817.960    11419.583       19.783        7.180      502.025      113.564        0.051      340.142       13.954      858.790
01/29/2014  14:27:00     -429.745     -257.485       10.390      236.891      204.883      108.029    56117.344    41976.841    11670.217       18.041        5.488      500.978      113.851        0.052      340.097       13.879      858.708
01/29/2014  14:28:00     -488.653     -298.664       -9.645      327.357      240.591      128.296   107162.848    57883.927    16459.752       25.476        9.075      572.697      140.724        0.060      340.117       13.913      858.707
01/29/2014  14:29:00     -548.641     -476.294        5.843      485.724      303.102      149.284   235928.288    91870.585    22285.613       43.893       17.504      726.542      197.459        0.074      339.993       13.704      858.632
01/29/2014  14:30:00     -532.969     -414.553      -14.553      323.999      291.957      138.612   104975.660    85238.803    19213.181       33.274       10.471      675.211      164.173        0.059      340.063       13.820      858.632
01/29/2014  14:31:00     -534.156     -285.613      -28.763      240.208      208.797       93.302    57699.758    43596.143     8705.299       23.884        5.500      605.720       87.254        0.021      340.112       13.905      858.635
01/29/2014  14:32:00     -439.083     -220.863       16.081      326.468      209.759      124.576   106581.264    43998.747    15519.296       20.394        8.305      491.502      151.168        0.095      340.083       13.856      858.638
01/29/2014  14:33:00     -710.124     -335.129      -22.685      323.569      280.253      162.355   104697.004    78541.640    26359.114       41.331       10.480      785.230      187.950        0.057      339.999       13.714      858.537
01/29/2014  14:34:00     -395.224     -239.136      -11.163      307.016      267.088      143.379    94259.131    71335.908    20557.592       19.980        9.308      461.940      168.204        0.133      340.068       13.830      858.556
01/29/2014  14:35:00     -354.485     -222.984        9.006      224.596      214.235      123.058    50443.544    45896.580    15143.290       14.345        5.574      418.786      118.800        0.080      340.171       14.003      858.593
01/29/2014  14:36:00     -688.593     -386.730      -17.228      328.619      315.185      159.801   107990.581    99341.364    25536.337       42.840       11.643      789.759      186.923        0.056      340.017       13.743      858.541
01/29/2014  14:37:00     -551.668     -330.737       -4.301      332.871      256.493      131.463   110803.018    65788.895    17282.492       30.378        9.694      643.214      143.437        0.050      340.085       13.858      858.537
01/29/2014  14:38:00     -447.035     -208.065       10.650      270.493      210.651      109.124    73166.633    44373.916    11907.999       18.632        6.472      493.083      112.008        0.052      340.070       13.832      858.544
01/29/2014  14:39:00     -392.277     -190.054      -19.146      205.582      178.478       98.771    42263.804    31854.486     9755.721       13.711        4.194      435.892      106.626        0.060      340.093       13.871      858.592
01/29/2014  14:40:00     -475.699     -166.425        8.440      326.572      227.839      134.212   106649.130    51910.779    18012.892       21.529        8.829      503.971      162.281        0.104      340.055       13.806      858.590
01/29/2014  14:41:00     -356.914     -268.812       12.640      296.876      243.270      140.823    88135.139    59180.498    19831.223       18.345        8.357      446.820      160.323        0.129      339.998       13.712      858.570
01/29/2014  14:42:00     -392.524      -67.945        5.282      271.949      173.880       99.931    73956.164    30234.212     9986.218       13.643        5.709      398.361      124.410        0.098      340.076       13.844      858.603
01/29/2014  14:43:00     -351.843     -261.833       20.571      312.507      263.982      122.105    97660.422    69686.321    14909.534       18.748        9.113      438.577      166.374        0.144      340.084       13.857      858.572
01/29/2014  14:44:00     -490.596     -168.356       -5.611      226.883      153.177       98.899    51476.053    23463.311     9781.048       17.688        4.236      518.679      102.549        0.039      340.089       13.866      858.532
01/29/2014  14:45:00     -428.120     -246.185      -26.820      171.520      185.237       83.181    29419.181    34312.720     6919.044       15.762        3.533      493.856       73.883        0.022      340.074       13.840      858.506
01/29/2014  14:46:00     -305.493     -217.118       20.792      234.439      209.968      113.613    54961.653    44086.571    12908.027       12.641        5.598      374.788      130.391        0.121      340.192       14.040      858.490
01/29/2014  14:47:00     -377.581     -214.404        4.148      241.121      227.411       96.981    58139.398    51715.938     9405.292       15.389        5.963      434.208      125.329        0.083      340.224       14.096      858.551
01/29/2014  14:48:00     -428.348      -46.824      -31.678      220.333      140.389       94.418    48546.743    19708.959     8914.741       13.191        3.859      430.900      108.510        0.063      340.166       13.996      858.551
01/29/2014  14:49:00     -387.002     -134.204       -6.600      226.959      163.300       98.151    51510.565    26666.890     9633.660       12.780        4.391      409.611      106.586        0.068      340.255       14.146      858.478
01/29/2014  14:50:00     -281.168     -199.799        0.557      183.510      149.285       77.724    33675.771    22286.099     6040.977        9.048        3.100      344.928       92.617        0.072      340.361       14.326      858.526
01/29/2014  14:51:00     -338.945     -147.977      -14.204      272.480      171.335       91.121    74245.165    29355.563     8303.041       12.442        5.595      369.839      104.668        0.080      340.246       14.130      858.533
01/29/2014  14:52:00     -492.621     -240.636       -8.511      209.495      157.566       98.056    43888.177    24826.948     9614.997       18.948        3.917      548.252      106.662        0.038      340.251       14.139      858.491
01/29/2014  14:53:00     -514.062     -276.550       -7.828      222.211      196.582      111.782    49377.938    38644.584    12495.120       22.064        5.026      583.729      129.874        0.050      340.211       14.072      858.446
01/29/2014  14:54:00     -597.386     -416.195      -22.410      347.885      254.530      124.786   121024.295    64785.290    15571.515       36.595       10.069      728.071      145.929        0.040      340.094       13.873      858.378
01/29/2014  14:55:00     -416.235     -165.449       20.063      247.779      169.067       94.932    61394.656    28583.640     9012.114       14.999        4.950      447.911       96.081        0.046      340.243       14.126      858.402
01/29/2014  14:56:00     -466.052      -86.754      -14.370      440.420      238.019      126.844   193969.757    56653.079    16089.479       24.578       13.336      474.057      189.700        0.160      340.238       14.118      858.344
01/29/2014  14:57:00     -513.539     -114.231        0.938      228.959      193.367       93.103    52422.115    37390.668     8668.090       18.761        4.924      526.090      112.212        0.045      340.238       14.118      858.374
01/29/2014  14:58:00     -438.561     -198.967      -22.682      238.531      193.112       77.772    56897.150    37292.263     6048.508       16.632        5.012      481.584       88.384        0.034      340.175       14.011      858.340
01/29/2014  14:59:00     -470.677     -335.248       -7.294      273.055      215.871      113.041    74558.862    46600.221    12778.194       23.394        6.697      577.865      114.922        0.040      340.067       13.829      858.329
01/29/2014  15:00:00     -414.960     -235.962       18.317      272.672      181.446      107.676    74349.928    32922.477    11594.149       17.352        5.943      477.357      124.476        0.068      340.094       13.875      858.231
01/29/2014  15:01:00     -576.942     -173.582      -16.945      344.041      185.242      119.802   118364.464    34314.766    14352.491       26.513        8.352      602.489      113.441        0.035      340.014       13.738      858.248
01/29/2014  15:02:00     -495.697     -240.389       -5.863      283.440      234.024      121.716    80338.454    54767.264    14814.849       22.670        7.496      550.911      140.257        0.065      340.011       13.733      858.215
01/29/2014  15:03:00     -555.293     -313.362      -10.488      237.793      237.597      123.785    56545.449    56452.327    15322.800       26.747        6.416      637.609      128.341        0.041      339.972       13.668      858.183
01/29/2014  15:04:00     -516.228     -289.218      -18.940      292.707      275.196      135.755    85677.574    75732.925    18429.381       26.514        8.992      591.725      152.123        0.066      339.893       13.534      858.189
01/29/2014  15:05:00     -352.199      -44.596       14.818      267.591      177.461      103.871    71604.767    31492.460    10789.101       12.005        5.694      355.011      119.785        0.114      339.959       13.646      858.212
01/29/2014  15:06:00     -632.582     -212.341      -27.272      247.016      218.732      115.385    61016.806    47843.576    13313.602       28.406        6.109      667.269      109.841        0.027      339.820       13.413      858.264
01/29/2014  15:07:00     -439.015     -192.889       -0.443      244.575      233.840      120.527    59816.690    54681.375    14526.652       17.946        6.451      479.521      127.482        0.071      339.863       13.484      858.305
01/29/2014  15:08:00     -498.983     -305.378       -7.095      256.232      215.600      128.896    65655.085    46483.561    16614.080       23.550        6.438      585.012      141.877        0.059      339.816       13.405      858.254
01/29/2014  15:09:00     -547.328     -407.285      -25.870      272.354      207.715      110.322    74176.684    43145.712    12170.913       29.778        6.475      682.238      132.143        0.038      339.843       13.449      858.212
01/29/2014  15:10:00     -781.683     -405.804      -48.858      236.880      228.474      102.095    56112.087    52200.333    10423.319       44.839        5.937      880.742      100.469        0.013      339.765       13.318      858.245
01/29/2014  15:11:00     -588.946     -220.488      -26.758      249.814      234.969      109.891    62407.025    55210.199    12076.037       26.292        6.485      628.866      133.377        0.045      339.837       13.440      858.265
01/29/2014  15:12:00     -365.054     -206.249      -12.824      248.688      143.867       95.789    61845.943    20697.581     9175.490       13.383        4.586      419.289      105.649        0.063      339.986       13.692      858.308
01/29/2014  15:13:00     -418.895     -315.275        5.780      281.001      205.710      109.154    78961.429    42316.602    11914.666       20.403        6.660      524.282      144.004        0.075      339.918       13.578      858.307
01/29/2014  15:14:00     -462.067     -333.960       -7.419      225.557      188.726      105.655    50876.166    35617.664    11163.000       21.136        4.883      570.118      109.361        0.037      339.860       13.479      858.226
01/29/2014  15:15:00     -504.983     -281.607        7.692      260.662      171.382      114.595    67944.824    29371.949    13132.111       22.239        5.522      578.196      143.134        0.061      339.839       13.444      858.250
01/29/2014  15:16:00     -341.488     -157.868       -6.814      183.323      146.824       76.478    33607.503    21557.283     5848.953       10.129        3.051      376.213       84.332        0.050      339.880       13.513      858.250
01/29/2014  15:17:00     -402.400     -240.622       -8.943      264.500      198.969       98.854    69960.074    39588.815     9772.079       16.959        5.966      468.854      116.084        0.061      339.820       13.412      858.267
01/29/2014  15:18:00     -400.966     -272.675       -4.902      236.074      198.758      101.879    55730.879    39504.852    10379.304       17.036        5.281      484.898      129.088        0.071      339.835       13.438      858.264
01/29/2014  15:19:00     -459.345     -194.765       12.237      299.400      215.928      111.770    89640.495    46624.912    12492.445       19.889        7.438      498.930      121.594        0.059      339.868       13.493      858.271
01/29/2014  15:20:00     -331.807     -204.522      -13.626      200.604      141.347       90.240    40241.923    19978.926     8143.310       11.023        3.418      389.776       94.317        0.059      339.864       13.487      858.273
01/29/2014  15:21:00     -250.210     -100.645       15.488      187.870      136.592       76.015    35295.185    18657.405     5778.230        6.634        2.987      269.694       78.720        0.085      339.973       13.669      858.253
01/29/2014  15:22:00     -322.805     -151.218        1.885      241.296      154.956      102.558    58223.941    24011.361    10518.190       10.990        4.638      356.469      112.144        0.099      339.918       13.578      858.238
01/29/2014  15:23:00     -677.237     -261.733       -1.989      353.223      267.462      141.581   124766.790    71535.856    20045.274       37.172       10.817      726.054      184.324        0.064      339.845       13.453      858.194
01/29/2014  15:24:00     -483.364     -290.233      -16.259      245.463      194.100      109.320    60251.951    37674.757    11950.969       21.399        5.494      563.805      107.960        0.037      339.818       13.409      858.183
01/29/2014  15:25:00     -397.569     -290.364      -29.298      245.863      174.447      107.539    60448.557    30431.775    11564.706       17.282        5.122      492.313      108.328        0.048      339.837       13.440      858.152
01/29/2014  15:26:00     -457.789     -311.220      -30.858      212.386      154.473       96.709    45107.807    23861.774     9352.583       19.284        3.916      553.559       99.771        0.032      339.815       13.402      858.104
01/29/2014  15:27:00     -533.367     -291.512      -11.356      250.043      186.875       99.535    62521.545    34922.334     9907.250       23.845        5.368      607.832      106.868        0.031      339.831       13.430      858.117
01/29/2014  15:28:00     -623.906     -439.325      -15.546      319.828      245.531      133.967   102290.071    60285.447    17947.179       38.148        9.026      763.063      147.125        0.037      339.771       13.330      858.068
01/29/2014  15:29:00     -459.777     -313.928        9.409      349.099      227.985      161.241   121869.840    51977.181    25998.819       25.491        9.992      556.727      185.166        0.111      339.866       13.490      858.065
01/29/2014  15:30:00     -371.552     -254.571      -17.156      241.445      151.428      104.794    58295.450    22930.378    10981.872       14.766        4.610      450.397      113.387        0.063      339.877       13.508      858.074
01/29/2014  15:31:00     -261.155     -178.747       10.806      212.625      183.020       92.837    45209.183    33496.343     8618.678        9.378        4.366      316.468      117.374        0.138      339.939       13.612      858.067
01/29/2014  15:32:00     -347.690     -161.385        6.165      204.597      189.709       97.913    41859.915    35989.421     9586.964       11.719        4.372      383.319      102.557        0.072      339.940       13.615      858.073
01/29/2014  15:33:00     -569.800     -293.541      -14.138      300.287      272.176      120.697    90172.045    74079.580    14567.791       29.490        8.941      640.966      133.475        0.043      339.803       13.384      858.042
01/29/2014  15:34:00     -304.238     -128.434        9.823      169.288      169.870       89.977    28658.480    28855.659     8095.831        8.737        3.280      330.236       99.658        0.091      339.895       13.538      858.067
01/29/2014  15:35:00     -502.272     -220.414      -20.157      261.610      166.319       83.247    68439.734    27662.147     6930.002       20.213        5.152      548.507      109.126        0.040      339.764       13.318      858.026
01/29/2014  15:36:00     -372.384     -248.893       16.146      309.450      213.842      124.498    95759.016    45728.517    15499.719       17.891        7.849      447.904      146.395        0.107      339.777       13.339      858.026
01/29/2014  15:37:00     -500.541     -259.759      -12.177      314.111      234.470      135.352    98665.898    54976.137    18320.052       24.503        8.598      563.930      155.495        0.076      339.687       13.188      858.069
01/29/2014  15:38:00     -300.790     -178.266       13.635      205.831      176.271      102.643    42366.299    31071.608    10535.551       10.319        4.199      349.647       98.834        0.080      339.734       13.267      858.115
01/29/2014  15:39:00     -570.494     -208.098      -16.099      322.998      252.492      150.144   104327.675    63752.405    22543.333       27.979        9.531      607.263      168.801        0.077      339.616       13.068      858.077
01/29/2014  15:40:00     -470.506     -259.422      -21.276      363.694      221.894      133.661   132273.506    49236.879    17865.298       24.422        9.969      537.285      172.173        0.103      339.587       13.019      858.044
01/29/2014  15:41:00     -513.225     -110.116      -30.684      290.181      204.539      129.659    84204.935    41836.137    16811.362       20.964        7.143      524.905      137.499        0.069      339.585       13.016      858.035
01/29/2014  15:42:00     -543.745     -195.170      -36.878      271.670      194.491       99.660    73804.412    37826.663     9932.113       22.832        6.078      577.710      110.037        0.036      339.566       12.984      858.071
01/29/2014  15:43:00     -553.607     -302.529      -25.383      288.992      239.215      104.356    83516.641    57223.995    10890.242       27.511        7.582      630.876       93.540        0.022      339.531       12.924      858.051
01/29/2014  15:44:00     -517.795     -251.765       -7.526      290.849      243.901      118.776    84593.382    59487.455    14107.730       24.484        7.909      575.758      144.297        0.063      339.496       12.867      858.104
01/29/2014  15:45:00     -476.941     -235.058       -9.895      407.000      247.370      129.891   165648.624    61191.975    16871.557       26.323       12.186      531.719      158.754        0.089      339.508       12.886      858.027
01/29/2014  15:46:00     -497.742     -324.611        8.976      366.292      262.237      140.552   134170.074    68768.192    19754.893       28.791       11.135      594.238      169.522        0.081      339.441       12.772      858.036
01/29/2014  15:47:00     -663.098     -355.032      -16.566      408.772      271.874      140.311   167094.377    73915.254    19687.079       41.332       13.035      752.161      175.817        0.055      339.364       12.644      858.016
01/29/2014  15:48:00     -550.659     -314.592       -9.428      373.653      311.988      164.626   139616.256    97336.421    27101.635       33.312       13.203      634.187      191.607        0.091      339.438       12.769      858.015
01/29/2014  15:49:00     -518.697     -355.285      -25.630      307.996      241.164      144.596    94861.743    58160.051    20908.073       28.490        8.696      628.709      165.310        0.069      339.382       12.674      858.080
01/29/2014  15:50:00     -422.125     -152.598       10.812      251.471      206.110      111.750    63237.459    42481.307    12488.170       15.988        5.910      448.860      119.848        0.071      339.431       12.756      858.081
01/29/2014  15:51:00     -352.280     -116.244        6.891      223.011      177.283      118.306    49733.909    31429.246    13996.207       11.639        4.758      370.963      129.265        0.121      339.444       12.779      858.100
01/29/2014  15:52:00     -484.217     -247.682       -4.625      290.758      221.989      128.983    84540.457    49278.923    16636.739       22.312        7.523      543.886      147.653        0.074      339.376       12.662      858.084
01/29/2014  15:53:00     -584.436     -146.462       -8.072      301.018      257.930      138.927    90612.090    66527.855    19300.770       26.973        8.822      602.509      157.437        0.068      339.334       12.593      858.065
01/29/2014  15:54:00     -730.736     -295.499      -13.789      353.277      226.462      137.167   124804.918    51284.978    18814.832       40.816        9.745      788.223      156.733        0.040      339.229       12.417      858.006
01/29/2014  15:55:00     -443.607     -184.836       -4.530      284.885      237.569      119.302    81159.630    56439.036    14232.877       19.138        7.592      480.574      132.896        0.076      339.292       12.522      858.002
01/29/2014  15:56:00     -388.579     -308.271        0.215      270.255      177.105      116.208    73037.713    31366.278    13504.381       18.195        5.895      496.009      134.614        0.074      339.254       12.460      858.044
01/29/2014  15:57:00     -447.874     -295.043       -9.959      245.370      178.370      116.504    60206.615    31816.019    13573.137       19.665        5.280      536.322      130.852        0.060      339.201       12.368      858.032
01/29/2014  15:58:00     -464.285     -147.510        5.545      270.147      196.323      114.632    72979.562    38542.755    13140.564       18.099        6.233      487.155      122.319        0.063      339.189       12.349      858.002
01/29/2014  15:59:00     -390.428     -164.639       14.455      294.721      224.191      132.530    86860.207    50261.638    17564.175       16.719        7.734      423.721      150.235        0.126      339.179       12.333      857.980
01/29/2014  16:00:00     -659.757     -251.035      -17.468      313.823      304.249      125.916    98484.689    92567.242    15854.879       35.272       10.345      705.902      164.447        0.054      339.045       12.107      857.905
01/29/2014  16:01:00     -512.409     -290.113      -12.157      294.215      243.523      115.847    86562.352    59303.231    13420.465       25.305        7.964      588.837      137.296        0.054      339.000       12.032      857.927
01/29/2014  16:02:00     -483.302     -240.720      -20.646      283.249      199.427      109.217    80229.717    39771.226    11928.259       21.192        6.596      539.932      125.154        0.054      338.992       12.017      857.987
01/29/2014  16:03:00     -557.065     -245.728      -17.360      293.110      184.542      109.269    85913.185    34055.643    11939.672       25.143        6.595      608.854      130.553        0.046      338.959       11.963      858.002
01/29/2014  16:04:00     -416.134     -217.908        7.142      294.130      259.635      132.950    86512.640    67410.550    17675.691       19.612        8.580      469.735      152.380        0.105      338.965       11.973      858.004
01/29/2014  16:05:00     -461.728     -203.956      -13.131      228.310      182.008       98.926    52125.276    33126.859     9786.402       17.499        4.752      504.768      115.950        0.053      338.956       11.958      858.054
01/29/2014  16:06:00     -492.556     -222.224       -6.951      301.231      252.298      118.683    90740.100    63654.366    14085.558       23.023        8.424      540.366      137.485        0.065      338.940       11.929      858.041
01/29/2014  16:07:00     -422.549     -252.294       -7.609      305.940      188.104      107.825    93599.290    35383.104    11626.149       19.141        7.030      492.138      139.169        0.080      338.944       11.936      858.005
01/29/2014  16:08:00     -544.067     -254.126      -27.506      360.969      270.709      142.390   130298.268    73283.494    20274.847       29.256       11.193      600.490      180.762        0.091      338.891       11.848      857.970
01/29/2014  16:09:00     -444.822     -250.814      -17.424      378.132      225.775      108.215   142983.487    50974.370    11710.467       23.334       10.283      510.661      162.681        0.101      338.915       11.888      858.017
01/29/2014  16:10:00     -334.037     -175.474       12.643      279.824      230.104      110.137    78301.502    52947.697    12130.112       14.293        7.169      377.322      121.487        0.104      338.919       11.894      858.067
01/29/2014  16:11:00     -676.416     -412.320      -26.646      336.456      294.741      149.108   113202.704    86872.189    22233.310       42.525       11.115      792.178      168.747        0.045      338.886       11.839      858.055
01/29/2014  16:12:00     -603.366     -318.111      -19.072      305.924      192.793      104.671    93589.561    37169.193    10956.073       30.364        7.086      682.089      129.420        0.036      338.872       11.816      858.099
01/29/2014  16:13:00     -736.731     -227.813      -24.789      387.692      295.158      130.299   150305.379    87118.244    16977.764       42.480       12.720      771.149      175.047        0.052      338.834       11.753      858.129
01/29/2014  16:14:00     -480.330     -157.499       -6.697      281.922      199.446      116.053    79479.928    39778.648    13468.235       19.413        6.636      505.493      114.675        0.051      338.817       11.725      858.168
01/29/2014  16:15:00     -702.491     -457.573      -34.413      354.145      212.637      124.147   125418.950    45214.527    15412.384       44.502        9.302      838.371      156.907        0.035      338.771       11.647      858.137
01/29/2014  16:16:00     -472.189     -225.553      -15.133      309.730      217.073      109.094    95932.620    47120.725    11901.557       21.448        7.748      523.294      132.967        0.065      338.774       11.651      858.133
01/29/2014  16:17:00     -526.187     -179.861       -2.481      258.439      205.658      113.304    66790.765    42295.136    12837.778       21.556        6.096      556.078      127.608        0.053      338.770       11.644      858.144
01/29/2014  16:18:00     -477.973     -196.325        4.000      256.652      248.081      116.242    65870.442    61544.203    13512.196       20.395        7.046      516.722      125.231        0.059      338.775       11.652      858.136
01/29/2014  16:19:00     -497.065     -196.621      -15.885      253.164      251.801      119.647    64092.217    63403.871    14315.461       21.387        7.091      534.540      123.886        0.054      338.765       11.637      858.153
01/29/2014  16:20:00     -516.416     -288.627      -14.839      250.457      204.587      121.067    62728.859    41855.828    14657.235       23.471        5.962      591.601      127.831        0.047      338.734       11.584      858.175
01/29/2014  16:21:00     -452.615     -197.861       -0.028      242.532      183.504      121.453    58821.724    33673.604    14750.730       17.561        5.362      493.973      135.282        0.075      338.740       11.593      858.168
01/29/2014  16:22:00     -300.508     -129.713       10.766      200.017      138.980       93.720    40006.649    19315.383     8783.496        8.766        3.405      327.308      106.098        0.105      338.722       11.563      858.210
01/29/2014  16:23:00     -396.483     -148.148       -0.047      208.920      185.737      101.121    43647.399    34498.129    10225.363       13.374        4.419      423.257      102.981        0.059      338.682       11.494      858.224
01/29/2014  16:24:00     -566.313     -245.648      -15.875      276.713      201.326      119.651    76570.266    40532.139    14316.424       25.634        6.571      617.295      133.945        0.047      338.652       11.445      858.257
01/29/2014  16:25:00     -472.701     -308.191      -24.120      222.848      223.949       92.431    49661.278    50152.979     8543.519       21.367        5.418      564.294      108.227        0.037      338.622       11.396      858.236
01/29/2014  16:26:00     -345.796     -236.781       -3.334      220.026      163.878      105.670    48411.258    26856.023    11166.148       13.103        4.322      419.095      116.671        0.077      338.594       11.348      858.239
01/29/2014  16:27:00     -449.119     -259.124      -15.815      237.333      171.850       85.890    56327.142    29532.517     7377.054       18.115        4.662      518.510       89.182        0.030      338.559       11.289      858.232
01/29/2014  16:28:00     -536.875     -396.623      -32.938      271.564      174.713      108.322    73746.969    30524.774    11733.597       28.130        5.800      667.491      113.634        0.029      338.534       11.249      858.234
01/29/2014  16:29:00     -440.936     -232.699      -11.554      225.393      181.875      101.107    50801.841    33078.416    10222.665       17.139        4.705      498.571      111.943        0.050      338.524       11.232      858.244
01/29/2014  16:30:00     -397.928     -254.465      -20.324      274.932      209.676      107.883    75587.401    43963.817    11638.719       17.733        6.559      472.334      127.919        0.073      338.524       11.231      858.208
01/29/2014  16:31:00     -433.792     -189.627      -13.635      244.807      258.142      108.673    59930.319    66637.397    11809.891       18.133        6.919      473.428      129.214        0.074      338.515       11.216      858.110
01/29/2014  16:32:00     -456.774     -192.857      -15.010      255.263      198.229      101.165    65159.007    39294.737    10234.449       18.036        5.734      495.819      101.558        0.042      338.499       11.189      857.996
01/29/2014  16:33:00     -525.359     -400.555      -20.478      282.164      217.012      137.169    79616.317    47094.295    18815.247       29.117        7.276      660.641      156.571        0.056      338.469       11.137      857.897
01/29/2014  16:34:00     -425.962     -287.829       -7.746      242.150      187.928      119.582    58636.480    35316.859    14299.766       18.628        5.413      514.091      129.289        0.063      338.453       11.111      857.900
01/29/2014  16:35:00     -405.442     -146.593       -9.411      211.918      144.877       85.450    44909.230    20989.247     7301.670       12.957        3.660      431.130       96.144        0.050      338.432       11.075      857.882
01/29/2014  16:36:00     -405.393     -170.958       -1.001      232.941      196.735       91.501    54261.473    38704.584     8372.474       14.744        5.067      439.966      101.296        0.053      338.422       11.057      857.850
01/29/2014  16:37:00     -387.371     -192.753      -12.952      213.106      167.244       85.227    45414.159    27970.460     7263.590       13.400        4.032      432.678       93.136        0.046      338.407       11.034      857.827
01/29/2014  16:38:00     -379.359     -253.111      -10.028      268.205      159.799      112.291    71933.660    25535.595    12609.282       15.906        5.504      456.047      132.288        0.084      338.373       10.976      857.793
01/29/2014  16:39:00     -478.705     -284.367      -18.977      228.737      198.367      109.530    52320.596    39349.580    11996.880       20.701        5.183      556.797      120.806        0.047      338.378       10.985      857.726
01/29/2014  16:40:00     -429.712     -115.890      -13.371      204.127      168.264       99.100    41667.995    28312.671     9820.798       13.902        3.990      445.065       94.805        0.045      338.353       10.943      857.732
01/29/2014  16:41:00     -449.244     -200.195       -3.852      296.547      203.640       96.798    87939.964    41469.451     9369.882       19.032        6.939      491.831      128.836        0.069      338.352       10.943      857.734
01/29/2014  16:42:00     -512.656     -278.206      -29.169      283.328      194.807      114.211    80274.887    37949.677    13044.200       23.615        6.563      583.280      120.595        0.043      338.348       10.936      857.691
01/29/2014  16:43:00     -571.374     -197.626      -39.937      242.907      182.475      108.007    59003.647    33297.299    11665.462       23.553        5.198      604.586      110.095        0.033      338.316       10.882      857.634
01/29/2014  16:44:00     -289.039     -230.596       21.830      193.974      185.840      109.051    37625.991    34536.647    11892.150       11.061        4.203      369.754      115.463        0.098      338.344       10.929      857.550
01/29/2014  16:45:00     -373.950     -101.908       22.614      236.133      186.794      106.421    55758.655    34891.816    11325.532       12.634        5.099      387.587      117.662        0.092      338.344       10.928      857.440
01/29/2014  16:46:00     -353.895     -222.302        4.025      256.136      268.349      126.011    65605.571    72011.428    15878.855       16.406        7.675      417.923      140.901        0.114      338.342       10.927      857.403
01/29/2014  16:47:00     -415.516     -295.164       15.756      278.300      295.607      132.108    77451.125    87383.398    17452.435       22.113        9.114      509.682      155.111        0.093      338.367       10.967      857.315
01/29/2014  16:48:00     -317.328     -248.697       15.788      243.347      206.927      119.149    59217.852    42818.791    14196.417       13.950        5.812      403.171      150.747        0.140      338.353       10.945      857.240
01/29/2014  16:49:00     -501.274     -255.973      -28.840      212.699      162.186      101.654    45241.072    26304.201    10333.490       19.974        4.094      562.848      104.659        0.035      338.322       10.893      857.196
01/29/2014  16:50:00     -280.493     -130.438       -4.198      233.556      127.377       78.181    54548.286    16224.804     6112.324        8.628        3.844      309.338       95.070        0.094      338.330       10.907      857.137
01/29/2014  16:51:00     -306.585     -195.742       -8.140      231.803      149.520       93.144    53732.565    22356.373     8675.888       10.856        4.238      363.743       97.541        0.072      338.313       10.876      857.082
01/29/2014  16:52:00     -323.822     -200.875        3.953      174.719      127.944       96.961    30526.766    16369.794     9401.398       10.075        2.815      381.066      103.171        0.073      338.290       10.839      857.066
01/29/2014  16:53:00     -332.268     -219.086       14.633      267.643      187.646      103.831    71632.831    35211.114    10780.942       13.810        5.881      397.996      124.135        0.097      338.327       10.900      857.142
01/29/2014  16:54:00     -419.531     -207.083      -15.510      227.396      177.532      103.263    51708.924    31517.502    10663.220       15.649        4.694      467.856       85.152        0.033      338.315       10.880      857.243
01/29/2014  16:55:00     -348.172     -207.541        5.772      190.785      161.573       93.928    36398.740    26105.716     8822.537       11.782        3.566      405.336       94.869        0.055      338.309       10.870      857.348
01/29/2014  16:56:00     -501.116     -210.036      -22.462      250.880      187.303      108.170    62940.609    35082.554    11700.726       20.271        5.486      543.353      125.088        0.053      338.318       10.884      857.405
01/29/2014  16:57:00     -280.291     -129.920        3.015      208.636      132.626       88.037    43529.031    17589.617     7750.459        8.215        3.443      308.937       96.218        0.097      338.344       10.929      857.494
01/29/2014  16:58:00     -499.580     -301.738      -20.720      257.504      181.269      112.571    66308.263    32858.560    12672.318       22.643        5.592      583.631      135.774        0.054      338.346       10.932      857.478
01/29/2014  16:59:00     -363.658     -151.734      -20.301      231.923      146.481       87.610    53788.116    21456.789     7675.467       11.929        4.146      394.043      100.845        0.065      338.351       10.941      857.425
01/29/2014  17:00:00     -325.904     -213.039        3.308      201.137      262.497      119.418    40455.969    68904.452    14260.592       13.759        6.181      389.357      119.107        0.094      338.345       10.929      857.319
01/29/2014  17:01:00     -252.174       18.078       -4.340      241.575      117.698       89.876    58358.639    13852.730     8077.732        7.210        4.014      252.821       99.235        0.154      338.369       10.971      857.251
01/29/2014  17:02:00     -298.162      -84.442        5.279      174.267      159.838       89.694    30368.966    25548.067     8045.086        8.000        3.198      309.889       87.100        0.079      338.320       10.888      857.241
01/29/2014  17:03:00     -263.862     -126.308        5.477      176.560      121.231       82.421    31173.462    14696.905     6793.291        6.913        2.633      292.535       88.683        0.092      338.310       10.872      857.207
01/29/2014  17:04:00     -340.967     -117.835        4.103      245.227      173.962       73.067    60136.194    30262.879     5338.764       11.293        4.787      360.754       99.135        0.076      338.307       10.868      857.192
01/29/2014  17:05:00     -270.654     -216.581        2.000      221.075      173.605       95.169    48873.999    30138.820     9057.120       10.410        4.403      346.642      107.158        0.096      338.325       10.897      857.200
01/29/2014  17:06:00     -338.553     -274.797       -8.801      197.449      148.657       96.406    38986.284    22098.963     9294.195       13.028        3.519      436.040      110.287        0.064      338.315       10.881      857.246
01/29/2014  17:07:00     -479.222     -192.783      -30.030      193.753      143.145       87.514    37540.198    20490.458     7658.773       16.669        3.284      516.546       95.562        0.034      338.327       10.901      857.251
01/29/2014  17:08:00     -428.109     -286.542        4.132      300.094      199.897      124.184    90056.624    39958.714    15421.740       20.539        7.272      515.154      141.169        0.075      338.393       11.011      857.240
01/29/2014  17:09:00     -528.178     -158.862      -22.365      275.717      181.339       97.445    76019.835    32883.924     9495.498       21.153        5.920      551.552      122.840        0.050      338.400       11.024      857.217
01/29/2014  17:10:00     -418.700     -193.446      -10.397      229.779      214.025      110.138    52798.494    45806.802    12130.337       16.177        5.537      461.228      124.630        0.073      338.427       11.067      857.204
01/29/2014  17:11:00     -313.567     -123.623       14.842      152.412      158.729       74.245    23229.401    25194.888     5512.333        8.387        2.697      337.056       69.489        0.043      338.434       11.079      857.225
01/29/2014  17:12:00     -320.484     -258.343      -10.823      228.650      184.220      106.049    52280.942    33937.098    11246.384       13.350        4.873      411.645      118.498        0.083      338.431       11.074      857.232
01/29/2014  17:13:00     -329.656     -133.865       -5.346      216.090      230.200      107.624    46694.895    52991.996    11582.903       11.893        5.563      355.799      118.543        0.111      338.427       11.067      857.223
01/29/2014  17:14:00     -396.662     -179.409       -5.372      255.317      222.940      111.906    65186.815    49702.022    12522.952       15.846        6.371      435.348      142.469        0.107      338.390       11.004      857.231
01/29/2014  17:15:00     -406.757     -122.017      -18.018      224.267      207.404       98.253    50295.782    43016.444     9653.629       14.180        5.148      424.664      116.571        0.075      338.394       11.012      857.254
01/29/2014  17:16:00     -462.031     -176.313       -4.881      247.340      204.824       89.907    61176.878    41953.048     8083.285       17.788        5.561      494.529      111.136        0.051      338.370       10.971      857.269
01/29/2014  17:17:00     -445.785     -184.229        6.753      219.571      195.553      109.242    48211.320    38240.781    11933.745       16.553        4.919      482.353      109.830        0.052      338.417       11.050      857.267
01/29/2014  17:18:00     -632.161     -326.505      -28.359      272.389      202.232      108.584    74196.036    40897.960    11790.450       31.694        6.344      711.501      109.993        0.024      338.433       11.078      857.228
01/29/2014  17:19:00     -450.723     -309.667       -9.055      260.549      184.749      126.868    67885.890    34132.301    16095.562       20.860        5.906      546.850      140.387        0.066      338.439       11.087      857.280
01/29/2014  17:20:00     -464.036     -274.153       -8.613      219.892      185.906       94.390    48352.611    34560.860     8909.465       19.118        4.591      538.970       98.375        0.033      338.429       11.070      857.343
01/29/2014  17:21:00     -530.200     -408.256      -26.023      263.620      222.702      145.997    69495.261    49596.386    21315.212       29.441        7.020      669.167      148.804        0.049      338.464       11.129      857.330
01/29/2014  17:22:00     -419.854     -228.546       -7.687      180.378      195.484       76.541    32536.246    38214.177     5858.583       15.258        3.830      478.028       84.139        0.031      338.459       11.121      857.400
01/29/2014  17:23:00     -425.924     -230.525      -10.023      193.303      148.372       91.428    37365.948    22014.257     8359.115       15.119        3.387      484.307       98.205        0.041      338.462       11.126      857.348
01/29/2014  17:24:00     -318.946     -272.754        3.464      269.413      247.106      113.953    72583.501    61061.314    12985.373       16.136        7.332      419.668      150.902        0.129      338.477       11.153      857.322
01/29/2014  17:25:00     -360.154     -247.762       20.514      246.452      217.683      127.184    60738.404    47385.768    16175.670       15.789        6.215      437.146      134.851        0.095      338.468       11.137      857.317
01/29/2014  17:26:00     -508.186     -306.883      -16.105      301.611      196.062      117.107    90968.998    38440.402    13714.146       24.788        7.156      593.659      146.315        0.061      338.486       11.167      857.306
01/29/2014  17:27:00     -447.258     -225.230      -18.471      332.661      205.363      116.454   110663.477    42174.060    13561.620       20.873        8.320      500.767      170.039        0.115      338.497       11.186      857.280
01/29/2014  17:28:00     -440.699     -234.978       -9.545      249.259      207.351      120.542    62129.878    42994.530    14530.390       18.457        5.983      499.430      133.312        0.071      338.466       11.133      857.318
01/29/2014  17:29:00     -530.862     -139.526      -23.895      221.010      191.494       89.161    48845.572    36669.995     7949.772       19.764        4.673      548.892       98.433        0.032      338.437       11.085      857.379
01/29/2014  17:30:00     -275.088     -116.643      -10.336      149.516      127.352       75.405    22354.940    16218.580     5685.954        6.682        2.213      298.796       67.609        0.051      338.446       11.099      857.395
01/29/2014  17:31:00     -330.498     -246.954      -18.858      274.551      163.654      110.254    75378.166    26782.486    12156.048       14.242        5.716      412.572      138.002        0.112      338.433       11.077      857.356
01/29/2014  17:32:00     -377.640     -155.815      -17.173      191.044      182.799      106.512    36497.725    33415.344    11344.869       12.421        4.063      408.522      109.942        0.072      338.431       11.074      857.329
01/29/2014  17:33:00     -466.217     -235.583      -19.302      165.354      139.191       95.538    27342.004    19374.253     9127.589       16.453        2.792      522.358       87.114        0.028      338.419       11.055      857.341
01/29/2014  17:34:00     -213.178     -167.782        6.898      212.501      172.979      112.128    45156.653    29921.810    12572.693        8.063        4.383      271.285      120.630        0.198      338.410       11.039      857.297
01/29/2014  17:35:00     -333.997     -153.557       -8.916      198.057      182.941       90.297    39226.478    33467.533     8153.582       10.802        4.042      367.605      110.267        0.090      338.403       11.027      857.324
01/29/2014  17:36:00     -317.186     -212.316      -11.193      177.927      152.141       93.176    31658.086    23146.975     8681.822       10.464        3.174      381.687       95.431        0.063      338.373       10.977      857.326
01/29/2014  17:37:00     -312.677     -247.517      -12.768      238.908      249.774      106.542    57076.921    62387.101    11351.202       14.498        6.541      398.787      124.032        0.097      338.384       10.997      857.354
01/29/2014  17:38:00     -573.556     -207.668      -29.252      211.941      240.442       97.923    44918.985    57812.529     9588.958       24.262        5.616      609.994       98.028        0.026      338.334       10.911      857.397
01/29/2014  17:39:00     -455.130     -127.838      -24.435      160.147      169.365       93.259    25647.040    28684.587     8697.218       14.355        3.151      472.743       92.407        0.038      338.342       10.925      857.393
01/29/2014  17:40:00     -439.783     -244.245       -9.375      290.697      278.161      117.363    84504.533    77373.388    13774.008       21.437        8.783      503.055      128.785        0.066      338.366       10.964      857.348
01/29/2014  17:41:00     -288.560     -137.128        4.724      261.893      199.265       93.503    68587.768    39706.378     8742.779       10.955        5.852      319.486      106.690        0.112      338.363       10.961      857.382
01/29/2014  17:42:00     -357.535     -168.812      -12.934      272.635      219.855       95.093    74329.803    48336.298     9042.615       14.408        6.585      395.384      117.117        0.088      338.367       10.969      857.376
01/29/2014  17:43:00     -437.145     -265.507      -12.582      202.032      185.503       93.446    40816.979    34411.242     8732.193       17.284        4.198      511.458       98.008        0.037      338.339       10.920      857.383
01/29/2014  17:44:00     -404.846     -197.863        1.182      265.654      186.407      111.508    70572.237    34747.749    12434.067       16.038        5.888      450.611      122.122        0.073      338.329       10.903      857.397
01/29/2014  17:45:00     -428.718     -157.721      -18.967      244.049      167.634      103.834    59559.698    28101.185    10781.399       15.372        4.922      456.810      102.260        0.050      338.324       10.895      857.391
01/29/2014  17:46:00     -419.754     -212.200      -28.881      217.683      188.491      104.179    47385.841    35528.796    10853.270       15.790        4.688      470.343      111.010        0.056      338.333       10.912      857.422
01/29/2014  17:47:00     -353.953     -114.710       16.218      240.897      223.117       98.381    58031.477    49781.382     9678.746       12.808        5.875      372.076      116.415        0.098      338.346       10.932      857.424
01/29/2014  17:48:00     -439.128     -212.036      -12.824      261.892      201.039      111.602    68587.294    40416.659    12455.009       17.969        6.073      487.640      125.863        0.067      338.355       10.947      857.374
01/29/2014  17:49:00     -366.844      -77.573      -10.964      215.735      161.443       99.311    46541.770    26063.961     9862.666       11.158        4.123      374.956      113.462        0.092      338.341       10.924      857.345
01/29/2014  17:50:00     -213.450     -190.794        5.205      251.524      161.827       96.409    63264.081    26188.010     9294.734        9.035        4.937      286.292      111.062        0.150      338.355       10.947      857.319
01/29/2014  17:51:00     -523.798     -168.114      -27.237      249.271      196.786      107.070    62136.123    38724.552    11464.073       20.783        5.616      550.115      121.506        0.049      338.336       10.916      857.265
01/29/2014  17:52:00     -290.180      -45.785        6.081      154.914      155.175       84.105    23998.407    24079.162     7073.644        7.074        2.758      293.770       93.712        0.102      338.325       10.896      857.267
01/29/2014  17:53:00     -289.164     -100.456        0.177      169.564      119.905       76.172    28752.045    14377.211     5802.170        7.131        2.447      306.116       78.578        0.066      338.323       10.894      857.261
01/29/2014  17:54:00     -415.711     -255.067       -5.344      315.308      241.494      121.191    99418.858    58319.581    14687.329       20.514        8.621      487.724      164.425        0.114      338.348       10.934      857.239
01/29/2014  17:55:00     -317.889     -222.116       -9.044      217.418      161.632       95.298    47270.664    26124.940     9081.778       11.646        4.124      387.800      111.154        0.082      338.313       10.878      857.222
01/29/2014  17:56:00     -265.560     -163.282        8.076      253.165      195.621      115.091    64092.465    38267.581    13245.999       10.641        5.780      311.742      151.844        0.237      338.307       10.868      857.182
01/29/2014  17:57:00     -260.193     -193.494        1.113      201.242      179.767       98.821    40498.337    32316.294     9765.557        9.385        4.129      324.254       84.231        0.067      338.309       10.870      857.148
01/29/2014  17:58:00     -296.017      -77.846      -19.367      213.703      157.993       79.138    45669.105    24961.733     6262.897        8.546        3.845      306.082       77.067        0.063      338.315       10.880      857.152
01/29/2014  17:59:00     -256.319     -169.082       27.035      218.052      187.887       98.260    47546.533    35301.514     9655.034        9.375        4.625      307.064      104.449        0.116      338.330       10.904      857.169
01/29/2014  18:00:00     -333.319     -260.020       -5.732      216.597      174.512      100.103    46914.137    30454.425    10020.669       13.305        4.369      422.743      108.245        0.066      338.324       10.895      857.126
01/29/2014  18:01:00     -431.124     -262.557       -6.386      215.918      170.903      102.162    46620.667    29207.871    10437.134       17.054        4.313      504.781      113.302        0.050      338.324       10.895      857.073
01/29/2014  18:02:00     -293.176     -139.373        4.101      165.006      129.254       63.425    27226.893    16706.606     4022.696        7.667        2.398      324.618       70.785        0.048      338.323       10.893      857.049
01/29/2014  18:03:00     -261.805     -191.820       10.119      171.693      145.923       78.979    29478.539    21293.418     6237.684        8.121        2.850      324.556       87.656        0.073      338.328       10.901      857.045
01/29/2014  18:04:00     -283.876     -166.469      -11.850      153.344      158.605       86.037    23514.522    25155.460     7402.450        8.225        2.804      329.085       74.481        0.051      338.330       10.906      857.090
01/29/2014  18:05:00     -365.762     -151.973      -10.196      177.290      147.005       80.406    31431.759    21610.423     6465.144       10.823        2.975      396.078       84.045        0.045      338.328       10.903      857.165
01/29/2014  18:06:00     -536.610     -205.655      -27.456      222.975      164.534       85.899    49717.991    27071.382     7378.559       20.757        4.208      574.669       96.577        0.028      338.329       10.903      857.211
01/29/2014  18:07:00     -244.464     -141.404        1.251      154.084      122.806       72.183    23741.730    15081.300     5210.345        6.189        2.202      282.414       81.698        0.084      338.345       10.931      857.257
01/29/2014  18:08:00     -435.681     -225.799      -18.210      233.508      214.879      106.621    54525.913    46173.156    11368.106       17.658        5.603      490.717      118.340        0.058      338.356       10.949      857.244
01/29/2014  18:09:00     -331.460     -157.284       -0.246      228.631      132.550       81.657    52271.962    17569.535     6667.882       10.554        3.825      366.884       89.358        0.059      338.338       10.919      857.225
01/29/2014  18:10:00     -371.733     -241.387      -14.197      228.881      176.603      101.011    52386.533    31188.595    10203.274       14.520        4.689      443.230      109.180        0.061      338.334       10.913      857.196
01/29/2014  18:11:00     -234.467     -111.645       21.356      203.620      115.711       86.267    41461.277    13388.939     7441.928        6.508        3.115      259.691      109.228        0.177      338.358       10.953      857.152
01/29/2014  18:12:00     -390.054     -216.954        7.531      216.762      160.784       88.482    46985.853    25851.588     7828.977       13.995        4.033      446.330       96.072        0.046      338.365       10.964      857.123
01/29/2014  18:13:00     -464.314     -227.075      -16.523      248.183      146.936       93.815    61594.745    21590.091     8801.272       17.969        4.599      516.866      110.592        0.046      338.388       11.003      857.150
01/29/2014  18:14:00     -436.651      -72.893      -37.080      222.087      165.482       94.780    49322.687    27384.183     8983.313       14.151        4.285      442.693       97.973        0.049      338.391       11.006      857.204
01/29/2014  18:15:00     -335.236     -142.634       12.351      245.041      143.754       95.639    60044.990    20665.272     9146.862       11.135        4.493      364.318       99.886        0.075      338.404       11.028      857.258
01/29/2014  18:16:00     -412.652     -200.766      -28.487      209.807      153.474       93.402    44018.857    23554.378     8723.887       14.384        3.815      458.899      100.523        0.048      338.393       11.010      857.274
01/29/2014  18:17:00     -307.563     -151.190      -11.374      231.217      162.626       96.311    53461.523    26447.369     9275.723       10.337        4.459      342.715      117.780        0.118      338.420       11.056      857.253
01/29/2014  18:18:00     -318.353     -128.847      -19.716      222.716      226.845      103.668    49602.415    51458.506    10747.153       11.505        5.590      343.439      112.610        0.108      338.425       11.065      857.216
01/29/2014  18:19:00     -416.315     -183.073       -8.830      187.806      169.575       83.083    35270.935    28755.696     6902.721       13.891        3.546      454.790       85.697        0.036      338.396       11.016      857.192
01/29/2014  18:20:00     -283.035      -96.805      -15.700      179.986      126.520       70.542    32395.066    16007.432     4976.122        7.154        2.669      299.132       84.999        0.081      338.407       11.034      857.151
01/29/2014  18:21:00     -246.057     -113.163        2.279      237.982      186.425      115.899    56635.225    34754.411    13432.689        8.907        5.241      270.832      120.616        0.198      338.442       11.092      857.135
01/29/2014  18:22:00     -179.450      -82.967        3.046      199.734      169.066       81.650    39893.811    28583.155     6666.711        5.711        3.757      197.702      111.292        0.317      338.459       11.123      857.144
01/29/2014  18:23:00     -424.191     -227.878      -14.052      191.192      126.051       80.558    36554.453    15888.758     6489.631       14.549        2.947      481.525       87.909        0.033      338.420       11.057      857.107
01/29/2014  18:24:00     -280.265      -77.298       10.858      205.368      113.950       74.043    42176.095    12984.531     5482.354        7.263        3.032      290.730       99.183        0.116      338.426       11.067      857.097
01/29/2014  18:25:00     -386.831     -154.190      -10.259      211.617      153.701       95.603    44781.599    23624.030     9140.004       12.552        3.877      416.429      104.849        0.063      338.419       11.054      857.086
01/29/2014  18:26:00     -326.850     -134.155      -17.206      179.417      166.929      101.470    32190.480    27865.404    10296.134        9.773        3.518      353.311      102.345        0.084      338.441       11.090      857.012
01/29/2014  18:27:00     -301.641     -161.929       -9.494      127.595      130.465       60.743    16280.440    17021.098     3689.732        7.714        1.850      342.357       58.807        0.030      338.435       11.081      857.026
01/29/2014  18:28:00     -415.631     -157.111      -22.992      197.027      136.033       69.935    38819.701    18504.863     4890.854       13.008        3.111      444.334       79.014        0.032      338.435       11.079      857.055
01/29/2014  18:29:00     -246.323      -98.297       14.510      177.930      158.895       78.533    31658.916    25247.590     6167.468        6.680        3.154      265.211      103.882        0.153      338.465       11.132      857.135
01/29/2014  18:30:00     -259.492     -159.939        4.383      230.396      199.387      104.625    53082.219    39755.277    10946.453        9.834        5.189      304.822      117.715        0.149      338.439       11.088      857.168
01/29/2014  18:31:00     -284.652     -110.559       -7.826      152.376      145.900       80.300    23218.390    21286.731     6448.087        7.212        2.548      305.369       74.474        0.059      338.435       11.079      857.173
01/29/2014  18:32:00     -310.676     -143.347        0.995      193.355      190.786       94.202    37386.229    36399.242     8873.938        9.985        4.133      342.152       88.428        0.067      338.435       11.081      857.159
01/29/2014  18:33:00     -257.898      -96.592        4.923      219.957      140.919       85.009    48381.043    19858.198     7226.541        7.565        3.773      275.393      101.349        0.135      338.461       11.123      857.096
01/29/2014  18:34:00     -286.002     -175.192       -2.815      186.507      156.421       86.931    34784.990    24467.456     7556.990        8.964        3.340      335.395      105.247        0.098      338.450       11.106      857.039
01/29/2014  18:35:00     -228.552     -170.805       -3.602      210.830      161.722      107.188    44449.240    26154.036    11489.180        8.174        4.105      285.325      108.326        0.144      338.453       11.110      856.978
01/29/2014  18:36:00     -369.025     -122.422      -12.597      198.321      146.280       82.161    39331.231    21397.723     6750.409       10.939        3.374      388.801       74.119        0.036      338.413       11.044      856.938
01/29/2014  18:37:00     -257.260      -79.523        5.383      146.114      132.194       68.105    21349.320    17475.198     4638.346        5.799        2.173      269.270       78.534        0.085      338.420       11.055      857.001
01/29/2014  18:38:00     -309.099     -160.399       -5.318      171.681      139.307       88.095    29474.320    19406.473     7760.800        8.896        2.832      348.239       83.844        0.058      338.422       11.059      857.064
01/29/2014  18:39:00     -456.120     -324.041      -17.324      247.586      144.571      103.625    61299.057    20900.918    10738.229       20.313        4.647      559.507      119.532        0.046      338.431       11.074      857.147
01/29/2014  18:40:00     -436.224     -287.591      -13.621      188.287      159.495       84.249    35451.982    25438.762     7097.849       17.058        3.399      522.494      101.086        0.037      338.446       11.098      857.178
01/29/2014  18:41:00     -395.063     -162.203       -6.379      210.219      204.874       92.507    44191.858    41973.314     8557.532       13.856        4.736      427.065      104.780        0.060      338.430       11.072      857.221
01/29/2014  18:42:00     -304.146     -113.345        5.169      191.428      127.495       85.793    36644.636    16254.987     7360.515        8.281        3.013      324.580       83.500        0.066      338.421       11.058      857.262
01/29/2014  18:43:00     -400.354     -129.725      -27.377      200.487      118.419       86.122    40195.204    14022.966     7417.026       11.974        3.082      420.847       96.874        0.053      338.408       11.035      857.259
01/29/2014  18:44:00     -223.023      -31.600       10.548      141.187      105.026       63.954    19933.904    11030.428     4090.173        4.295        1.753      225.250       64.170        0.081      338.386       10.999      857.255
01/29/2014  18:45:00     -359.622      -97.427        2.657      228.237      198.092       93.380    52091.993    39240.622     8719.885       11.942        5.003      372.586      101.450        0.074      338.381       10.990      857.207
01/29/2014  18:46:00     -409.131     -141.646      -19.172      219.516      158.512       84.216    48187.156    25125.977     7092.259       13.410        4.020      432.957      102.282        0.056      338.423       11.062      857.073
01/29/2014  18:47:00     -367.441     -178.838        3.510      242.116      224.963       84.403    58619.976    50608.425     7123.785       14.166        5.818      408.651       97.770        0.057      338.414       11.047      857.001
01/29/2014  18:48:00     -347.226     -136.344      -21.299      225.696      170.089       84.545    50938.552    28930.198     7147.779       11.330        4.351      373.036      114.379        0.094      338.417       11.050      857.012
01/29/2014  18:49:00     -315.318      -87.272       -6.919      145.398      137.830       75.919    21140.495    18997.120     5763.672        7.649        2.295      327.172       64.564        0.039      338.406       11.031      857.028
01/29/2014  18:50:00     -399.175     -158.060      -18.984      182.593      140.451       74.799    33340.079    19726.553     5594.914       12.166        2.933      429.329       87.844        0.042      338.446       11.098      857.035
01/29/2014  18:51:00     -310.686     -161.476       -5.449      158.413      156.076       77.454    25094.678    24359.719     5999.050        8.903        2.773      350.143       73.673        0.044      338.442       11.093      857.059
01/29/2014  18:52:00     -297.140      -92.177      -10.441      140.752      154.352       81.865    19811.209    23824.473     6701.852        7.361        2.517      311.109       80.145        0.066      338.418       11.052      857.066
01/29/2014  18:53:00     -483.685      -54.996      -20.341      211.236      132.477       83.509    44620.506    17550.285     6973.689       15.326        3.457      486.802      101.817        0.044      338.419       11.053      857.077
01/29/2014  18:54:00     -359.608      -76.755        2.007      184.538      165.247       85.954    34054.334    27306.437     7388.067       10.197        3.437      367.708      102.646        0.078      338.403       11.027      857.114
01/29/2014  18:55:00     -451.436       -2.242      -32.831      126.416      118.580       74.884    15981.057    14061.226     5607.632       12.026        1.782      451.441       64.297        0.020      338.389       11.004      857.169
01/29/2014  18:56:00     -311.834      -26.009       -1.464      183.985      123.484       72.846    33850.542    15248.207     5306.578        7.615        2.720      312.917       72.420        0.054      338.375       10.980      857.189
01/29/2014  18:57:00     -445.557      -81.777      -25.676      173.393      131.493       71.439    30065.125    17290.313     5103.543       12.915        2.623      453.000       75.673        0.028      338.338       10.919      857.195
01/29/2014  18:58:00     -272.813      -66.198       -6.693      109.691      120.928       57.892    12032.183    14623.532     3351.439        5.443        1.500      280.730       60.961        0.047      338.299       10.852      857.185
01/29/2014  18:59:00     -277.700      -81.459       -2.102      181.132      145.232       82.059    32808.747    21092.207     6733.693        7.219        3.032      289.401       92.571        0.102      338.281       10.824      857.120
01/29/2014  19:00:00     -308.911      -86.270      -22.722      171.676      107.049       63.174    29472.807    11459.387     3991.016        7.415        2.246      320.731       62.407        0.038      338.269       10.803      857.109
01/29/2014  19:01:00     -327.214      -33.331      -11.383      160.975      105.472       64.152    25912.932    11124.324     4115.470        7.472        2.058      328.907       65.395        0.040      338.274       10.812      857.105
01/29/2014  19:02:00     -352.912      -63.559      -29.061      114.820      147.095       59.496    13183.711    21637.007     3539.809        8.389        1.918      358.590       50.132        0.020      338.288       10.833      857.098
01/29/2014  19:03:00     -458.575     -102.476      -38.213      161.821      126.636       75.524    26186.106    16036.801     5703.883       13.508        2.396      469.885       79.343        0.029      338.299       10.854      857.098
01/29/2014  19:04:00     -373.660      -91.280      -20.614      122.055      112.322       71.250    14897.356    12616.304     5076.556        9.048        1.630      384.648       64.857        0.028      338.287       10.835      857.082
01/29/2014  19:05:00     -375.348      -55.346      -19.667      131.847      120.072       66.843    17383.596    14417.394     4467.984        9.030        1.813      379.407       59.589        0.025      338.288       10.837      857.122
01/29/2014  19:06:00     -353.072     -118.027        2.360      181.128      154.127       72.441    32807.324    23755.213     5247.756       10.019        3.091      372.277       83.209        0.050      338.300       10.855      857.182
01/29/2014  19:07:00     -377.771      -56.943      -29.964      101.245      131.705       62.931    10250.570    17346.237     3960.321        8.920        1.578      382.038       53.405        0.020      338.275       10.814      857.187
01/29/2014  19:08:00     -289.630      -68.197      -19.229      131.699       86.883       64.811    17344.592     7548.711     4200.524        5.899        1.455      297.550       46.732        0.025      338.259       10.787      857.148
01/29/2014  19:09:00     -289.592      -93.363       -0.159      115.260      107.387       58.838    13284.812    11532.042     3461.916        6.042        1.414      304.270       56.410        0.034      338.236       10.747      857.125
01/29/2014  19:10:00     -393.458     -109.025      -12.589      134.103      136.147       80.564    17983.665    18536.058     6490.479       10.493        2.151      408.284       71.066        0.030      338.246       10.765      857.153
01/29/2014  19:11:00     -526.889     -134.776      -36.555      190.005      123.609       85.722    36101.995    15279.144     7348.238       17.791        2.936      543.853       81.462        0.022      338.277       10.815      857.210
01/29/2014  19:12:00     -435.583      -72.395      -10.962      175.289      183.490       86.756    30726.295    33668.579     7526.636       13.350        3.596      441.558       81.047        0.034      338.299       10.853      857.217
01/29/2014  19:13:00     -431.033     -196.727      -36.637      242.345      202.732      106.516    58731.131    41100.286    11345.733       16.849        5.559      473.805      103.167        0.047      338.329       10.903      857.175
01/29/2014  19:14:00     -443.292      -46.686      -28.312      156.549      125.063       76.048    24507.652    15640.797     5783.268       12.270        2.297      445.744       77.669        0.030      338.303       10.860      857.158
01/29/2014  19:15:00     -320.655      -51.604      -31.039      162.325      123.377       68.867    26349.562    15221.868     4742.641        7.637        2.316      324.781       62.612        0.037      338.274       10.811      857.130
01/29/2014  19:16:00     -474.457     -107.454      -29.939      163.668      162.162       71.566    26787.370    26296.583     5121.690       14.787        2.910      486.473       68.343        0.020      338.298       10.852      857.161
01/29/2014  19:17:00     -344.170      -41.897      -15.940      167.816      157.087       77.037    28162.113    24676.301     5934.760        8.961        2.939      346.711       76.748        0.049      338.297       10.850      857.201
01/29/2014  19:18:00     -323.667      -72.247      -28.140      152.094      115.360       71.434    23132.668    13307.923     5102.832        7.615        2.077      331.632       74.802        0.051      338.302       10.860      857.240
01/29/2014  19:19:00     -235.779      -65.726       -8.586      157.992      119.370       63.306    24961.557    14249.224     4007.648        5.159        2.161      244.769       72.569        0.088      338.284       10.829      857.265
01/29/2014  19:20:00     -391.077      -97.207      -25.873      121.256      100.085       68.131    14703.119    10017.070     4641.814        9.621        1.468      402.977       65.696        0.027      338.280       10.821      857.307
01/29/2014  19:21:00     -356.234      -72.722      -24.307      129.017      123.495       65.232    16645.485    15250.897     4255.162        8.446        1.808      363.581       54.832        0.023      338.292       10.843      857.364
01/29/2014  19:22:00     -360.223      -69.481      -37.007      112.544       93.411       58.819    12666.218     8725.668     3459.617        8.040        1.243      366.863       40.692        0.012      338.297       10.850      857.438
01/29/2014  19:23:00     -277.485     -156.777       -8.887      103.486       89.103       58.598    10709.330     7939.415     3433.689        6.187        1.104      318.712       45.069        0.020      338.275       10.812      857.477
01/29/2014  19:24:00     -268.473      -85.214      -16.338      106.663      106.247       54.782    11376.936    11288.453     3001.109        5.263        1.283      281.673       47.674        0.029      338.266       10.798      857.433
01/29/2014  19:25:00     -266.055     -105.956       -7.162      147.091      124.979       77.043    21635.845    15619.676     5935.637        6.262        2.160      286.377       76.320        0.071      338.351       10.941      857.345
01/29/2014  19:26:00     -270.562      -66.968       -5.531      162.565      157.285       77.977    26427.286    24738.434     6080.414        6.747        2.862      278.727       80.515        0.083      338.336       10.915      857.314
01/29/2014  19:27:00     -390.846      -18.670      -21.089      149.724      134.169       77.577    22417.232    18001.317     6018.170        9.999        2.322      391.292       79.983        0.042      338.334       10.913      857.329
01/29/2014  19:28:00     -347.937      -74.059      -28.612      174.633      130.742       68.956    30496.692    17093.395     4754.965        8.985        2.617      355.731       81.556        0.053      338.296       10.847      857.338
01/29/2014  19:29:00     -439.529      -17.241      -24.820      221.865      154.973       79.255    49224.216    24016.692     6281.346       13.680        3.976      439.867      103.114        0.055      338.288       10.835      857.363
01/29/2014  19:30:00     -383.125      -91.205      -15.159      165.846      140.999       79.060    27504.834    19880.731     6250.423       10.448        2.682      393.832       86.999        0.049      338.268       10.801      857.390
01/29/2014  19:31:00     -382.667      -30.521      -13.073      180.657      122.333       75.918    32636.801    14965.320     5763.549       10.044        2.668      383.883       83.630        0.047      338.266       10.798      857.417
01/29/2014  19:32:00     -332.109     -126.361      -16.263       89.681      124.632       48.465     8042.687    15533.073     2348.850        7.622        1.296      355.336       33.499        0.009      338.233       10.744      857.422
01/29/2014  19:33:00     -319.397      -25.860      -12.837      163.322      119.112       63.179    26674.092    14187.783     3991.626        7.384        2.243      320.442       69.991        0.048      338.213       10.708      857.417
01/29/2014  19:34:00     -262.369      -96.996       -5.290      114.292       93.226       49.442    13062.641     8691.162     2444.513        5.123        1.210      279.724       53.817        0.037      338.205       10.696      857.362
01/29/2014  19:35:00     -275.490      -49.323      -22.365      118.703       77.979       40.932    14090.338     6080.703     1675.408        5.033        1.092      279.870       46.434        0.028      338.207       10.698      857.313
01/29/2014  19:36:00     -400.826      -63.410      -22.612      101.978       94.376       47.452    10399.471     8906.756     2251.728        9.337        1.078      405.810       43.972        0.012      338.213       10.708      857.326
01/29/2014  19:37:00     -232.275      -55.411       -5.189      113.061       84.688       58.581    12782.881     7172.118     3431.737        4.021        1.169      238.793       61.184        0.066      338.184       10.657      857.426
01/29/2014  19:38:00     -325.153      -65.212      -15.802      110.310       88.843       56.428    12168.238     7893.035     3184.143        6.673        1.162      331.628       51.944        0.025      338.186       10.663      857.517
01/29/2014  19:39:00     -310.882      -22.278      -22.694       89.753       99.232       54.500     8055.546     9846.904     2970.233        5.926        1.044      311.680       50.105        0.026      338.165       10.626      857.558
01/29/2014  19:40:00     -269.349      -96.891       -8.463      112.368       94.221       55.923    12626.539     8877.663     3127.333        5.332        1.232      286.246       58.696        0.042      338.162       10.623      857.597
01/29/2014  19:41:00     -271.935     -105.222      -17.753       68.847       74.445       50.928     4739.943     5542.128     2593.649        4.910        0.644      291.582       41.149        0.020      338.141       10.586      857.634
01/29/2014  19:42:00     -214.833       27.433      -26.549       80.182       84.558       49.979     6429.219     7150.026     2497.873        3.184        0.804      216.578       41.337        0.036      338.129       10.567      857.622
01/29/2014  19:43:00     -214.949      -58.550      -31.124       99.618      120.818       58.680     9923.763    14597.056     3443.371        3.928        1.398      222.781       47.235        0.045      338.121       10.554      857.628
01/29/2014  19:44:00     -228.612      -52.925      -28.769       63.719       67.118       38.995     4060.171     4504.840     1520.609        3.299        0.504      234.658       30.726        0.017      338.090       10.501      857.632
01/29/2014  19:45:00     -181.980      -57.263       -9.706       64.827       70.775       35.496     4202.522     5009.171     1259.973        2.348        0.524      190.777       14.017        0.005      338.076       10.480      857.614
01/29/2014  19:46:00     -183.587     -100.436      -13.020       60.106       72.638       37.710     3612.776     5276.231     1422.037        2.713        0.516      209.264       32.389        0.024      338.048       10.434      857.581
01/29/2014  19:47:00     -151.466      -43.344      -13.926       73.338       68.174       41.785     5378.490     4647.731     1745.992        1.839        0.589      157.546       45.117        0.082      338.064       10.460      857.567
01/29/2014  19:48:00     -186.757      -45.554       -5.547       79.520       85.308       43.247     6323.456     7277.443     1870.325        2.623        0.774      192.233       39.686        0.043      338.052       10.440      857.571
01/29/2014  19:49:00     -302.233      -65.742      -32.904       60.851       60.421       39.619     3702.824     3650.687     1569.701        5.283        0.446      309.301       31.520        0.010      338.089       10.499      857.551
01/29/2014  19:50:00     -256.276      -52.087      -12.783       80.017       78.419       36.414     6402.761     6149.478     1325.949        4.121        0.694      261.515       30.803        0.014      338.041       10.420      857.515
01/29/2014  19:51:00     -226.354      -58.026      -11.464      106.085       94.122       49.489    11253.950     8858.871     2449.139        3.864        1.128      233.673       48.860        0.044      338.048       10.433      857.468
01/29/2014  19:52:00     -181.956      -24.714       -9.676       64.832       83.827       36.135     4203.131     7027.000     1305.738        2.317        0.627      183.627       30.710        0.028      338.036       10.413      857.463
01/29/2014  19:53:00     -276.962      -53.060      -17.286      107.056       74.599       46.408    11460.934     5565.020     2153.715        4.950        0.959      281.999       50.894        0.033      338.036       10.412      857.488
01/29/2014  19:54:00     -229.762      -92.292      -14.738       78.771       63.219       37.215     6204.831     3996.619     1384.952        3.655        0.579      247.606       26.712        0.012      338.032       10.402      857.504
01/29/2014  19:55:00     -241.635      -49.241       -1.277      115.882       68.747       43.536    13428.584     4726.177     1895.362        4.043        1.003      246.601       47.078        0.036      338.047       10.432      857.503
01/29/2014  19:56:00     -177.051      -60.623       -8.696       77.849       66.855       38.540     6060.482     4469.573     1485.330        2.355        0.601      187.143       33.767        0.033      338.034       10.408      857.497
01/29/2014  19:57:00     -200.152       -5.319      -11.623       89.004       97.381       50.453     7921.670     9482.977     2545.539        3.008        0.998      200.222       52.866        0.070      338.038       10.416      857.504
01/29/2014  19:58:00     -322.029      -51.198      -23.364       78.827       66.999       42.842     6213.705     4488.929     1835.394        5.970        0.627      326.073       30.628        0.009      338.074       10.474      857.511
01/29/2014  19:59:00     -263.031      -65.870      -13.814       60.539      102.652       45.826     3665.009    10537.380     2100.066        4.501        0.815      271.154       31.950        0.014      338.067       10.462      857.513
01/29/2014  20:00:00     -277.633      -70.494       -8.466       94.773       77.639       51.391     8981.850     6027.889     2641.060        4.988        0.883      286.443       38.909        0.018      338.099       10.515      857.481
01/29/2014  20:01:00     -223.193      -75.321      -18.599       69.159      121.584       40.825     4783.033    14782.735     1666.672        3.853        1.062      235.560       31.765        0.018      338.120       10.552      857.467
01/29/2014  20:02:00     -206.555      -25.124       -5.673       92.725       87.894       40.785     8597.994     7725.273     1663.416        3.065        0.899      208.077       38.983        0.035      338.121       10.554      857.469
01/29/2014  20:03:00     -265.440      -73.753      -15.768       71.121       72.501       43.166     5058.153     5256.341     1863.277        4.416        0.609      275.496       39.280        0.020      338.115       10.544      857.474
01/29/2014  20:04:00     -184.614      -35.756       -8.277       58.200       53.301       37.341     3387.265     2841.029     1394.378        2.152        0.381      188.045       33.293        0.031      338.104       10.528      857.487
01/29/2014  20:05:00     -233.563      -41.479      -18.844       67.085       53.798       34.843     4500.433     2894.215     1214.020        3.262        0.430      237.218       30.908        0.017      338.141       10.587      857.492
01/29/2014  20:06:00     -180.436      -75.841      -13.302       56.513       61.691       33.813     3193.666     3805.836     1143.344        2.331        0.407      195.727       35.665        0.033      338.123       10.558      857.483
01/29/2014  20:07:00     -219.506      -31.453      -25.006       60.032       55.093       35.632     3603.870     3035.207     1269.640        2.885        0.395      221.748       32.791        0.022      338.152       10.607      857.452
01/29/2014  20:08:00     -195.810      -37.962      -18.820       80.852       71.706       38.409     6536.989     5141.806     1475.213        2.664        0.658      199.456       31.023        0.024      338.187       10.665      857.407
01/29/2014  20:09:00     -229.111       -7.875      -20.085       64.283       51.299       32.742     4132.307     2631.537     1072.035        3.040        0.392      229.246       30.577        0.018      338.191       10.671      857.378
01/29/2014  20:10:00     -253.734      -16.458      -30.319       80.410       63.284       46.080     6465.783     4004.905     2123.352        3.908        0.630      254.267       49.759        0.038      338.202       10.687      857.389
01/29/2014  20:11:00     -243.736      -40.911      -19.903       51.078       51.608       31.849     2608.996     2663.420     1014.339        3.388        0.314      247.146       19.627        0.006      338.187       10.663      857.465
01/29/2014  20:12:00     -207.417      -74.207      -11.387       60.753       57.615       37.803     3690.957     3319.508     1429.071        2.855        0.422      220.292       32.391        0.022      338.176       10.644      857.547
01/29/2014  20:13:00     -226.463      -40.372      -18.290       73.734       53.942       29.383     5436.699     2909.762      863.367        3.123        0.460      230.033       32.156        0.020      338.186       10.663      857.573
01/29/2014  20:14:00     -192.876      -47.044      -20.842       78.382       38.492       28.719     6143.729     1481.635      824.802        2.415        0.423      198.531       30.410        0.023      338.171       10.641      857.585
01/29/2014  20:15:00     -166.352      -19.558      -13.783       68.956       73.857       39.788     4754.907     5454.813     1583.081        2.002        0.590      167.498       35.787        0.046      338.199       10.687      857.561
01/29/2014  20:16:00     -147.494       78.482      -22.079       51.325       53.093       37.932     2634.256     2818.841     1438.801        1.765        0.345      167.075       23.683        0.020      338.202       10.691      857.551
01/29/2014  20:17:00     -136.800       -0.633      -10.922       83.332       56.909       31.913     6944.279     3238.653     1018.420        1.502        0.560      136.801       38.471        0.079      338.205       10.696      857.569
01/29/2014  20:18:00      -92.518       -9.945       -3.262       71.412       43.549       28.592     5099.631     1896.504      817.508        0.824        0.391       93.051       36.813        0.157      338.192       10.675      857.588
01/29/2014  20:19:00      -79.590       44.476       -7.710       40.795       44.461       26.518     1664.247     1976.800      703.182        0.636        0.217       91.174       20.787        0.052      338.233       10.745      857.625
01/29/2014  20:20:00      -91.526      104.558      -15.176       56.145       62.330       35.117     3152.304     3885.018     1233.199        1.390        0.414      138.958       35.810        0.066      338.269       10.806      857.680
01/29/2014  20:21:00     -110.709       49.169      -19.729       35.437       37.870       20.705     1255.785     1434.145      428.708        0.909        0.156      121.137       13.860        0.013      338.265       10.798      857.717
01/29/2014  20:22:00      -87.872       59.763      -18.563       38.899       47.555       29.075     1513.105     2261.516      845.379        0.813        0.231      106.268       25.235        0.056      338.287       10.835      857.727
01/29/2014  20:23:00     -111.598       99.056      -23.926       52.595       56.923       29.567     2766.235     3240.220      874.195        1.486        0.344      149.218       25.008        0.028      338.231       10.742      857.708
01/29/2014  20:24:00     -163.734      123.415      -14.673      105.280       77.787       82.654    11083.801     6050.783     6831.681        3.311        1.198      205.037       68.531        0.112      338.146       10.597      857.668
01/29/2014  20:25:00     -312.680      133.361      -51.750      108.308       59.380       46.069    11730.656     3525.982     2122.394        6.780        0.869      339.932       32.642        0.009      338.029       10.399      857.650
01/29/2014  20:26:00     -168.382      111.073      -11.204       95.989       88.853       53.963     9213.824     7894.857     2911.987        3.041        1.001      201.717       41.430        0.042      338.009       10.366      857.670
01/29/2014  20:27:00     -219.228       51.165      -18.475       74.424       83.473       40.812     5538.884     6967.782     1665.613        3.259        0.709      225.120       40.623        0.033      337.975       10.312      857.663
01/29/2014  20:28:00     -203.435      140.686      -27.569      129.383       70.156       57.764    16740.065     4921.828     3336.623        4.346        1.250      247.343       60.796        0.060      338.032       10.405      857.682
01/29/2014  20:29:00     -186.091       67.778      -18.607       92.372       53.367       45.825     8532.523     2848.000     2099.938        2.652        0.674      198.050       53.997        0.074      337.978       10.316      857.718
01/29/2014  20:30:00     -162.134       60.325      -18.906       72.069       64.378       37.050     5194.002     4144.501     1372.709        2.050        0.536      172.992       44.796        0.067      337.983       10.324      857.737
01/29/2014  20:31:00     -154.889       58.932      -23.104       73.009       63.814       34.690     5330.355     4072.179     1203.394        1.930        0.530      165.721       35.427        0.046      337.961       10.289      857.750
01/29/2014  20:32:00     -104.290       84.196       -3.675       70.892       70.531       43.206     5025.683     4974.643     1866.748        1.492        0.593      134.035       40.201        0.090      337.947       10.266      857.754
01/29/2014  20:33:00     -172.382       49.196      -13.752      126.660       69.144       44.806    16042.740     4780.923     2007.577        2.757        1.142      179.265       50.521        0.079      337.896       10.177      857.765
01/29/2014  20:34:00     -104.625      -28.032       -1.405       76.285       72.116       44.420     5819.327     5200.696     1973.148        1.236        0.650      108.315       34.325        0.100      337.881       10.154      857.787
01/29/2014  20:35:00     -160.287       32.614      -31.271       77.648       74.071       37.776     6029.197     5486.513     1427.048        2.034        0.647      163.572       36.072        0.049      337.854       10.107      857.797
01/29/2014  20:36:00     -146.784      104.180      -15.747       85.295       72.136       46.559     7275.260     5203.657     2167.714        2.364        0.732      179.997       50.453        0.079      337.831       10.070      857.800
01/29/2014  20:37:00     -135.175      152.913       -8.605      116.414       83.511       57.780    13552.211     6974.146     3338.571        3.279        1.193      204.095       63.271        0.096      337.854       10.106      857.798
01/29/2014  20:38:00     -194.741       87.409      -31.957       95.946       80.087       44.114     9205.603     6413.883     1946.027        3.207        0.878      213.459       41.251        0.037      337.857       10.111      857.806
01/29/2014  20:39:00      -79.874       37.048       -8.667       64.582       73.242       37.892     4170.829     5364.415     1435.797        0.940        0.549       88.048       17.848        0.041      337.868       10.132      857.804
01/29/2014  20:40:00     -122.417       36.635      -16.068       61.638       48.883       39.262     3799.229     2389.513     1541.506        1.216        0.387      127.781       41.136        0.104      337.874       10.142      857.785
01/29/2014  20:41:00     -107.589      -28.887       -1.771       46.717       59.296       35.787     2182.476     3516.025     1280.692        0.969        0.349      111.400       25.747        0.053      337.842       10.088      857.758
01/29/2014  20:42:00     -113.135        6.464      -15.778       58.600       58.158       27.461     3433.903     3382.371      754.093        1.033        0.379      113.319       27.816        0.060      337.792       10.006      857.747
01/29/2014  20:43:00     -106.800       40.448      -15.562       67.883       71.908       30.659     4608.074     5170.777      939.993        1.200        0.536      114.203       29.893        0.069      337.745        9.926      857.741
01/29/2014  20:44:00     -114.431       56.481      -15.412       60.345       59.362       25.987     3641.533     3523.826      675.322        1.218        0.392      127.611       22.590        0.031      337.684        9.825      857.732
01/29/2014  20:45:00     -124.122       10.172      -17.215       31.808       46.728       19.599     1011.769     2183.464      384.107        0.969        0.179      124.538       20.217        0.026      337.668        9.798      857.735
01/29/2014  20:46:00     -162.262       47.552      -17.629       71.306       44.617       30.571     5084.550     1990.718      934.611        1.845        0.400      169.086       31.543        0.035      337.631        9.733      857.746
01/29/2014  20:47:00     -191.308       73.291      -25.095       64.871       34.910       25.125     4208.288     1218.728      631.269        2.433        0.303      204.867       13.553        0.004      337.614        9.705      857.767
01/29/2014  20:48:00      -50.162       74.139        2.695       78.604       67.906       34.686     6178.620     4611.180     1203.153        1.000        0.600       89.515       29.056        0.105      337.663        9.789      857.804
01/29/2014  20:49:00      -13.628      319.362      -26.400       70.321      113.473       46.360     4945.067    12876.037     2149.217        6.142        0.999      319.653       52.203        0.027      337.518        9.543      857.816
01/29/2014  20:50:00     -171.780       65.905      -25.123      104.334       93.244       63.791    10885.567     8694.481     4069.330        2.906        1.182      183.988       64.578        0.123      337.513        9.536      857.828
01/29/2014  20:51:00     -148.735       84.212      -14.503      121.408       71.632       41.833    14740.003     5131.202     1750.024        2.552        1.081      170.921       51.610        0.091      337.396        9.339      857.809
01/29/2014  20:52:00     -121.908      124.340      -26.787       65.217      100.539       48.461     4253.238    10108.086     2348.517        2.387        0.835      174.132       54.708        0.099      337.341        9.248      857.789
01/29/2014  20:53:00     -113.027      142.152      -22.618       48.885       92.228       33.646     2389.736     8506.073     1132.029        2.276        0.601      181.610       21.987        0.015      337.350        9.262      857.765
01/29/2014  20:54:00      -45.120      107.779       -3.938       51.174      108.232       35.233     2618.796    11714.201     1241.372        1.462        0.779      116.843       27.698        0.056      337.326        9.224      857.764
01/29/2014  20:55:00      -59.936      107.380      -19.352       53.105       56.456       28.833     2820.142     3187.320      831.334        1.117        0.342      122.974       22.337        0.033      337.294        9.171      857.786
01/29/2014  20:56:00      -42.966      120.374      -15.385       68.940       70.010       43.941     4752.745     4901.368     1930.813        1.408        0.579      127.812       39.884        0.097      337.198        9.009      857.803
01/29/2014  20:57:00      -44.772      105.926        7.640       88.754      109.485       64.748     7877.203    11986.920     4192.281        1.867        1.203      115.000       31.795        0.076      337.221        9.049      857.811
01/29/2014  20:58:00      -61.908      101.146      -14.312       48.624       50.923       31.362     2364.280     2593.193      983.554        1.010        0.297      118.588       24.998        0.044      337.196        9.008      857.824
01/29/2014  20:59:00      -43.338       74.737      -12.754       37.130       35.401       29.937     1378.647     1253.243      896.210        0.558        0.176       86.394       22.581        0.068      337.204        9.019      857.836
01/29/2014  21:00:00      -96.445      121.932      -15.261       62.666       69.939       39.694     3927.010     4891.431     1575.638        1.740        0.520      155.464       37.646        0.059      337.184        8.986      857.847
01/29/2014  21:01:00     -102.035      194.771      -13.201       74.826      102.056       53.118     5598.951    10415.513     2821.537        3.368        0.942      219.879       52.626        0.057      337.107        8.856      857.855
01/29/2014  21:02:00      -93.547      205.944      -31.693       79.684       87.349       46.839     6349.462     7629.805     2193.935        3.417        0.809      226.195       39.397        0.030      337.093        8.832      857.866
01/29/2014  21:03:00     -137.130      401.803      -50.466      134.367      147.540       63.702    18054.365    21768.032     4057.941       11.333        2.194      424.559       61.487        0.021      336.978        8.639      857.900
01/29/2014  21:04:00      -71.347      352.567      -35.000       95.864      144.062       68.662     9189.975    20753.885     4714.480        8.263        1.733      359.713       62.138        0.030      336.904        8.515      857.924
01/29/2014  21:05:00     -173.131      275.229      -45.728      110.999      109.397       58.082    12320.745    11967.791     3373.552        6.773        1.383      325.154       46.851        0.021      336.858        8.439      857.970
01/29/2014  21:06:00      -91.956      350.717      -47.297       86.774      118.633       54.881     7529.785    14073.885     3011.916        7.915        1.231      362.572       48.824        0.018      336.807        8.353      857.965
01/29/2014  21:07:00     -142.581      245.677      -13.966      102.776      136.159       75.447    10562.843    18539.355     5692.269        5.783        1.740      284.054       75.590        0.071      336.800        8.342      857.980
01/29/2014  21:08:00     -185.841      370.212      -51.732       99.500      116.934       59.756     9900.258    13673.532     3570.780       10.070        1.357      414.238       52.010        0.016      336.769        8.289      857.991
01/29/2014  21:09:00     -171.358      378.667      -56.967       97.989      113.408       67.169     9601.779    12861.392     4511.680       10.148        1.349      415.635       47.216        0.013      336.729        8.223      857.970
01/29/2014  21:10:00     -217.098      387.302      -57.990       84.038      128.840       64.436     7062.323    16599.837     4152.030       11.415        1.391      443.998       56.312        0.016      336.672        8.129      857.974
01/29/2014  21:11:00     -101.059      314.749      -26.124      109.561      145.984       62.168    12003.603    21311.379     3864.901        7.356        1.859      330.575       69.817        0.045      336.665        8.117      857.981
01/29/2014  21:12:00      -93.296      173.128       -9.244      120.296      145.710       66.044    14471.071    21231.296     4361.799        3.941        2.003      196.666       69.966        0.127      336.695        8.168      857.984
01/29/2014  21:13:00     -137.775      202.057      -29.773      105.267       99.224       47.318    11081.176     9845.440     2239.036        4.193        1.158      244.559       41.314        0.029      336.658        8.106      858.030
01/29/2014  21:14:00     -110.485      219.248      -24.358       56.954      106.277       51.815     3243.781    11294.798     2684.765        3.904        0.861      245.513       50.655        0.043      336.631        8.060      858.029
01/29/2014  21:15:00     -172.472      282.558      -44.792      115.653      124.190       52.608    13375.707    15423.072     2767.611        7.157        1.578      331.037       24.184        0.005      336.598        8.005      858.021
01/29/2014  21:16:00     -193.306      254.825      -23.669      110.878      145.539       81.706    12293.854    21181.722     6675.903        7.150        2.008      319.849       74.463        0.054      336.578        7.971      858.024
01/29/2014  21:17:00      -69.518      324.972      -19.283      109.441      148.462       73.664    11977.369    22040.909     5426.421        7.512        1.972      332.325       74.192        0.050      336.556        7.935      858.009
01/29/2014  21:18:00     -136.086      368.389      -39.415       98.405      146.653       71.934     9683.579    21507.149     5174.560        9.607        1.818      392.721       71.413        0.033      336.519        7.871      858.002
01/29/2014  21:19:00     -192.390      393.322      -50.404      148.163      175.024       89.040    21952.255    30633.245     7928.082       12.738        3.026      437.854       84.417        0.037      336.469        7.786      858.004
01/29/2014  21:20:00     -135.497      240.960      -27.961      113.619      132.416       76.194    12909.261    17533.945     5805.462        5.672        1.812      276.443       74.296        0.072      336.453        7.762      858.039
01/29/2014  21:21:00     -157.849      356.115      -38.269      111.321      152.068       79.727    12392.299    23124.628     6356.419        9.753        2.094      389.531       71.619        0.034      336.418        7.701      858.058
01/29/2014  21:22:00     -188.008      338.659      -52.447      104.980      145.485       66.817    11020.742    21166.019     4464.519        9.471        1.833      387.346       48.769        0.016      336.403        7.677      858.084
01/29/2014  21:23:00     -154.885      346.101      -39.175      140.301      134.769       62.743    19684.452    18162.787     3936.719        9.354        2.089      379.177       71.021        0.035      336.382        7.641      858.094
01/29/2014  21:24:00     -120.712      256.844      -29.796       83.522      145.476       53.395     6975.999    21163.406     2850.999        5.620        1.550      283.796       59.288        0.044      336.387        7.650      858.060
01/29/2014  21:25:00      -49.613      310.821      -24.218      174.879      178.691       93.972    30582.832    31930.342     8830.784        8.549        3.567      314.756       99.541        0.100      336.344        7.579      858.001
01/29/2014  21:26:00     -107.778      302.103      -33.549      120.006      139.080       61.845    14401.464    19343.229     3824.842        7.078        1.878      320.753       59.123        0.034      336.319        7.538      858.015
01/29/2014  21:27:00      -91.813      360.648      -37.063      124.643      164.460       66.814    15535.871    27047.121     4464.080        9.345        2.352      372.151       75.705        0.041      336.254        7.428      857.985
01/29/2014  21:28:00       76.254      218.538       19.715      116.171      144.982       85.610    13495.628    21019.772     7329.095        4.790        2.092      231.460       85.183        0.135      336.211        7.359      857.955
01/29/2014  21:29:00      -69.543      408.426      -48.759       92.995      170.117       67.891     8648.149    28939.860     4609.208       10.810        2.110      414.305       83.637        0.041      336.157        7.266      857.959
01/29/2014  21:30:00      -73.624      249.940      -16.455       70.610      100.840       50.593     4985.739    10168.658     2559.635        4.293        0.886      260.558       48.396        0.034      336.190        7.323      857.970
01/29/2014  21:31:00     -119.086      252.040      -32.480      122.469      116.406       72.458    14998.761    13550.449     5250.175        5.627        1.690      278.758       69.850        0.063      336.150        7.256      858.009
01/29/2014  21:32:00      -95.354      388.285      -36.114      101.459      151.407       62.474    10293.968    22924.206     3903.018        9.914        1.856      399.822       71.246        0.032      336.101        7.174      857.983
01/29/2014  21:33:00     -114.002      275.452      -28.171      169.248      181.873       79.876    28644.920    33077.827     6380.121        7.887        3.405      298.111       85.912        0.083      336.107        7.183      857.938
01/29/2014  21:34:00      -99.691      281.838      -32.682       98.201      106.365       57.560     9643.471    11313.557     3313.154        5.735        1.214      298.949       55.356        0.034      336.075        7.129      857.839
01/29/2014  21:35:00       39.220      200.690      -24.445       98.474      134.662       53.312     9697.210    18133.889     2842.155        3.654        1.534      204.486       67.947        0.110      336.030        7.056      857.769
01/29/2014  21:36:00      -75.834      318.770      -31.826      126.317      149.619       73.643    15956.084    22385.723     5423.360        7.606        2.188      327.666       52.268        0.025      336.035        7.063      857.756
01/29/2014  21:37:00      -75.535      280.747      -32.269       91.151      125.877       69.368     8308.493    15844.974     4811.884        5.726        1.448      290.731       61.085        0.044      336.003        7.010      857.832
01/29/2014  21:38:00     -122.258      372.815      -32.821      109.158      181.532       78.207    11915.551    32953.792     6116.374       10.299        2.549      392.349       94.778        0.058      335.988        6.985      857.876
01/29/2014  21:39:00      -69.072      500.350      -53.603      111.461      158.337       68.691    12423.664    25070.608     4718.475       15.010        2.111      505.095       80.387        0.025      335.935        6.896      857.852
01/29/2014  21:40:00       -5.742      517.072      -58.106      107.736      186.970       80.739    11606.938    34957.941     6518.718       16.192        2.654      517.104       88.986        0.030      335.906        6.849      857.826
01/29/2014  21:41:00      -84.582      415.364      -37.878       90.569      181.093       65.953     8202.756    32794.661     4349.832       11.322        2.267      423.888       80.499        0.036      335.895        6.829      857.837
01/29/2014  21:42:00      -57.295      420.644      -36.462      101.179      176.636       72.722    10237.162    31200.154     5288.493       11.413        2.336      424.528       84.541        0.040      335.873        6.794      857.869
01/29/2014  21:43:00      -51.638      460.906      -45.663      127.370      143.624       67.891    16223.068    20627.926     4609.199       12.932        2.073      463.790       72.766        0.025      335.842        6.741      857.867
01/29/2014  21:44:00      -62.938      498.474      -41.807      121.198      209.384       87.597    14688.898    43841.472     7673.177       16.018        3.310      502.432      101.411        0.041      335.838        6.735      857.843
01/29/2014  21:45:00      -82.320      508.505      -59.738       90.108      107.286       59.885     8119.507    11510.307     3586.161       14.607        1.161      515.125       45.147        0.008      335.825        6.714      857.824
01/29/2014  21:46:00     -102.234      358.455      -30.411      130.107      204.966       82.039    16927.702    42011.183     6730.476       10.276        3.283      372.749      102.245        0.075      335.855        6.761      857.830
01/29/2014  21:47:00      -69.225      366.965      -37.934       81.926      148.197       57.140     6711.796    21962.338     3264.963        8.641        1.597      373.437       66.263        0.031      335.823        6.710      857.789
01/29/2014  21:48:00      -40.202      311.259      -31.976       80.592      125.335       61.514     6494.993    15708.869     3784.010        6.275        1.299      313.844       67.670        0.046      335.805        6.680      857.741
01/29/2014  21:49:00     -105.677      384.549      -33.868       89.670      113.452       57.709     8040.630    12871.420     3330.359        9.221        1.212      398.805       55.137        0.019      335.794        6.662      857.776
01/29/2014  21:50:00      -40.896      369.817      -51.504       93.270       90.281       47.756     8699.201     8150.608     2280.628        8.011        0.957      372.072       46.047        0.015      335.777        6.633      857.751
01/29/2014  21:51:00       17.801      216.801      -20.748       68.063      105.166       53.025     4632.576    11059.930     2811.685        3.312        0.925      217.531       50.972        0.055      335.790        6.656      857.708
01/29/2014  21:52:00        9.793      266.593      -16.199       78.834      154.119       66.518     6214.775    23752.767     4424.655        5.291        1.720      266.773       82.844        0.096      335.777        6.634      857.741
01/29/2014  21:53:00      -81.828      304.627      -23.573       99.230      137.478       64.525     9846.553    18900.093     4163.530        6.647        1.646      315.426       60.870        0.037      335.801        6.673      857.790
01/29/2014  21:54:00      -87.349      328.359      -36.861       92.294      150.265       62.678     8518.091    22579.553     3928.482        7.591        1.751      339.778       53.727        0.025      335.813        6.693      857.854
01/29/2014  21:55:00      -62.044      447.148      -49.793       81.401      150.117       52.812     6626.066    22534.980     2789.094       11.910        1.598      451.432       60.881        0.018      335.782        6.641      857.853
01/29/2014  21:56:00      -62.140      365.676      -43.374       76.968      116.462       44.857     5924.017    13563.297     2012.195        8.048        1.075      370.918       50.453        0.019      335.770        6.621      857.823
01/29/2014  21:57:00      -45.202      261.593      -17.075       73.673       93.233       53.971     5427.741     8692.317     2912.908        4.390        0.852      265.470       44.466        0.028      335.789        6.651      857.840
01/29/2014  21:58:00      -69.354      321.561      -36.274      115.177      109.220       65.644    13265.745    11928.970     4309.131        6.951        1.475      328.955       43.743        0.018      335.767        6.616      857.809
01/29/2014  21:59:00      -74.889      313.447      -44.106      105.851      107.038       50.994    11204.371    11457.092     2600.413        6.553        1.263      322.269       45.044        0.020      335.718        6.534      857.770
01/29/2014  22:00:00      -48.545      346.670      -25.915       98.536      106.199       67.824     9709.399    11278.251     4600.086        7.439        1.279      350.052       65.907        0.035      335.744        6.578      857.707
01/29/2014  22:01:00      -25.746      332.048      -40.161       85.069       96.757       59.620     7236.751     9361.896     3554.602        6.634        1.008      333.045       48.876        0.022      335.734        6.560      857.742
01/29/2014  22:02:00      -53.964      366.121      -42.068       81.785      153.907       54.228     6688.853    23687.277     2940.688        8.602        1.666      370.077       64.198        0.030      335.711        6.523      857.776
01/29/2014  22:03:00      -40.276      393.846      -40.832       73.161      112.541       56.933     5352.533    12665.529     3241.380        8.983        1.063      395.900       60.017        0.023      335.696        6.498      857.703
01/29/2014  22:04:00      -26.625      258.992      -12.715       73.062      129.479       62.449     5338.103    16764.867     3899.938        4.697        1.300      260.357       69.700        0.072      335.696        6.499      857.620
01/29/2014  22:05:00      -28.583      267.205      -19.254       69.760      116.310       58.192     4866.399    13528.126     3386.364        4.718        1.089      268.729       55.541        0.043      335.644        6.411      857.659
01/29/2014  22:06:00       -6.489      205.088       -8.610      113.526      126.138       61.096    12888.052    15910.834     3732.680        3.735        1.627      205.191       68.489        0.111      335.676        6.466      857.766
01/29/2014  22:07:00        0.407      219.704      -21.509       78.176       85.841       54.144     6111.420     7368.730     2931.598        3.257        0.821      219.705       46.297        0.044      335.681        6.472      857.822
01/29/2014  22:08:00      -17.173      374.431      -52.603       84.060      101.976       48.941     7066.046    10399.169     2395.264        8.156        0.993      374.824       47.675        0.016      335.649        6.420      857.840
01/29/2014  22:09:00       -7.074      322.936      -45.172       68.378      107.161       47.167     4675.502    11483.445     2224.757        6.238        0.919      323.014       55.558        0.030      335.670        6.454      857.828
01/29/2014  22:10:00      -48.752      314.547      -38.486       74.490       79.697       48.622     5548.771     6351.616     2364.110        5.853        0.713      318.302       31.581        0.010      335.662        6.442      857.847
01/29/2014  22:11:00      -20.405      229.036      -13.017       74.896       89.018       56.479     5609.400     7924.203     3189.899        3.488        0.836      229.944       51.872        0.051      335.694        6.494      857.827
01/29/2014  22:12:00       60.759      135.853      -10.726       52.840       71.104       37.339     2792.086     5055.708     1394.206        1.575        0.462      148.821       33.403        0.050      335.638        6.404      857.808
01/29/2014  22:13:00       54.232       99.042       13.339       83.256       68.276       46.669     6931.609     4661.667     2178.042        1.335        0.689      112.917       38.917        0.119      335.622        6.377      857.791
01/29/2014  22:14:00       28.429      230.845      -19.951       81.496      120.719       59.106     6641.617    14572.991     3493.514        3.960        1.235      232.589       54.715        0.055      335.645        6.415      857.759
01/29/2014  22:15:00      -52.267      222.223      -26.598       82.289      100.423       46.008     6771.437    10084.815     2116.735        3.589        0.949      228.287       44.102        0.037      335.673        6.461      857.681
01/29/2014  22:16:00      -18.748      301.172      -50.111       91.605      106.812       35.685     8391.541    11408.700     1273.426        5.732        1.054      301.755       32.734        0.012      335.615        6.363      857.672
01/29/2014  22:17:00      -42.282      144.781       -7.830       59.271      113.573       41.052     3513.098    12898.813     1685.263        2.045        0.905      150.828       48.758        0.105      335.683        6.477      857.767
01/29/2014  22:18:00     -116.345      370.962      -50.328       86.976      149.128       63.566     7564.903    22239.236     4040.693        9.376        1.692      388.779       66.612        0.029      335.642        6.409      857.927
01/29/2014  22:19:00      -71.845      231.141      -23.308       85.686      124.107       54.586     7342.024    15402.604     2979.667        4.242        1.286      242.049       54.952        0.052      335.665        6.447      858.023
01/29/2014  22:20:00      -67.591      311.696      -40.779       87.939      116.226       47.268     7733.283    13508.561     2234.257        6.343        1.174      318.940       40.425        0.016      335.626        6.382      858.062
01/29/2014  22:21:00      -47.696      372.683      -47.844       93.813      126.905       60.098     8800.949    16104.921     3611.777        8.598        1.426      375.723       49.506        0.017      335.596        6.332      858.011
01/29/2014  22:22:00       27.294      338.795      -43.584       89.680      106.892       55.103     8042.524    11425.811     3036.290        6.996        1.125      339.893       49.009        0.021      335.577        6.299      857.926
01/29/2014  22:23:00      -16.968      394.147      -40.867       92.872      166.567       69.931     8625.227    27744.527     4890.322        9.928        2.063      394.512       72.233        0.034      335.555        6.264      857.859
01/29/2014  22:24:00      -31.371      287.020      -29.285       97.671      112.720       57.363     9539.568    12705.759     3290.547        5.487        1.277      288.729       60.958        0.045      335.568        6.285      857.907
01/29/2014  22:25:00      -57.849      163.115       -0.479       83.950      121.724       60.602     7047.653    14816.752     3672.576        2.774        1.277      173.069       70.199        0.165      335.643        6.412      858.025
01/29/2014  22:26:00      -40.749      233.087      -35.322       68.198      110.089       48.295     4650.956    12119.591     2332.380        3.817        0.955      236.622       43.211        0.033      335.582        6.309      858.106
01/29/2014  22:27:00      -72.567      232.561      -24.708       71.160      107.785       46.852     5063.794    11617.693     2195.082        3.942        0.944      243.620       51.318        0.044      335.645        6.414      858.117
01/29/2014  22:28:00      -23.083      241.030      -24.782       71.171       86.444       44.690     5065.365     7472.482     1997.172        3.689        0.727      242.133       45.724        0.036      335.569        6.289      858.049
01/29/2014  22:29:00       40.175      105.890        8.921      101.432       67.783       40.496    10288.505     4594.576     1639.929        1.471        0.826      113.255       44.100        0.152      335.621        6.376      857.966
01/29/2014  22:30:00      -26.616      235.068      -26.715       45.845      101.215       38.090     2101.777    10244.483     1450.816        3.524        0.690      236.570       38.141        0.026      335.520        6.207      857.897
01/29/2014  22:31:00       -4.371      210.328      -24.070       84.216      107.074       42.971     7092.286    11464.809     1846.518        3.262        1.020      210.374       50.128        0.057      335.517        6.202      857.859
01/29/2014  22:32:00      -81.371      244.017      -26.324       87.247      141.354       60.341     7612.008    19980.932     3641.080        4.904        1.562      257.227       64.238        0.062      335.571        6.291      857.890
01/29/2014  22:33:00      -86.828      185.589      -23.266       87.956      100.572       53.335     7736.263    10114.774     2844.570        3.161        1.035      204.896       44.261        0.047      335.603        6.346      857.952
01/29/2014  22:34:00       18.811       84.083        3.588       70.023       55.878       37.703     4903.275     3122.406     1421.512        0.844        0.472       86.161       35.049        0.165      335.646        6.418      857.910
01/29/2014  22:35:00      -24.016      118.602       -6.514       44.738       65.262       30.628     2001.473     4259.173      938.066        1.094        0.360      121.009       34.390        0.081      335.649        6.423      857.835
01/29/2014  22:36:00      -13.476      286.395      -35.913       47.027      119.224       43.415     2211.575    14214.295     1884.851        5.090        0.916      286.712       48.471        0.029      335.542        6.243      857.806
01/29/2014  22:37:00       17.532      295.734      -13.216      104.798      146.895       76.112    10982.719    21578.208     5792.993        6.314        1.918      296.253       85.573        0.083      335.484        6.146      857.783
01/29/2014  22:38:00      -86.886      389.478      -50.182       73.049       97.074       55.909     5336.201     9423.290     3125.818        8.982        0.894      399.051       55.018        0.019      335.497        6.166      857.818
01/29/2014  22:39:00        5.327      125.202       -2.387       63.275       79.981       39.118     4003.676     6396.970     1530.202        1.382        0.597      125.315       40.021        0.102      335.562        6.278      857.855
01/29/2014  22:40:00       31.527       87.712       -2.599       48.897       49.812       33.443     2390.870     2481.256     1118.405        0.734        0.300       93.206       35.223        0.143      335.485        6.151      857.932
01/29/2014  22:41:00      -51.235      166.745      -11.611       60.794       74.300       46.592     3695.926     5520.419     2170.808        2.097        0.569      174.438       44.651        0.066      335.545        6.248      858.061
01/29/2014  22:42:00      -17.368      137.190        3.078       42.926       88.942       44.304     1842.674     7910.680     1962.824        1.542        0.586      138.285       45.282        0.107      335.576        6.300      858.121
01/29/2014  22:43:00      -14.600      151.339       -7.684       64.434       80.401       46.218     4151.687     6464.347     2136.058        1.796        0.638      152.042       43.877        0.083      335.536        6.234      858.091
01/29/2014  22:44:00       19.369      282.490      -39.978       55.842       63.828       34.069     3118.345     4074.073     1160.671        4.506        0.418      283.154       31.347        0.012      335.447        6.083      858.039
01/29/2014  22:45:00      -33.166      200.194      -23.191       66.747      101.614       31.816     4455.194    10325.476     1012.250        2.875        0.790      202.923       42.585        0.044      335.495        6.164      858.033
01/29/2014  22:46:00       55.593       59.825       -3.164       84.990       58.881       30.775     7223.311     3466.965      947.118        0.916        0.582       81.668       21.127        0.067      335.512        6.194      858.014
01/29/2014  22:47:00       28.006      209.159      -12.836       59.531      123.999       58.866     3543.994    15375.684     3465.263        3.354        1.119      211.026       67.368        0.102      335.432        6.060      858.005
01/29/2014  22:48:00       33.980      108.586        3.694       83.217       93.107       47.113     6925.131     8668.893     2219.681        1.538        0.891      113.779       56.246        0.244      335.391        5.991      858.030
01/29/2014  22:49:00      -22.225      275.094      -26.833       72.611      105.683       41.450     5272.429    11168.949     1718.110        4.752        0.908      275.990       40.401        0.021      335.414        6.029      858.063
01/29/2014  22:50:00      -24.864      277.869      -24.156       71.052       86.214       48.067     5048.368     7432.841     2310.458        4.660        0.740      278.979       40.868        0.021      335.436        6.064      858.088
01/29/2014  22:51:00       18.687      207.456      -15.540       67.418       86.504       49.947     4545.193     7482.929     2494.658        2.907        0.726      208.296       46.577        0.050      335.422        6.042      858.070
01/29/2014  22:52:00       62.185      137.155        2.774       70.962       85.422       54.091     5035.654     7296.906     2925.808        1.897        0.763      150.593       48.863        0.105      335.392        5.994      858.012
01/29/2014  22:53:00      103.716      208.632      -28.113       78.674      102.112       53.848     6189.566    10426.777     2899.569        3.729        0.976      232.990       60.083        0.067      335.369        5.953      857.946
01/29/2014  22:54:00       49.497      105.616       -4.902       70.537       53.720       40.013     4975.413     2885.875     1601.048        1.154        0.473      116.639       30.332        0.068      335.392        5.997      857.951
01/29/2014  22:55:00      -59.049      223.546      -22.744       77.834       88.763       37.133     6058.098     7878.850     1378.897        3.464        0.766      231.214       31.520        0.019      335.418        6.035      858.007
01/29/2014  22:56:00        5.724      223.992      -43.101       55.921       60.190       30.452     3127.170     3622.863      927.326        2.987        0.384      224.065       18.108        0.007      335.439        6.070      858.052
01/29/2014  22:57:00      -12.004      201.981      -11.971       88.668       89.677       61.136     7862.070     8042.029     3737.650        3.036        0.982      202.338       54.843        0.073      335.465        6.115      858.081
01/29/2014  22:58:00      -44.002      189.104      -24.399       56.241       64.502       35.960     3163.063     4160.475     1293.137        2.345        0.431      194.156       33.616        0.030      335.468        6.119      858.080
01/29/2014  22:59:00      -16.267      122.681       -3.782       52.295       66.452       32.241     2734.763     4415.870     1039.486        1.176        0.410      123.755       32.188        0.068      335.547        6.252      858.061
01/29/2014  23:00:00       28.579       22.891        4.760       40.538       32.484       16.692     1643.311     1055.224      278.632        0.217        0.149       36.616       12.775        0.122      335.437        6.072      858.070
01/29/2014  23:01:00       34.054       42.104       24.372       47.663       41.461       30.831     2271.800     1718.979      950.539        0.423        0.247       54.152       21.555        0.158      335.387        5.986      858.098
01/29/2014  23:02:00       11.578        2.642        2.087       23.681       17.300       23.872      560.796      299.287      569.852        0.079        0.071       11.876       20.717        3.043      335.421        6.044      858.085
01/29/2014  23:03:00       21.040        9.333        2.725       25.966       18.358       19.174      674.243      337.032      367.626        0.096        0.069       23.017       18.825        0.669      335.431        6.061      858.081
01/29/2014  23:04:00        6.583      -28.827        1.908       15.932       22.232       15.510      253.844      494.263      240.555        0.093        0.049       29.569       14.539        0.242      335.589        6.324      858.087
01/29/2014  23:05:00       11.980      -83.960      -18.957       44.497       24.130       13.884     1979.990      582.262      192.776        0.515        0.138       84.810        6.844        0.007      335.506        6.184      858.058
01/29/2014  23:06:00       -9.180      -82.887       -4.421       45.927       24.328       26.649     2109.266      591.855      710.164        0.519        0.171       83.394       22.165        0.071      335.545        6.249      858.027
01/29/2014  23:07:00      -29.324      -92.380      -22.554       50.517       44.712       33.293     2551.993     1999.196     1108.449        0.778        0.283       96.923       26.363        0.074      335.714        6.533      857.991
01/29/2014  23:08:00      -22.603      -60.934       -5.843       51.379       49.788       33.569     2639.797     2478.836     1126.897        0.525        0.312       64.991       26.271        0.163      335.681        6.477      857.999
01/29/2014  23:09:00      -94.091       28.850      -15.988       43.799       61.097       23.704     1918.395     3732.903      561.881        0.808        0.311       98.414       29.085        0.087      335.490        6.159      858.030
01/29/2014  23:10:00      -70.330       19.757        8.275       60.970       24.371       21.538     3717.304      593.928      463.882        0.509        0.239       73.053       29.655        0.165      335.490        6.158      858.106
01/29/2014  23:11:00      -97.702      -61.997        3.750       68.513       44.538       40.031     4694.069     1983.616     1602.459        1.084        0.414      115.712       42.784        0.137      335.516        6.201      858.181
01/29/2014  23:12:00     -150.677       -2.424       -2.453       87.100       92.037       36.068     7586.432     8470.862     1300.866        2.003        0.868      150.696       40.577        0.073      335.420        6.040      858.203
01/29/2014  23:13:00      -67.696       57.547      -15.279       64.588       41.431       18.371     4171.581     1716.490      337.489        0.718        0.311       88.851       20.053        0.051      335.406        6.017      858.226
01/29/2014  23:14:00       30.021       67.823       -9.545       83.794       74.312       29.196     7021.475     5522.339      852.423        0.949        0.670       74.170       32.008        0.186      335.416        6.036      858.247
01/29/2014  23:15:00      -29.840        7.281       -1.111       96.179      118.574       53.141     9250.448    14059.763     2823.931        1.354        1.307       30.715       35.074        1.304      335.481        6.144      858.246
01/29/2014  23:16:00       32.194      164.343       -6.061       81.744       75.355       44.841     6682.130     5678.332     2010.677        2.122        0.719      167.466       38.926        0.054      335.384        5.980      858.310
01/29/2014  23:17:00      -70.551      402.524      -53.204      195.930      182.776       95.853    38388.738    33406.993     9187.870       12.540        4.049      408.660      103.309        0.064      335.184        5.647      858.291
01/29/2014  23:18:00     -137.578      192.586      -36.042      182.309      122.498       72.170    33236.653    15005.751     5208.438        5.537        2.673      236.679       67.995        0.083      335.185        5.650      858.270
01/29/2014  23:19:00     -166.507      327.170      -45.324      129.129      176.411       75.700    16674.385    31121.004     5730.523        9.516        2.676      367.103       73.459        0.040      335.094        5.499      858.171
01/29/2014  23:20:00     -122.643      375.125      -44.673      100.116      153.111       78.799    10023.277    23442.863     6209.337        9.871        1.984      394.665       66.932        0.029      335.031        5.393      858.064
01/29/2014  23:21:00     -167.385      360.800      -48.414      130.024      111.054       70.608    16906.300    12332.988     4985.534        9.738        1.711      397.737       65.550        0.027      334.997        5.336      858.020
01/29/2014  23:22:00     -165.563      488.959      -47.788      121.313      149.462       76.262    14716.875    22338.848     5815.884       15.582        2.144      516.228       78.021        0.023      334.981        5.311      858.023
01/29/2014  23:23:00     -141.120      255.016      -36.006      134.219      213.343       86.026    18014.789    45515.104     7400.539        7.858        3.547      291.458       64.556        0.049      334.986        5.319      857.995
01/29/2014  23:24:00     -194.321      263.409      -28.825      138.951      150.445       95.434    19307.451    22633.582     9107.670        7.950        2.552      327.330       86.500        0.070      334.964        5.280      857.971
01/29/2014  23:25:00     -274.536      389.660      -81.858      122.428      141.960       72.875    14988.681    20152.550     5310.700       13.717        2.023      476.660       69.097        0.021      334.904        5.181      857.923
01/29/2014  23:26:00     -171.785      493.043      -55.975      135.764      135.609       74.976    18431.873    18389.745     5621.457       15.908        2.122      522.113       75.437        0.021      334.892        5.162      857.986
01/29/2014  23:27:00      -84.838      327.438      -41.510       76.093      147.571       60.957     5790.201    21777.124     3715.729        7.370        1.564      338.250       70.790        0.044      334.906        5.183      857.961
01/29/2014  23:28:00     -180.581      155.173        3.921      145.752       95.631       75.920    21243.774     9145.210     5763.800        4.642        1.808      238.093       51.719        0.047      334.914        5.198      858.021
01/29/2014  23:29:00     -310.532      375.027      -71.112      175.683      142.286       94.970    30864.404    20245.398     9019.379       15.112        3.006      486.904       92.643        0.036      334.842        5.078      858.116
01/29/2014  23:30:00     -215.336      334.553      -42.208      149.923      158.469       75.651    22476.768    25112.408     5723.068       10.669        2.666      397.863       88.312        0.049      334.846        5.085      858.096
01/29/2014  23:31:00     -175.247      304.200      -39.023      135.308      158.025       71.844    18308.353    24971.942     5161.519        8.660        2.422      351.069       72.068        0.042      334.797        5.002      858.049
01/29/2014  23:32:00     -144.699      213.265      -34.442      103.774      129.182       60.532    10769.008    16687.968     3664.165        4.936        1.556      257.720       66.344        0.066      334.780        4.976      858.013
01/29/2014  23:33:00     -216.446      308.753      -68.580      152.094      127.282       76.100    23132.440    16200.596     5791.182        9.599        2.256      377.064       75.800        0.040      334.757        4.937      858.052
01/29/2014  23:34:00     -210.080      339.490      -49.614      140.464      186.203       66.000    19730.089    34671.622     4355.977       11.029        2.938      399.233       85.315        0.046      334.744        4.915      858.102
01/29/2014  23:35:00     -188.083      311.246      -26.313      168.385      241.622      108.716    28353.602    58381.348    11819.072       11.573        4.928      363.661      115.910        0.102      334.753        4.930      858.148
01/29/2014  23:36:00     -224.173      340.395      -22.370      137.937      187.117       90.913    19026.505    35012.683     8265.184       11.445        3.115      407.581       84.442        0.043      334.769        4.956      858.195
01/29/2014  23:37:00     -305.181      178.361      -48.370      161.106      146.234       81.822    25955.224    21384.366     6694.819        9.065        2.702      353.480       56.267        0.025      334.761        4.943      858.258
01/29/2014  23:38:00     -164.783      115.348      -34.090       93.449      147.644       55.659     8732.799    21798.716     3097.897        3.762        1.681      201.143       49.972        0.062      334.783        4.979      858.281
01/29/2014  23:39:00     -170.911      126.630       -7.471      134.332      157.663       84.024    18045.018    24857.570     7059.993        4.762        2.498      212.710       54.360        0.065      334.820        5.042      858.297
01/29/2014  23:40:00     -224.339       67.689      -27.270      137.521      173.650       61.079    18911.960    30154.367     3730.684        5.422        2.640      234.329       46.716        0.040      334.804        5.013      858.260
01/29/2014  23:41:00     -209.139      158.776      -39.849      133.504      148.763       79.746    17823.256    22130.492     6359.458        5.842        2.316      262.581       64.548        0.060      334.785        4.985      858.211
01/29/2014  23:42:00     -230.691      122.237      -13.434      149.104      109.903       65.408    22231.980    12078.664     4278.196        5.346        1.929      261.075       70.602        0.073      334.783        4.980      858.182
01/29/2014  23:43:00     -204.093       -2.881      -33.561      161.160       99.622       80.046    25972.666     9924.520     6407.377        4.254        2.115      204.113       85.269        0.175      334.788        4.987      858.194
01/29/2014  23:44:00     -122.408       -6.549       -9.651      103.828       96.381       56.483    10780.151     9289.362     3190.302        1.919        1.163      122.583       38.814        0.100      334.753        4.931      858.183
01/29/2014  23:45:00     -140.441       31.371       -7.493       86.431      100.646       44.167     7470.345    10129.606     1950.756        2.015        0.978      143.902       47.191        0.108      334.736        4.904      858.172
01/29/2014  23:46:00     -193.601      151.298      -13.480       90.757      141.954       62.343     8236.899    20150.905     3886.648        4.641        1.614      245.708       54.048        0.048      334.773        4.963      858.152
01/29/2014  23:47:00     -233.331      165.984      -25.623      144.904      132.283       74.406    20997.134    17498.750     5536.272        6.333        2.202      286.346       80.353        0.079      334.821        5.043      858.117
01/29/2014  23:48:00     -227.433       52.435      -31.399      118.906      169.951       84.362    14138.521    28883.501     7117.031        5.279        2.507      233.399       83.124        0.127      334.824        5.047      858.085
01/29/2014  23:49:00     -178.374       85.104        6.396      150.015      141.876       77.228    22504.588    20128.797     5964.115        4.384        2.430      197.636       81.967        0.172      334.838        5.072      858.098
01/29/2014  23:50:00     -145.770      183.955      -37.719      130.816      121.999       55.614    17112.858    14883.676     3092.923        4.579        1.754      234.709       61.680        0.069      334.860        5.110      858.095
01/29/2014  23:51:00     -196.867      152.483      -31.449      122.368      125.277       64.602    14973.816    15694.446     4173.461        4.891        1.742      249.013       70.372        0.080      334.826        5.053      858.096
01/29/2014  23:52:00     -212.609      276.525      -43.220      157.079      148.169       77.734    24673.959    21954.194     6042.547        8.809        2.634      348.811       62.037        0.032      334.847        5.087      858.093
01/29/2014  23:53:00     -169.556      214.140      -37.736       84.680      135.134       59.017     7170.759    18261.287     3482.951        5.247        1.446      273.140       36.316        0.018      334.848        5.088      858.149
01/29/2014  23:54:00     -238.525      159.063      -35.725      142.067      188.280       85.665    20183.094    35449.205     7338.475        7.321        3.149      286.697       81.228        0.080      334.819        5.039      858.191
01/29/2014  23:55:00     -309.017       56.915      -19.806      123.423      153.631       75.364    15233.330    23602.508     5679.741        7.181        2.226      314.214       64.937        0.043      334.781        4.977      858.243
01/29/2014  23:56:00     -147.616      -83.953        0.726      170.240       94.897       77.395    28981.697     9005.368     5989.956        3.640        2.199      169.820       87.664        0.266      334.761        4.943      858.244
01/29/2014  23:57:00     -215.259      -59.459        4.653      130.659      105.288       49.396    17071.720    11085.460     2439.963        4.024        1.530      223.320       51.769        0.054      334.710        4.861      858.215
01/29/2014  23:58:00     -142.142       39.956       11.229      148.931       84.378       59.305    22180.356     7119.712     3517.090        2.737        1.641      147.651       69.571        0.222      334.746        4.921      858.226
01/29/2014  23:59:00     -219.819       61.058      -23.223      169.832      132.070       70.680    28843.050    17442.395     4995.689        5.193        2.564      228.141       79.982        0.123      334.749        4.924      858.239
